[[{"header":{"parameterUnit":"m.s-1","parameterCategory":1,"la1":31.0,"la2":29.5877,"lo1":-88.7671,"lo2":-86.6584,"dx":0.0162,"dy":0.0185,"nx":115,"ny":88,"refTime":"2023-01-08T18:00:00:Z","depth":0,"parameterNumber":2,"parameterNumberName":"U-component_of_WINDS"},"data":[0.0,0.0,0.0,0.0,0.0,0.0,0.0,0.0,0.0,0.0,0.0,0.0,0.0,0.0,0.0,0.0,0.0,0.0,0.0,0.0,0.0,0.0,0.0,0.0,0.0,0.0,0.0,0.0,0.0,0.0,0.0,0.0,0.0,0.0,0.0,0.0,0.0,0.0,0.0,0.0,0.0,0.0,0.0,0.0,0.0,0.0,0.0,0.0,0.0,0.0,0.0,0.0,0.0,0.0,0.0,0.0,0.0,0.0,0.0,0.0,0.0,0.0,0.0,0.0,0.0,0.0,0.0,0.0,0.0,0.0,0.0,0.0,0.0,0.0,0.0,0.0,0.0,0.0,0.0,0.0,0.0,0.0,0.0,0.0,0.0,0.0,0.0,0.0,0.0,0.0,0.0,0.0,0.0,0.0,0.0,0.0,0.0,0.0,0.0,0.0,0.0,0.0,0.0,0.0,0.0,0.0,0.0,0.0,0.0,0.0,0.0,0.0,0.0,0.0,0.0,0.0,0.0,0.0,0.0,0.0,0.0,0.0,0.0,0.0,0.0,0.0,0.0,0.0,0.0,0.0,0.0,0.0,0.0,0.0,0.0,0.0,0.0,0.0,0.0,0.0,0.0,0.0,0.0,0.0,0.0,0.0,0.0,0.0,0.0,0.0,0.0,0.0,0.0,0.0,0.0,0.0,0.0,0.0,0.0,0.0,0.0,0.0,0.0,0.0,0.0,0.0,0.0,0.0,0.0,0.0,0.0,0.0,0.0,0.0,0.0,0.0,0.0,0.0,0.0,0.0,0.0,0.0,0.0,0.0,0.0,0.0,0.0,0.0,0.0,0.0,0.0,0.0,0.0,0.0,0.0,0.0,0.0,0.0,0.0,0.0,0.0,0.0,0.0,0.0,0.0,0.0,0.0,0.0,0.0,0.0,0.0,0.0,0.0,0.0,0.0,0.0,0.0,0.0,0.0,0.0,0.0,0.0,0.0,0.0,0.0,0.0,0.0,0.0,0.0,0.0,0.0,0.0,0.0,0.0,0.0,0.0,0.0,0.0,0.0,0.0,0.0,0.0,0.0,0.0,0.0,0.0,0.0,0.0,0.0,0.0,0.0,0.0,0.0,0.0,0.0,0.0,0.0,0.0,0.0,0.0,0.0,0.0,0.0,0.0,0.0,0.0,0.0,0.0,0.0,0.0,0.0,0.0,0.0,0.0,0.0,0.0,0.0,0.0,0.0,0.0,0.0,0.0,0.0,0.0,0.0,0.0,0.0,0.0,0.0,0.0,0.0,0.0,0.0,0.0,0.0,0.0,0.0,0.0,0.0,0.0,0.0,0.0,0.0,0.0,0.0,0.0,0.0,0.0,0.0,0.0,0.0,0.0,0.0,0.0,0.0,0.0,0.0,0.0,0.0,0.0,0.0,0.0,0.0,0.0,0.0,0.0,0.0,0.0,0.0,0.0,0.0,0.0,0.0,0.0,0.0,0.0,0.0,0.0,0.0,0.0,0.0,0.0,0.0,0.0,0.0,0.0,0.0,0.0,0.0,0.0,0.0,0.0,0.0,0.0,0.0,0.0,0.0,0.0,0.0,0.0,0.0,0.0,0.0,0.0,0.0,0.0,0.0,0.0,0.0,0.0,0.0,0.0,0.0,0.0,0.0,0.0,0.0,0.0,0.0,0.0,0.0,0.0,0.0,0.0,0.0,0.0,0.0,0.0,0.0,0.0,0.0,0.0,0.0,0.0,0.0,0.0,0.0,0.0,0.0,0.0,0.0,0.0,0.0,0.0,0.0,0.0,0.0,0.0,0.0,0.0,0.0,0.0,0.0,0.0,0.0,0.0,0.0,0.0,0.0,0.0,0.0,0.0,0.0,0.0,0.0,0.0,0.0,0.0,0.0,0.0,0.0,0.0,0.0,0.0,0.0,0.0,0.0,0.0,0.0,0.0,0.0,0.0,0.0,0.0,0.0,0.0,0.0,0.0,0.0,0.0,0.0,0.0,0.0,0.0,0.0,0.0,0.0,0.0,0.0,0.0,0.0,0.0,0.0,0.0,0.0,0.0,0.0,0.0,0.0,0.0,0.0,0.0,0.0,0.0,0.0,0.0,0.0,0.0,0.0,0.0,0.0,0.0,0.0,0.0,0.0,0.0,0.0,0.0,0.0,0.0,0.0,0.0,0.0,0.0,0.0,0.0,0.0,0.0,0.0,0.0,0.0,0.0,0.0,0.0,0.0,0.0,0.0,0.0,0.0,0.0,0.0,0.0,0.0,0.0,0.0,0.0,0.0,0.0,0.0,0.0,0.0,0.0,0.0,0.0,0.0,0.0,0.0,0.0,0.0,0.0,0.0,0.0,0.0,0.0,0.0,0.0,0.0,0.0,0.0,0.0,0.0,0.0,0.0,0.0,0.0,0.0,0.0,0.0,0.0,0.0,0.0,0.0,0.0,0.0,0.0,0.0,0.0,0.0,0.0,0.0,0.0,0.0,0.0,0.0,0.0,0.0,0.0,0.0,0.0,0.0,0.0,0.0,0.0,0.0,0.0,0.0,0.0,0.0,0.0,0.0,0.0,0.0,0.0,0.0,0.0,0.0,0.0,0.0,0.0,0.0,0.0,0.0,0.0,0.0,0.0,0.0,0.0,0.0,0.0,0.0,0.0,0.0,0.0,0.0,0.0,0.0,0.0,0.0,0.0,0.0,0.0,0.0,0.0,0.0,0.0,0.0,0.0,0.0,0.0,0.0,0.0,0.0,0.0,0.0,0.0,0.0,0.0,0.0,0.0,0.0,0.0,0.0,0.0,0.0,0.0,0.0,0.0,0.0,0.0,0.0,0.0,0.0,0.0,0.0,0.0,0.0,0.0,0.0,0.0,0.0,0.0,0.0,0.0,0.0,0.0,0.0,0.0,0.0,0.0,0.0,0.0,0.0,0.0,0.0,0.0,0.0,0.0,0.0,0.0,0.0,0.0,0.0,0.0,0.0,0.0,0.0,0.0,0.0,0.0,0.0,0.0,0.0,0.0,0.0,0.0,0.0,0.0,0.0,0.0,0.0,0.0,0.0,0.0,0.0,0.0,0.0,0.0,0.0,0.0,0.0,0.0,0.0,0.0,0.0,0.0,0.0,0.0,0.0,0.0,0.0,0.0,0.0,0.0,0.0,0.0,0.0,0.0,0.0,0.0,0.0,0.0,0.0,0.0,0.0,0.0,0.0,0.0,0.0,0.0,0.0,0.0,0.0,0.0,0.0,0.0,0.0,0.0,0.0,0.0,0.0,0.0,0.0,0.0,0.0,0.0,0.0,0.0,0.0,0.0,0.0,0.0,0.0,0.0,0.0,0.0,0.0,0.0,0.0,0.0,0.0,0.0,0.0,0.0,0.0,0.0,0.0,0.0,0.0,0.0,0.0,0.0,0.0,0.0,0.0,0.0,0.0,0.0,0.0,0.0,0.0,0.0,0.0,0.0,0.0,0.0,0.0,0.0,0.0,0.0,0.0,0.0,0.0,0.0,0.0,0.0,0.0,0.0,0.0,0.0,0.0,0.0,0.0,0.0,0.0,0.0,0.0,0.0,0.0,0.0,0.0,0.0,0.0,0.0,0.0,0.0,0.0,0.0,0.0,0.0,0.0,0.0,0.0,0.0,0.0,0.0,0.0,0.0,0.0,0.0,0.0,0.0,0.0,0.0,0.0,0.0,0.0,0.0,0.0,0.0,0.0,0.0,0.0,0.0,0.0,0.0,0.0,0.0,0.0,0.0,0.0,0.0,0.0,0.0,0.0,0.0,0.0,0.0,0.0,0.0,0.0,0.0,0.0,0.0,0.0,0.0,0.0,0.0,0.0,0.0,0.0,0.0,0.0,0.0,0.0,0.0,0.0,0.0,0.0,0.0,0.0,0.0,0.0,0.0,0.0,0.0,0.0,0.0,0.0,0.0,0.0,0.0,0.0,0.0,0.0,0.0,0.0,0.0,0.0,0.0,0.0,0.0,0.0,0.0,0.0,0.0,0.0,0.0,0.0,0.0,0.0,0.0,0.0,0.0,0.0,0.0,0.0,0.0,0.0,0.0,0.0,0.0,0.0,0.0,0.0,0.0,0.0,0.0,0.0,0.0,0.0,0.0,0.0,0.0,0.0,0.0,0.0,0.0,0.0,0.0,0.0,0.0,0.0,0.0,0.0,0.0,0.0,0.0,0.0,0.0,0.0,0.0,0.0,0.0,0.0,0.0,0.0,0.0,0.0,0.0,0.0,0.0,0.0,-3.4456,0.0,0.0,0.0,-3.6249,0.0,0.0,0.0,0.0,0.0,0.0,0.0,0.0,0.0,0.0,0.0,0.0,0.0,0.0,0.0,0.0,0.0,0.0,0.0,0.0,0.0,0.0,0.0,0.0,0.0,0.0,0.0,0.0,0.0,0.0,0.0,0.0,0.0,0.0,0.0,0.0,0.0,0.0,0.0,0.0,0.0,0.0,0.0,0.0,0.0,0.0,0.0,0.0,0.0,0.0,0.0,0.0,0.0,0.0,0.0,0.0,0.0,0.0,0.0,0.0,0.0,0.0,0.0,0.0,0.0,0.0,0.0,0.0,0.0,0.0,0.0,0.0,0.0,0.0,0.0,0.0,0.0,0.0,0.0,0.0,0.0,0.0,0.0,0.0,0.0,0.0,0.0,0.0,0.0,0.0,0.0,0.0,0.0,0.0,0.0,0.0,0.0,0.0,0.0,0.0,0.0,0.0,0.0,0.0,0.0,0.0,0.0,0.0,0.0,0.0,-3.3179,-3.3938,-3.4387,-3.4938,-3.5663,0.0,0.0,0.0,0.0,0.0,0.0,0.0,0.0,0.0,0.0,0.0,0.0,0.0,0.0,0.0,0.0,0.0,0.0,0.0,0.0,0.0,0.0,0.0,0.0,0.0,0.0,0.0,0.0,0.0,0.0,0.0,0.0,0.0,0.0,0.0,0.0,0.0,0.0,0.0,0.0,0.0,0.0,0.0,0.0,0.0,0.0,0.0,0.0,0.0,0.0,0.0,0.0,0.0,0.0,0.0,0.0,0.0,0.0,0.0,0.0,0.0,0.0,0.0,0.0,0.0,0.0,0.0,0.0,0.0,0.0,0.0,0.0,0.0,0.0,0.0,0.0,0.0,0.0,0.0,0.0,0.0,0.0,0.0,0.0,0.0,0.0,0.0,0.0,0.0,0.0,0.0,0.0,0.0,0.0,0.0,0.0,0.0,0.0,0.0,0.0,0.0,0.0,0.0,0.0,0.0,0.0,0.0,0.0,0.0,0.0,0.0,0.0,-3.347,-3.4283,-3.518,0.0,0.0,0.0,0.0,0.0,0.0,0.0,0.0,0.0,0.0,0.0,0.0,0.0,0.0,0.0,0.0,0.0,0.0,0.0,0.0,0.0,0.0,0.0,0.0,0.0,0.0,0.0,0.0,0.0,0.0,0.0,0.0,0.0,0.0,0.0,0.0,0.0,0.0,0.0,0.0,0.0,0.0,0.0,0.0,0.0,0.0,0.0,0.0,0.0,0.0,0.0,0.0,0.0,0.0,0.0,0.0,0.0,0.0,0.0,0.0,0.0,0.0,0.0,0.0,0.0,0.0,0.0,0.0,0.0,0.0,0.0,0.0,0.0,0.0,0.0,0.0,0.0,0.0,0.0,0.0,0.0,0.0,0.0,0.0,0.0,0.0,0.0,0.0,0.0,0.0,0.0,0.0,0.0,0.0,0.0,0.0,0.0,0.0,0.0,0.0,0.0,0.0,0.0,0.0,0.0,0.0,0.0,0.0,0.0,0.0,-3.1933,-3.2803,-3.2872,0.0,-3.5111,0.0,0.0,0.0,0.0,0.0,0.0,0.0,0.0,0.0,0.0,0.0,0.0,0.0,0.0,0.0,0.0,0.0,0.0,0.0,0.0,0.0,0.0,0.0,0.0,0.0,0.0,0.0,0.0,0.0,0.0,0.0,0.0,0.0,0.0,0.0,0.0,0.0,0.0,0.0,0.0,0.0,0.0,0.0,0.0,0.0,0.0,0.0,0.0,0.0,0.0,0.0,0.0,0.0,0.0,0.0,0.0,0.0,0.0,0.0,0.0,0.0,0.0,0.0,0.0,0.0,0.0,0.0,0.0,0.0,0.0,0.0,0.0,0.0,0.0,0.0,0.0,0.0,0.0,0.0,0.0,0.0,0.0,0.0,0.0,0.0,0.0,0.0,0.0,0.0,0.0,0.0,0.0,0.0,0.0,0.0,0.0,0.0,0.0,0.0,0.0,0.0,0.0,0.0,0.0,0.0,0.0,0.0,0.0,0.0,0.0,-3.177,-3.2226,-3.2582,-3.3505,0.0,0.0,0.0,0.0,0.0,0.0,0.0,0.0,0.0,0.0,0.0,0.0,0.0,0.0,0.0,0.0,0.0,0.0,0.0,0.0,0.0,0.0,0.0,0.0,0.0,0.0,0.0,0.0,0.0,0.0,0.0,0.0,0.0,0.0,0.0,0.0,0.0,0.0,0.0,0.0,0.0,0.0,0.0,0.0,0.0,0.0,0.0,0.0,0.0,0.0,0.0,0.0,0.0,0.0,0.0,0.0,0.0,0.0,0.0,0.0,0.0,0.0,0.0,0.0,0.0,0.0,0.0,0.0,0.0,0.0,0.0,0.0,0.0,0.0,0.0,0.0,0.0,0.0,0.0,0.0,0.0,0.0,0.0,0.0,0.0,0.0,0.0,0.0,0.0,0.0,0.0,0.0,0.0,0.0,0.0,0.0,0.0,0.0,0.0,0.0,0.0,0.0,0.0,0.0,0.0,0.0,0.0,0.0,0.0,0.0,-3.1831,-3.1953,-3.2288,-3.2838,-3.3691,-3.4877,0.0,0.0,0.0,0.0,0.0,0.0,0.0,0.0,0.0,0.0,0.0,0.0,0.0,0.0,0.0,0.0,0.0,0.0,0.0,0.0,0.0,0.0,0.0,0.0,0.0,0.0,0.0,0.0,0.0,0.0,0.0,0.0,0.0,0.0,0.0,0.0,0.0,0.0,0.0,0.0,0.0,0.0,0.0,0.0,0.0,0.0,0.0,0.0,0.0,0.0,0.0,0.0,0.0,0.0,0.0,0.0,0.0,0.0,0.0,0.0,0.0,0.0,0.0,0.0,0.0,0.0,0.0,0.0,0.0,0.0,0.0,0.0,0.0,0.0,0.0,0.0,0.0,0.0,0.0,0.0,0.0,0.0,0.0,0.0,0.0,0.0,0.0,0.0,0.0,0.0,0.0,0.0,0.0,0.0,0.0,0.0,0.0,0.0,0.0,0.0,0.0,0.0,0.0,0.0,0.0,0.0,0.0,0.0,-3.2266,-3.2266,-3.2659,-3.3461,-3.3747,-3.4226,0.0,0.0,0.0,0.0,0.0,0.0,0.0,0.0,0.0,0.0,0.0,0.0,0.0,0.0,0.0,0.0,0.0,0.0,0.0,0.0,0.0,0.0,0.0,0.0,0.0,0.0,0.0,0.0,0.0,0.0,0.0,0.0,0.0,0.0,0.0,0.0,0.0,0.0,0.0,0.0,0.0,0.0,0.0,0.0,0.0,0.0,0.0,0.0,0.0,0.0,0.0,0.0,0.0,0.0,0.0,0.0,0.0,0.0,0.0,0.0,0.0,0.0,0.0,0.0,0.0,0.0,0.0,0.0,0.0,0.0,0.0,0.0,0.0,0.0,0.0,0.0,0.0,0.0,0.0,0.0,0.0,0.0,0.0,0.0,0.0,0.0,0.0,0.0,0.0,0.0,0.0,0.0,0.0,0.0,0.0,0.0,0.0,0.0,0.0,0.0,0.0,0.0,0.0,0.0,0.0,0.0,0.0,0.0,0.0,-3.2508,-3.2951,-3.3284,-3.3452,-3.3632,-3.3775,0.0,0.0,0.0,0.0,0.0,0.0,0.0,0.0,0.0,0.0,0.0,0.0,0.0,0.0,0.0,0.0,0.0,0.0,0.0,0.0,0.0,0.0,0.0,0.0,0.0,0.0,0.0,0.0,0.0,0.0,0.0,0.0,0.0,0.0,0.0,0.0,0.0,0.0,0.0,0.0,0.0,0.0,0.0,0.0,0.0,0.0,0.0,0.0,0.0,0.0,0.0,0.0,0.0,0.0,0.0,0.0,0.0,0.0,0.0,0.0,0.0,0.0,0.0,0.0,0.0,0.0,0.0,0.0,0.0,0.0,0.0,0.0,0.0,0.0,0.0,0.0,0.0,0.0,0.0,0.0,0.0,0.0,0.0,0.0,0.0,0.0,0.0,0.0,0.0,0.0,0.0,0.0,0.0,0.0,0.0,0.0,0.0,0.0,0.0,0.0,0.0,0.0,0.0,0.0,0.0,0.0,0.0,0.0,0.0,-3.3564,-3.4551,-3.4997,-3.4844,-3.4512,-3.4262,0.0,0.0,0.0,0.0,0.0,0.0,0.0,0.0,0.0,0.0,0.0,0.0,0.0,0.0,0.0,0.0,0.0,0.0,0.0,0.0,0.0,0.0,0.0,0.0,0.0,0.0,0.0,0.0,0.0,0.0,0.0,0.0,0.0,0.0,0.0,0.0,0.0,0.0,0.0,0.0,0.0,0.0,0.0,0.0,0.0,0.0,0.0,0.0,0.0,0.0,0.0,0.0,0.0,0.0,0.0,0.0,0.0,0.0,0.0,0.0,0.0,0.0,0.0,0.0,0.0,0.0,0.0,0.0,0.0,0.0,0.0,0.0,0.0,0.0,0.0,0.0,0.0,0.0,0.0,0.0,0.0,0.0,0.0,0.0,0.0,0.0,0.0,0.0,0.0,0.0,0.0,0.0,0.0,0.0,0.0,0.0,0.0,0.0,0.0,0.0,0.0,0.0,0.0,0.0,0.0,0.0,0.0,0.0,-3.3478,-3.5532,-3.7043,-3.7719,-3.7855,-3.6491,-3.5812,0.0,0.0,0.0,0.0,0.0,0.0,0.0,0.0,0.0,0.0,0.0,0.0,0.0,0.0,0.0,0.0,0.0,0.0,0.0,0.0,0.0,0.0,0.0,0.0,0.0,0.0,0.0,0.0,0.0,0.0,0.0,0.0,0.0,0.0,0.0,0.0,0.0,0.0,0.0,0.0,0.0,0.0,0.0,0.0,0.0,0.0,0.0,0.0,0.0,0.0,0.0,0.0,0.0,0.0,0.0,0.0,0.0,0.0,0.0,0.0,0.0,0.0,0.0,0.0,0.0,0.0,0.0,0.0,0.0,0.0,0.0,0.0,0.0,0.0,0.0,0.0,0.0,0.0,0.0,0.0,0.0,0.0,0.0,0.0,0.0,0.0,0.0,0.0,0.0,0.0,0.0,0.0,0.0,0.0,0.0,0.0,0.0,0.0,0.0,0.0,0.0,0.0,0.0,0.0,0.0,0.0,0.0,0.0,0.0,-3.7178,-3.7652,-3.7898,-3.7889,-3.7472,-3.6751,0.0,0.0,0.0,0.0,0.0,0.0,0.0,0.0,0.0,0.0,0.0,0.0,0.0,0.0,0.0,0.0,0.0,0.0,0.0,0.0,0.0,0.0,0.0,0.0,0.0,0.0,0.0,0.0,0.0,0.0,0.0,0.0,0.0,0.0,0.0,0.0,0.0,0.0,0.0,0.0,0.0,0.0,0.0,0.0,0.0,0.0,0.0,0.0,0.0,0.0,0.0,0.0,0.0,0.0,0.0,0.0,0.0,0.0,0.0,0.0,0.0,0.0,0.0,0.0,0.0,0.0,0.0,0.0,0.0,0.0,0.0,0.0,0.0,0.0,0.0,0.0,0.0,0.0,0.0,0.0,0.0,0.0,0.0,0.0,0.0,0.0,0.0,0.0,0.0,0.0,0.0,0.0,0.0,0.0,0.0,0.0,0.0,0.0,0.0,0.0,0.0,0.0,0.0,0.0,0.0,0.0,0.0,0.0,0.0,-4.0392,-4.0392,-4.0392,-4.0392,-4.0121,-3.8845,-3.6546,0.0,0.0,0.0,0.0,0.0,0.0,0.0,0.0,0.0,0.0,0.0,0.0,0.0,0.0,0.0,0.0,0.0,0.0,0.0,0.0,0.0,0.0,0.0,0.0,0.0,0.0,0.0,0.0,0.0,0.0,0.0,0.0,0.0,0.0,0.0,0.0,0.0,0.0,0.0,0.0,0.0,0.0,0.0,0.0,0.0,0.0,0.0,0.0,0.0,0.0,0.0,0.0,0.0,0.0,0.0,0.0,0.0,0.0,0.0,0.0,0.0,0.0,0.0,0.0,0.0,0.0,0.0,0.0,0.0,0.0,0.0,0.0,0.0,0.0,0.0,0.0,0.0,0.0,0.0,0.0,0.0,0.0,0.0,0.0,0.0,0.0,0.0,0.0,0.0,0.0,0.0,0.0,0.0,0.0,0.0,0.0,0.0,0.0,0.0,0.0,0.0,0.0,0.0,0.0,0.0,0.0,0.0,0.0,-4.4953,-4.5089,-4.5089,-4.4818,-4.391,-4.182,0.0,0.0,0.0,0.0,0.0,0.0,0.0,0.0,0.0,0.0,0.0,0.0,0.0,0.0,0.0,0.0,0.0,0.0,0.0,0.0,0.0,0.0,0.0,0.0,0.0,0.0,0.0,0.0,0.0,0.0,0.0,0.0,0.0,0.0,0.0,0.0,0.0,0.0,0.0,0.0,0.0,0.0,0.0,0.0,0.0,0.0,0.0,0.0,0.0,0.0,0.0,0.0,0.0,0.0,0.0,0.0,0.0,0.0,0.0,0.0,0.0,0.0,0.0,0.0,0.0,0.0,0.0,0.0,0.0,0.0,0.0,0.0,0.0,0.0,0.0,0.0,0.0,0.0,0.0,0.0,0.0,0.0,0.0,0.0,0.0,0.0,0.0,0.0,0.0,0.0,0.0,0.0,0.0,0.0,0.0,0.0,0.0,0.0,0.0,0.0,0.0,0.0,0.0,0.0,0.0,0.0,0.0,0.0,0.0,-4.9357,-5.1116,-5.0676,-4.7936,-4.5534,-4.3572,0.0,0.0,0.0,0.0,0.0,0.0,0.0,0.0,0.0,0.0,0.0,0.0,0.0,0.0,0.0,0.0,0.0,0.0,0.0,0.0,0.0,0.0,0.0,0.0,0.0,0.0,0.0,0.0,0.0,0.0,0.0,0.0,0.0,0.0,0.0,0.0,0.0,0.0,0.0,0.0,0.0,0.0,0.0,0.0,0.0,0.0,0.0,0.0,0.0,0.0,0.0,0.0,0.0,0.0,0.0,0.0,0.0,0.0,0.0,0.0,0.0,0.0,0.0,0.0,0.0,0.0,0.0,0.0,0.0,0.0,0.0,0.0,0.0,0.0,0.0,0.0,0.0,0.0,0.0,0.0,0.0,0.0,0.0,0.0,0.0,0.0,0.0,0.0,0.0,0.0,0.0,0.0,0.0,0.0,0.0,0.0,0.0,0.0,0.0,0.0,0.0,0.0,0.0,0.0,0.0,0.0,0.0,0.0,-4.797,-5.1183,-5.4972,-5.5716,-5.3281,-4.9424,-4.6278,0.0,0.0,0.0,0.0,0.0,0.0,0.0,0.0,0.0,0.0,0.0,0.0,0.0,0.0,0.0,0.0,0.0,0.0,0.0,0.0,0.0,0.0,0.0,0.0,0.0,0.0,0.0,0.0,0.0,0.0,0.0,0.0,0.0,0.0,0.0,0.0,0.0,0.0,0.0,0.0,0.0,0.0,0.0,0.0,0.0,0.0,0.0,0.0,0.0,0.0,0.0,0.0,0.0,0.0,0.0,0.0,0.0,0.0,0.0,0.0,0.0,0.0,0.0,0.0,0.0,0.0,0.0,0.0,0.0,0.0,0.0,0.0,0.0,0.0,0.0,0.0,0.0,0.0,0.0,0.0,0.0,0.0,0.0,0.0,0.0,0.0,0.0,0.0,0.0,0.0,0.0,0.0,0.0,0.0,0.0,0.0,0.0,0.0,0.0,0.0,0.0,0.0,0.0,0.0,0.0,0.0,0.0,0.0,-5.0067,-5.1793,-5.7306,-5.9911,-5.9133,-5.4059,-4.9289,0.0,0.0,0.0,0.0,0.0,0.0,0.0,0.0,0.0,0.0,0.0,0.0,0.0,0.0,0.0,0.0,0.0,0.0,0.0,0.0,0.0,0.0,0.0,0.0,0.0,0.0,0.0,0.0,0.0,0.0,0.0,0.0,0.0,0.0,0.0,0.0,0.0,0.0,0.0,0.0,0.0,0.0,0.0,0.0,0.0,0.0,0.0,0.0,0.0,0.0,0.0,0.0,0.0,0.0,0.0,0.0,0.0,0.0,0.0,0.0,0.0,0.0,0.0,0.0,0.0,0.0,0.0,0.0,0.0,0.0,0.0,0.0,0.0,0.0,0.0,0.0,0.0,0.0,0.0,0.0,0.0,0.0,0.0,0.0,0.0,0.0,0.0,0.0,0.0,0.0,0.0,0.0,0.0,0.0,0.0,0.0,0.0,0.0,0.0,0.0,0.0,0.0,0.0,0.0,0.0,0.0,0.0,0.0,-5.2334,-5.5581,-5.9167,-6.096,-6.0791,-5.4566,-5.0204,0.0,0.0,0.0,0.0,0.0,0.0,0.0,0.0,0.0,0.0,0.0,0.0,0.0,0.0,0.0,0.0,0.0,0.0,0.0,0.0,0.0,0.0,0.0,0.0,0.0,0.0,0.0,0.0,0.0,0.0,0.0,0.0,0.0,0.0,0.0,0.0,0.0,0.0,0.0,0.0,0.0,0.0,0.0,0.0,0.0,0.0,0.0,0.0,-3.6096,0.0,0.0,0.0,0.0,0.0,0.0,0.0,0.0,0.0,0.0,0.0,0.0,0.0,0.0,0.0,0.0,0.0,0.0,0.0,0.0,0.0,0.0,0.0,0.0,0.0,0.0,0.0,0.0,0.0,0.0,0.0,0.0,0.0,0.0,0.0,0.0,0.0,0.0,0.0,0.0,0.0,0.0,0.0,0.0,0.0,0.0,0.0,0.0,0.0,0.0,0.0,0.0,0.0,0.0,0.0,0.0,0.0,0.0,0.0,-5.3551,-5.7239,-6.025,-6.167,-6.1163,-5.6461,-5.2638,0.0,0.0,0.0,0.0,0.0,0.0,0.0,0.0,0.0,0.0,0.0,0.0,0.0,0.0,0.0,0.0,0.0,0.0,0.0,0.0,0.0,0.0,0.0,0.0,0.0,0.0,0.0,0.0,0.0,0.0,0.0,0.0,0.0,0.0,0.0,0.0,0.0,0.0,0.0,0.0,0.0,0.0,0.0,0.0,0.0,0.0,0.0,0.0,0.0,0.0,0.0,0.0,0.0,0.0,0.0,0.0,0.0,0.0,0.0,0.0,0.0,0.0,0.0,0.0,0.0,0.0,0.0,0.0,0.0,0.0,0.0,0.0,0.0,0.0,0.0,0.0,0.0,0.0,0.0,0.0,0.0,0.0,0.0,0.0,0.0,0.0,0.0,0.0,0.0,0.0,0.0,0.0,0.0,0.0,0.0,0.0,0.0,0.0,0.0,0.0,0.0,0.0,0.0,0.0,0.0,0.0,0.0,-5.071,-5.4465,-5.8457,-6.1061,-6.2144,-6.1603,-5.849,-5.5175,-5.1658,0.0,0.0,0.0,0.0,0.0,0.0,0.0,0.0,0.0,0.0,0.0,0.0,0.0,0.0,0.0,0.0,0.0,0.0,0.0,0.0,0.0,0.0,0.0,0.0,0.0,0.0,0.0,0.0,0.0,0.0,0.0,0.0,0.0,0.0,0.0,0.0,0.0,0.0,-3.3004,-3.4155,0.0,0.0,0.0,0.0,0.0,0.0,0.0,0.0,-3.7415,0.0,0.0,0.0,0.0,0.0,0.0,0.0,0.0,0.0,0.0,0.0,0.0,0.0,0.0,0.0,0.0,0.0,0.0,0.0,0.0,0.0,0.0,0.0,0.0,0.0,0.0,0.0,0.0,0.0,0.0,0.0,0.0,0.0,0.0,0.0,0.0,0.0,0.0,0.0,0.0,0.0,0.0,0.0,0.0,0.0,0.0,0.0,0.0,0.0,0.0,0.0,0.0,0.0,0.0,0.0,0.0,-4.9492,-5.2029,-5.6021,-6.1467,-6.2144,-6.2651,-6.3024,-5.9032,-5.5649,-5.3112,0.0,0.0,0.0,0.0,0.0,0.0,0.0,0.0,0.0,0.0,0.0,0.0,0.0,0.0,0.0,0.0,0.0,0.0,0.0,0.0,0.0,0.0,0.0,0.0,0.0,0.0,0.0,0.0,0.0,0.0,0.0,0.0,0.0,0.0,0.0,0.0,0.0,0.0,0.0,-3.6671,-3.7415,0.0,0.0,0.0,0.0,0.0,0.0,0.0,0.0,-3.8565,0.0,0.0,0.0,0.0,0.0,0.0,0.0,0.0,0.0,0.0,0.0,0.0,0.0,0.0,0.0,0.0,0.0,0.0,0.0,0.0,0.0,0.0,0.0,0.0,0.0,0.0,0.0,0.0,0.0,0.0,0.0,0.0,0.0,0.0,0.0,0.0,0.0,0.0,0.0,0.0,0.0,0.0,0.0,0.0,0.0,0.0,0.0,0.0,0.0,0.0,0.0,0.0,0.0,0.0,0.0,-5.1082,-5.3856,-5.7543,-6.2178,-6.2415,-6.255,-6.2854,-5.9302,-5.6156,0.0,0.0,0.0,0.0,0.0,0.0,0.0,0.0,0.0,0.0,0.0,0.0,0.0,0.0,0.0,0.0,0.0,0.0,0.0,0.0,0.0,0.0,0.0,0.0,0.0,0.0,0.0,0.0,0.0,0.0,0.0,0.0,0.0,0.0,0.0,0.0,0.0,0.0,0.0,0.0,-3.8802,-4.0155,-4.3132,0.0,0.0,0.0,0.0,0.0,0.0,-4.3572,-4.2286,0.0,0.0,0.0,0.0,0.0,0.0,0.0,0.0,0.0,0.0,0.0,0.0,0.0,0.0,0.0,0.0,0.0,0.0,0.0,0.0,0.0,0.0,0.0,0.0,0.0,0.0,0.0,0.0,0.0,0.0,0.0,0.0,0.0,0.0,0.0,0.0,0.0,0.0,0.0,0.0,0.0,0.0,0.0,0.0,0.0,0.0,0.0,0.0,0.0,0.0,0.0,0.0,0.0,0.0,0.0,-5.2232,-5.5581,-5.9066,-6.2651,-6.2821,-6.2821,-6.2753,-5.9336,-5.6224,0.0,0.0,0.0,0.0,0.0,0.0,0.0,0.0,0.0,0.0,0.0,0.0,0.0,0.0,0.0,0.0,0.0,0.0,0.0,0.0,0.0,0.0,0.0,0.0,0.0,0.0,0.0,0.0,0.0,0.0,0.0,0.0,0.0,0.0,0.0,0.0,0.0,0.0,0.0,0.0,0.0,-4.2806,-4.608,-4.5689,0.0,0.0,0.0,0.0,-4.6036,-4.6447,0.0,0.0,0.0,0.0,0.0,0.0,0.0,0.0,0.0,0.0,0.0,0.0,0.0,0.0,0.0,0.0,0.0,0.0,0.0,0.0,0.0,0.0,0.0,0.0,0.0,0.0,0.0,0.0,0.0,0.0,0.0,0.0,0.0,0.0,0.0,0.0,0.0,0.0,0.0,0.0,0.0,0.0,0.0,0.0,0.0,0.0,0.0,0.0,0.0,0.0,0.0,0.0,0.0,0.0,0.0,0.0,-5.23,-5.6562,-6.0588,-6.414,-6.4343,-6.4343,-6.4275,-5.8896,-5.5209,0.0,0.0,0.0,0.0,0.0,0.0,0.0,0.0,0.0,0.0,0.0,0.0,0.0,0.0,0.0,0.0,0.0,0.0,0.0,0.0,0.0,0.0,0.0,0.0,0.0,0.0,0.0,0.0,0.0,0.0,0.0,0.0,0.0,0.0,0.0,0.0,0.0,0.0,0.0,0.0,0.0,-4.4577,-4.8993,-4.7753,-4.6832,0.0,0.0,-5.0509,-5.0473,-5.0509,0.0,0.0,0.0,0.0,0.0,0.0,0.0,0.0,0.0,0.0,0.0,0.0,0.0,0.0,0.0,0.0,0.0,0.0,0.0,0.0,0.0,0.0,0.0,0.0,0.0,0.0,0.0,0.0,0.0,0.0,0.0,0.0,0.0,0.0,0.0,0.0,0.0,0.0,0.0,0.0,0.0,0.0,0.0,0.0,0.0,0.0,0.0,0.0,0.0,0.0,0.0,0.0,0.0,0.0,0.0,-5.0507,-5.3078,-5.866,-6.255,-6.4512,-6.4613,-6.4613,-6.458,-5.9235,-5.5446,0.0,0.0,0.0,0.0,0.0,0.0,0.0,0.0,0.0,0.0,0.0,0.0,0.0,0.0,0.0,0.0,0.0,0.0,0.0,0.0,0.0,0.0,0.0,0.0,0.0,0.0,0.0,0.0,0.0,0.0,0.0,0.0,0.0,0.0,0.0,0.0,0.0,0.0,0.0,0.0,0.0,0.0,-4.9123,-4.9992,0.0,0.0,0.0,-5.1256,-4.9913,0.0,0.0,0.0,0.0,0.0,0.0,0.0,0.0,0.0,0.0,0.0,0.0,0.0,0.0,0.0,0.0,0.0,0.0,0.0,0.0,0.0,0.0,0.0,0.0,0.0,0.0,0.0,0.0,0.0,0.0,0.0,0.0,0.0,0.0,0.0,0.0,0.0,0.0,0.0,0.0,0.0,0.0,0.0,0.0,0.0,0.0,0.0,0.0,0.0,0.0,0.0,0.0,0.0,0.0,0.0,0.0,0.0,-5.3619,-6.0283,-6.414,-6.485,-6.5053,-6.5053,-6.4783,-6.052,0.0,0.0,0.0,0.0,0.0,0.0,0.0,0.0,0.0,0.0,0.0,0.0,0.0,0.0,0.0,0.0,0.0,0.0,0.0,0.0,0.0,0.0,0.0,0.0,0.0,0.0,0.0,-3.235,0.0,0.0,0.0,0.0,0.0,0.0,0.0,0.0,0.0,0.0,0.0,0.0,0.0,0.0,-4.9386,-4.958,-5.1666,-5.3052,0.0,0.0,-5.2092,-5.1099,-5.4109,-5.4845,0.0,0.0,0.0,0.0,0.0,0.0,0.0,0.0,0.0,0.0,0.0,0.0,0.0,0.0,0.0,0.0,0.0,0.0,0.0,0.0,0.0,0.0,0.0,0.0,0.0,0.0,0.0,0.0,0.0,0.0,0.0,0.0,0.0,0.0,0.0,0.0,0.0,0.0,0.0,0.0,0.0,0.0,0.0,0.0,0.0,0.0,0.0,0.0,0.0,0.0,0.0,0.0,0.0,0.0,-5.2706,-5.3721,-6.0791,-6.4918,-6.5595,-6.6305,-6.6339,-6.5595,-6.326,-5.9641,0.0,0.0,0.0,0.0,0.0,0.0,0.0,0.0,0.0,0.0,0.0,0.0,0.0,0.0,0.0,0.0,0.0,0.0,0.0,0.0,0.0,0.0,0.0,0.0,0.0,0.0,0.0,0.0,0.0,0.0,0.0,0.0,0.0,0.0,0.0,0.0,0.0,0.0,0.0,0.0,0.0,-5.0366,-5.1696,-5.2124,-5.3471,0.0,0.0,-5.4292,-5.6816,-5.865,-5.8245,-5.3788,0.0,0.0,0.0,0.0,0.0,0.0,0.0,0.0,0.0,0.0,0.0,0.0,0.0,0.0,0.0,0.0,0.0,0.0,0.0,0.0,0.0,0.0,0.0,0.0,0.0,0.0,0.0,0.0,0.0,0.0,0.0,0.0,0.0,0.0,0.0,0.0,0.0,0.0,0.0,0.0,0.0,0.0,0.0,0.0,0.0,0.0,0.0,0.0,0.0,0.0,0.0,0.0,0.0,-5.4126,-5.4938,-6.2618,-6.6779,-6.7083,-6.7827,-6.7827,-6.7083,-6.4478,-6.0622,0.0,0.0,0.0,0.0,0.0,0.0,0.0,0.0,0.0,0.0,0.0,0.0,0.0,0.0,0.0,0.0,0.0,0.0,0.0,0.0,0.0,0.0,0.0,0.0,0.0,0.0,0.0,0.0,-3.7115,-3.7472,-3.6163,0.0,0.0,0.0,0.0,0.0,0.0,0.0,0.0,0.0,0.0,-5.3128,-5.3912,-5.6191,0.0,0.0,-5.71,-5.6443,-5.5716,-5.7293,-5.703,-5.2555,-5.1464,0.0,0.0,0.0,0.0,0.0,0.0,0.0,0.0,0.0,0.0,0.0,0.0,0.0,0.0,0.0,0.0,0.0,0.0,0.0,0.0,0.0,0.0,0.0,0.0,0.0,0.0,0.0,0.0,0.0,0.0,0.0,0.0,0.0,0.0,0.0,0.0,0.0,0.0,0.0,0.0,0.0,0.0,0.0,0.0,0.0,0.0,0.0,0.0,0.0,0.0,0.0,0.0,-5.4735,-5.5715,-6.3328,-6.7354,-6.759,-6.8571,-6.8741,-6.7895,-6.5899,-6.2482,0.0,0.0,0.0,0.0,0.0,0.0,0.0,0.0,0.0,0.0,0.0,0.0,0.0,0.0,0.0,0.0,0.0,0.0,0.0,0.0,0.0,0.0,0.0,0.0,0.0,0.0,0.0,0.0,-3.8712,-3.8964,-3.7503,0.0,0.0,0.0,0.0,0.0,0.0,0.0,0.0,0.0,0.0,-5.5979,-5.5108,-5.7825,-5.9254,-5.7233,-5.6856,-5.6398,-5.5154,-5.6139,-5.5979,-5.308,0.0,0.0,0.0,0.0,0.0,0.0,0.0,0.0,0.0,0.0,0.0,0.0,0.0,0.0,0.0,0.0,0.0,0.0,0.0,0.0,0.0,0.0,0.0,0.0,0.0,0.0,0.0,0.0,0.0,0.0,-4.117,0.0,0.0,0.0,0.0,0.0,0.0,0.0,0.0,0.0,0.0,0.0,0.0,0.0,0.0,0.0,0.0,0.0,0.0,0.0,0.0,0.0,0.0,-5.4329,-5.5749,-6.2482,-6.617,-6.6948,-6.8335,-6.8774,-6.7996,-6.7827,-6.5696,-6.1231,0.0,0.0,0.0,0.0,0.0,0.0,0.0,0.0,0.0,0.0,0.0,0.0,0.0,0.0,0.0,0.0,0.0,0.0,0.0,0.0,0.0,0.0,0.0,0.0,0.0,0.0,-3.3437,-3.7347,-4.0222,0.0,0.0,0.0,0.0,0.0,0.0,0.0,0.0,0.0,0.0,-5.4892,-5.8567,-5.4879,-5.583,-5.6768,-5.577,-5.3964,-5.3628,-5.6349,-5.6187,-5.5952,0.0,0.0,0.0,0.0,0.0,0.0,0.0,0.0,0.0,0.0,0.0,0.0,0.0,0.0,0.0,0.0,0.0,0.0,0.0,0.0,0.0,0.0,0.0,0.0,0.0,0.0,0.0,-4.6041,-4.6041,0.0,0.0,0.0,0.0,0.0,0.0,0.0,0.0,0.0,0.0,0.0,-5.2029,-5.2739,0.0,0.0,0.0,0.0,0.0,0.0,0.0,0.0,0.0,0.0,0.0,0.0,-5.6427,-5.8152,-6.4546,-6.8538,-6.9789,-7.0297,-7.0432,-7.0161,-6.9688,-6.688,-6.1467,0.0,0.0,0.0,0.0,0.0,0.0,0.0,0.0,0.0,0.0,0.0,0.0,0.0,0.0,0.0,0.0,0.0,0.0,0.0,0.0,0.0,0.0,0.0,0.0,0.0,-3.7054,0.0,0.0,0.0,0.0,0.0,0.0,0.0,0.0,0.0,0.0,0.0,-5.0226,-5.1401,-5.3482,-5.4928,-5.4955,-5.6415,-5.8057,0.0,0.0,0.0,0.0,0.0,0.0,0.0,0.0,0.0,0.0,0.0,0.0,0.0,0.0,-5.1321,-4.8195,-4.9239,-5.0518,-5.0283,0.0,0.0,0.0,0.0,0.0,0.0,0.0,0.0,0.0,0.0,0.0,0.0,0.0,0.0,-4.9393,0.0,-4.9526,0.0,0.0,0.0,0.0,0.0,0.0,0.0,0.0,-5.3585,-5.5141,-5.5818,-5.6562,-5.6934,0.0,-5.5852,-5.2841,0.0,0.0,0.0,0.0,0.0,0.0,0.0,0.0,-5.7273,-5.9201,-6.5662,-6.9688,-7.0872,-7.165,-7.1954,-7.1684,-7.0703,-6.7996,-6.3362,-5.8571,-5.4631,0.0,0.0,0.0,0.0,0.0,0.0,0.0,0.0,0.0,0.0,0.0,0.0,0.0,0.0,0.0,0.0,0.0,0.0,0.0,0.0,0.0,0.0,0.0,-3.9699,0.0,0.0,0.0,0.0,0.0,0.0,0.0,0.0,0.0,-4.6875,-5.0189,-5.3231,-5.4399,-5.5297,-5.5814,-5.5803,0.0,0.0,0.0,0.0,0.0,0.0,0.0,-5.4668,-5.3721,-5.4362,-5.5474,-5.6886,-5.7827,-5.8265,-5.7793,0.0,0.0,-5.3078,-5.3786,-5.5067,-5.4831,-5.4699,-5.4803,-5.531,-5.5476,-5.5844,0.0,0.0,0.0,0.0,0.0,0.0,0.0,0.0,-5.3788,-5.257,0.0,-5.2807,0.0,0.0,0.0,0.0,0.0,-5.3213,0.0,0.0,-6.0554,-6.2313,-6.0385,-6.1061,-6.1467,-6.1332,-5.8626,-5.7273,-5.7103,-5.5716,0.0,0.0,0.0,0.0,0.0,0.0,-5.6932,-5.9438,-6.5865,-6.9553,-7.0364,-7.2394,-7.3138,-7.2382,-7.0929,-6.9026,-6.6787,-6.3128,-6.0382,-5.8547,-5.1969,0.0,0.0,0.0,0.0,0.0,0.0,0.0,0.0,0.0,0.0,0.0,0.0,0.0,0.0,0.0,0.0,0.0,0.0,0.0,0.0,-4.134,0.0,0.0,0.0,0.0,0.0,0.0,0.0,0.0,0.0,0.0,-4.8665,-5.2551,-5.5908,-5.6716,0.0,0.0,0.0,0.0,-6.041,-5.5678,-5.4193,-5.3821,-5.399,-5.5036,-5.679,-5.9528,0.0,0.0,-6.3877,-6.1628,-5.999,-5.985,-6.2066,-6.234,-5.8103,-5.7471,-5.764,-5.8214,-5.8957,-5.9299,-5.9366,-6.0068,-6.0473,-5.8118,0.0,0.0,0.0,0.0,-5.5649,-5.6968,-5.9066,-5.9066,-5.8389,-5.7273,-5.7915,0.0,0.0,0.0,0.0,0.0,0.0,-5.734,-5.9404,-6.1163,-6.2685,-6.4106,-6.4884,-6.5493,-6.5967,-6.5121,-6.5019,-6.5527,-6.458,-5.9979,-5.2097,0.0,0.0,0.0,0.0,-6.0486,-6.3835,-6.8335,-7.1312,-7.2529,-7.3172,-7.305,-7.2023,-7.009,-6.8354,-6.6864,-6.3242,-6.0367,-5.8584,-5.531,0.0,0.0,0.0,0.0,0.0,0.0,0.0,0.0,0.0,0.0,0.0,0.0,0.0,0.0,0.0,0.0,0.0,0.0,0.0,-4.2571,-4.5064,-4.561,0.0,0.0,0.0,0.0,0.0,0.0,0.0,0.0,0.0,-5.501,-5.4464,-5.4575,0.0,0.0,-5.475,-5.3616,-5.6067,-5.8191,-5.8888,-5.7958,0.0,-6.0369,-5.9501,-5.8722,-5.9294,-6.2441,-6.4829,-6.4741,-6.6289,-6.7621,-6.7588,-6.8071,-6.8015,-6.6876,-6.556,-6.4838,-6.5039,-6.5359,-6.5655,-6.5688,-6.6062,-6.6487,-6.3971,-6.2076,-5.9133,-5.8423,-5.9235,-5.9235,-6.052,-6.2618,-6.2618,-6.1873,-6.0655,-6.1501,-5.9911,-5.6596,-5.6562,0.0,0.0,0.0,-6.0216,-6.3057,-6.3362,-6.4749,-6.7015,-6.7793,-6.8538,-6.9214,-6.8944,-6.9214,-6.9925,-6.7963,-6.4038,-5.8186,0.0,0.0,-5.6867,-6.0182,-6.3294,-6.617,-6.9823,-7.2462,-7.3883,-7.4221,-7.3715,-7.225,-7.0942,-6.9368,-6.7439,-6.5119,-6.2812,-6.0494,-5.8064,-5.4758,0.0,0.0,0.0,0.0,0.0,0.0,0.0,0.0,0.0,0.0,0.0,-3.7615,-3.5953,0.0,0.0,0.0,-4.4479,-4.5526,-4.6326,-4.7281,0.0,0.0,0.0,0.0,0.0,0.0,0.0,-4.7938,-5.3716,-5.8071,-5.8509,-5.7305,-5.7146,-5.9276,-5.8065,-5.6821,-5.6417,0.0,-6.1121,-6.2264,-6.1807,-6.2026,-6.3908,-6.3649,-6.3369,-6.4276,-6.6338,-6.7864,-6.7916,-6.9863,-7.1292,-7.1325,-7.1184,-7.1223,-7.1489,-7.0648,-6.9716,-6.909,-6.9386,-6.9769,-6.9769,-7.0247,-7.0703,-6.9147,-6.8504,-6.167,-6.0047,-6.1873,-6.1907,-6.3091,-6.4918,-6.4952,-6.3768,-6.2009,-6.3937,-6.2516,-5.8626,-5.8592,0.0,-6.1839,-6.1839,-6.3328,-6.5967,-6.6677,-6.7793,-6.9282,-6.9958,-7.0703,-7.1447,-7.077,-7.0804,-7.1312,-6.803,-6.6542,-6.6948,-6.5628,-6.3429,-6.0689,-6.3159,-6.5392,-6.7015,-7.0432,-7.3003,-7.4661,-7.5371,-7.4776,-7.2912,-7.2796,-7.1256,-6.8157,-6.7848,-6.6415,-6.3552,-6.0375,-5.8072,-5.6601,0.0,0.0,0.0,0.0,0.0,0.0,0.0,0.0,0.0,0.0,0.0,0.0,0.0,0.0,0.0,-4.9651,0.0,-5.1097,-4.8995,0.0,0.0,0.0,-4.8854,-5.2368,-5.4557,-5.5766,-5.5685,0.0,0.0,-6.0159,-6.0761,-6.2409,-6.5733,-6.4883,-6.3662,-6.3035,-6.5074,-6.668,-6.5148,-6.5282,-6.5454,-6.5758,-6.7077,-6.8804,-7.101,-7.2331,-7.1985,-7.1853,-7.1903,-7.2052,-7.2282,-7.2183,-7.2349,-7.3078,-7.3011,-7.2729,-7.1084,-7.1533,-7.2156,-7.2143,-7.2566,-7.3063,-6.962,-6.8944,-6.7184,-6.6745,-6.7252,-6.7252,-6.7557,-6.803,-6.803,-6.7387,-6.6373,-6.688,-6.6203,-6.4681,-6.4681,-6.529,-6.6305,-6.6339,-6.7015,-6.8267,-6.847,-6.935,-7.077,-7.0973,-7.1718,-7.2902,-7.28,-7.28,-7.2935,-7.209,-7.0601,-6.8639,-6.8199,-6.6237,-6.2888,-6.3971,-6.5933,-6.8538,-6.9992,-7.2259,-7.5337,-7.5608,-7.4669,-7.2476,-7.1955,-7.0492,-6.8009,-6.6433,-6.5361,-6.4799,-6.2809,-6.0297,-5.7113,-5.3188,0.0,0.0,0.0,0.0,0.0,0.0,0.0,0.0,0.0,-4.2509,-4.0413,0.0,-4.5772,0.0,-5.119,-5.4514,-5.4545,-5.5638,0.0,0.0,-5.4938,-5.578,-5.7293,-5.849,-5.8844,-5.786,-6.0019,-6.2163,-6.3694,-6.4752,-6.6597,-6.976,-6.573,-6.2552,-6.3153,-6.4165,-6.5211,-6.581,-6.6467,-6.7217,-6.8295,-6.9284,-7.0351,-7.1508,-7.1702,-7.1966,-7.278,-7.2728,-7.2915,-7.3741,-7.3824,-7.379,-7.3906,-7.3939,-7.3824,-7.3393,-7.3525,-7.3708,-7.3674,-7.3807,-7.399,-7.1413,-7.1075,-7.1041,-7.1041,-7.0973,-6.9654,-6.9079,-6.9079,-6.9079,-6.8842,-6.8436,-6.8436,-6.8199,-6.7861,-6.7827,-6.8064,-6.8436,-6.8436,-6.8842,-6.9586,-6.9925,-7.0872,-7.2259,-7.2631,-7.3375,-7.4458,-7.4458,-7.4458,-7.4492,-7.4492,-7.3612,-7.2056,-7.2056,-7.0331,-6.7049,-6.5392,-6.5595,-6.7557,-6.962,-7.2293,-7.554,-7.5676,-7.4037,-7.0675,-7.015,-6.8179,-6.4388,-6.3225,-6.2412,-6.1957,-6.0794,-5.9012,-5.6575,-5.3537,-5.0359,0.0,0.0,0.0,0.0,0.0,0.0,0.0,0.0,0.0,0.0,0.0,-4.9404,-4.9651,-5.4176,-5.67,-5.5807,-5.6684,-5.7463,-5.7923,-5.8183,-5.9434,-6.2308,-6.34,-6.3742,-6.3297,-6.5368,-6.7003,-6.7408,-6.8416,-6.9607,-7.1367,-6.7998,-6.5643,-6.6484,-6.6942,-6.7525,-6.8487,-6.8997,-6.9517,-7.0202,-7.0381,-7.0686,-7.1091,-7.1538,-7.2133,-7.2782,-7.3495,-7.414,-7.4769,-7.5035,-7.5132,-7.5132,-7.5132,-7.5132,-7.5132,-7.5132,-7.4951,-7.4455,-7.4372,-7.4372,-7.3477,-7.3477,-7.3477,-7.3477,-7.3274,-7.0737,-6.9654,-6.9654,-6.9654,-6.9654,-6.9654,-6.9654,-6.9654,-6.9654,-6.9654,-6.9654,-6.9654,-6.9654,-6.9992,-7.0635,-7.1278,-7.2326,-7.3646,-7.4289,-7.4999,-7.5676,-7.5676,-7.5676,-7.5676,-7.5676,-7.5506,-7.5168,-7.5134,-7.368,-7.0703,-6.6846,-6.5189,-6.5865,-6.9451,-7.2484,-7.4891,-7.4587,-7.2204,-6.7832,-6.7521,-6.5158,-6.0239,-5.9839,-5.9255,-5.8085,-5.7457,-5.6871,-5.63,-5.3252,-5.1005,0.0,-4.7373,0.0,0.0,0.0,0.0,0.0,0.0,0.0,0.0,-5.2236,-5.3607,-5.5206,-5.7531,-5.8331,-5.6854,-5.6457,-5.7865,-6.1589,-6.1014,-6.2223,-6.7016,-6.8089,-6.8705,-6.9418,-7.137,-7.2047,-7.0526,-7.1187,-7.1574,-7.1166,-7.0339,-6.9696,-7.0499,-7.0298,-7.0208,-7.1388,-7.1711,-7.147,-7.1354,-7.1108,-7.0915,-7.1027,-7.1758,-7.2423,-7.2466,-7.3946,-7.519,-7.5223,-7.5724,-7.6225,-7.6291,-7.6258,-7.6258,-7.6192,-7.6192,-7.5879,-7.5121,-7.4905,-7.4922,-7.3477,-7.3477,-7.3477,-7.3477,-7.3443,-7.2868,-7.2665,-7.2665,-7.2665,-7.2665,-7.2665,-7.2665,-7.2665,-7.2665,-7.2665,-7.2631,-7.2665,-7.2665,-7.2732,-7.2868,-7.3003,-7.3544,-7.439,-7.4559,-7.4999,-7.5676,-7.5676,-7.5676,-7.5676,-7.5676,-7.4492,-7.2191,-7.2157,-7.0635,-6.7793,0.0,0.0,0.0,-6.9688,-7.1231,-7.0998,-6.8669,-6.6226,-6.3704,-6.3574,0.0,-6.0743,-6.0086,-5.9686,-5.9408,-5.8762,0.0,0.0,0.0,0.0,0.0,0.0,0.0,0.0,0.0,0.0,0.0,-5.3361,-5.3191,-5.316,-5.3853,-5.5592,-5.8516,-5.9316,-6.0363,-6.2117,-6.3984,-6.5429,-6.6186,-6.7257,-6.8647,-7.0254,-7.0079,-7.0079,-7.0844,-7.1292,-7.1474,-7.118,-7.094,-7.0814,-7.0838,-7.0816,-7.0965,-7.1042,-6.9507,-6.8587,-6.9321,-7.0708,-7.1869,-7.2641,-7.23,-7.1861,-7.2274,-7.2389,-7.2584,-7.2666,-7.3776,-7.4702,-7.4724,-7.5529,-7.6357,-7.6357,-7.6291,-7.639,-7.6324,-7.6324,-7.6225,-7.6011,-7.5945,-7.603,-7.4559,0.0,-7.4559,-7.4559,0.0,-7.4593,-7.4593,-7.4525,-7.3781,-7.3477,-7.3477,-7.3477,-7.3477,-7.3477,-7.3477,-7.3477,-7.351,-7.3883,-7.4052,-7.4086,-7.483,-7.5371,-7.5743,-7.6115,-7.6454,-7.6826,-7.6826,-7.6826,-7.6792,-7.6487,-7.554,-7.4086,-7.313,-7.1874,-7.0356,-6.9822,-6.9091,-6.8182,-6.9699,-7.0714,-7.1094,-6.9682,-6.7475,-6.4691,-6.4495,0.0,0.0,0.0,0.0,0.0,0.0,0.0,0.0,0.0,0.0,-5.8239,-5.7008,-5.6669,-5.7623,-5.7746,-5.83,-5.9655,-6.0055,-5.9378,-5.7377,-5.907,-6.1101,-6.3071,-6.3318,-6.3995,-6.5657,-6.6654,-6.7354,-6.7665,-6.8194,-6.8993,-7.0128,-7.0108,-7.0172,-7.078,-7.094,-7.1036,-7.142,-7.1163,-7.1036,-7.1263,-7.1352,-7.1167,-7.0425,-6.9939,-6.9605,-6.9425,-6.9879,-7.0906,-7.1866,-7.1368,-7.1129,-7.1516,-7.1752,-7.1987,-7.257,-7.3996,-7.5199,-7.5777,-7.6749,-7.7384,-7.7384,-7.7417,-7.7417,-7.7384,-7.7417,-7.7384,-7.7351,-7.6821,-7.6324,-7.5676,-7.5676,-7.5676,-7.5676,-7.5676,-7.5676,-7.5676,-7.5608,0.0,0.0,0.0,-7.3883,-7.3883,-7.3883,-7.3883,-7.3883,-7.3916,-7.4661,-7.5033,-7.51,-7.6454,-7.7096,-7.713,-7.7705,-7.801,-7.801,-7.801,-7.801,-7.7976,-7.7367,-7.7096,-7.6932,-7.5472,-7.4588,-7.4301,-7.3103,-7.1636,-7.0043,-6.9516,-6.9943,-7.1261,-7.0768,-6.8976,-6.5797,-6.5639,-6.41,-6.1123,-6.0855,-6.0794,-6.0794,-6.027,-6.0147,-6.0455,-5.9993,-5.9593,-5.9408,-5.9428,-6.0116,-6.1748,-6.1871,-6.2856,-6.5103,-6.5873,-6.5072,-6.224,-6.4549,-6.6365,-6.7042,-6.7104,-6.7319,-6.7873,-6.7535,-6.7473,-6.8027,-6.7596,-6.7962,-6.9427,-6.988,-7.0276,-7.082,-7.1259,-7.1337,-7.1648,-7.1489,-7.142,-7.1596,-7.1578,-7.1287,-7.0278,-7.0496,-7.0556,-7.0096,-6.9878,-7.0001,-7.0863,-7.04,-6.9903,-7.1199,-7.132,-7.1529,-7.2661,-7.4371,-7.5849,-7.6442,-7.7738,-7.8325,-7.8477,-7.8411,-7.8511,-7.8511,-7.8511,-7.8511,-7.8411,-7.745,-7.6589,-7.5676,-7.5676,-7.5676,-7.5676,-7.5676,-7.5676,-7.5676,-7.5676,-7.5473,-7.5371,-7.5405,-7.5371,-7.5405,-7.5405,-7.5405,-7.5371,-7.5439,-7.6217,-7.6589,-7.6623,-7.7435,-7.7841,-7.7841,-7.7942,-7.801,-7.801,-7.801,-7.801,-7.7976,-7.7874,-7.7841,-7.7807,-7.7558,-7.6827,-7.5809,-7.4081,-7.2539,-7.1299,-6.9214,-6.7861,-6.7366,-6.4843,-6.3209,-6.2495,-6.2041,-6.1711,-6.1656,-6.1194,-6.0794,-6.0794,-6.0701,-6.144,-6.3133,-6.3195,-6.3872,-6.5472,-6.5626,-6.578,-6.6027,-6.6057,-6.6211,-6.6611,-6.7258,-6.7412,-6.6981,-6.6827,-6.7073,-6.7689,-6.7781,-6.7812,-6.7935,-6.8304,-6.8581,-6.8735,-6.8674,-6.8976,-6.9797,-7.0642,-7.1491,-7.2122,-7.322,-7.3188,-7.2291,-7.1975,-7.1482,-7.0709,-7.1138,-7.1505,-7.1309,-7.0326,-6.9808,-7.0169,-7.016,-7.0371,-7.1276,-7.104,-7.1047,-7.2366,-7.2398,-7.2337,-7.2705,-7.4536,-7.5853,-7.531,-7.7004,-7.8263,-7.8457,-7.8511,-7.8511,-7.8511,-7.8511,-7.8511,-7.8444,-7.7682,-7.7152,-7.5676,-7.5676,-7.5676,-7.5676,-7.5676,-7.5676,-7.5676,-7.5676,-7.5676,-7.5676,-7.5676,-7.5676,-7.5676,-7.5676,-7.5676,-7.5946,-7.6386,-7.713,-7.7739,-7.8145,-7.8855,-7.9194,-7.9194,-7.9194,-7.9194,-7.9194,-7.9194,-7.9194,-7.916,-7.8639,-7.8386,-7.8303,-7.6904,-7.5382,-7.3931,-7.28,-7.1955,-7.1226,-7.0015,-6.8866,-6.7853,-6.6845,-6.6288,-6.618,-6.6242,-6.6427,-6.6735,-6.6457,-6.6273,-6.6273,-6.6273,-6.6704,-6.7596,-6.7658,-6.8089,-6.8982,-6.8735,-6.852,-6.852,-6.8212,-6.7966,-6.7997,-6.8274,-6.8458,-6.8427,-6.815,-6.812,-6.8397,-6.8458,-6.8427,-6.8458,-6.8705,-6.9012,-6.9413,-6.9443,-6.972,-7.0365,-7.0815,-7.1616,-7.2449,-7.2512,-7.2611,-7.3016,-7.2254,-7.1689,-7.1131,-7.1613,-7.2031,-7.2012,-7.1367,-7.1107,-7.1524,-7.1081,-7.1362,-7.2674,-7.1822,-7.1631,-7.258,-7.2204,-7.2172,-7.255,-7.3991,-7.4767,-7.5618,-7.679,-7.7632,-7.8296,-7.8511,-7.8511,-7.8511,-7.8511,-7.8411,-7.798,-7.7086,-7.6561,-7.6217,-7.6217,-7.6217,-7.6217,-7.6217,-7.6217,-7.6217,-7.6217,-7.6217,-7.6217,-7.6183,-7.5879,-7.5676,-7.5709,-7.5879,-7.6318,-7.6961,-7.7841,-7.8551,-7.9126,-7.987,-8.0209,-8.0209,-8.0209,-8.0158,-8.0107,-8.0074,-8.0107,-7.9938,-7.9196,-7.8825,-7.8469,-7.6168,-7.4164,-7.2755,-7.1979,-7.1438,-7.1135,-7.0848,-7.0192,-6.941,-6.9874,-7.0182,-7.0398,-7.0675,-7.0982,-7.1105,-7.0982,-7.089,-7.089,-7.089,-7.089,-7.089,-7.089,-7.089,-7.0859,-7.0428,-7.012,-7.009,-6.9628,-6.9351,-6.932,-6.932,-6.932,-6.9351,-6.9351,-6.9166,-6.8951,-6.9012,-6.9105,-6.9135,-6.9289,-6.9566,-7.0059,-7.012,-7.0398,-7.1013,-7.1136,-7.156,-7.2426,-7.1925,-7.2113,-7.3205,-7.2703,-7.2114,-7.2435,-7.2629,-7.2576,-7.2313,-7.2385,-7.2482,-7.2631,-7.185,-7.1537,-7.3384,-7.2204,-7.1567,-7.258,-7.1792,-7.1919,-7.2736,-7.3292,-7.4176,-7.6213,-7.7138,-7.7947,-7.8812,-7.9074,-7.9007,-7.8941,-7.8875,-7.8544,-7.7616,-7.6755,-7.5982,-7.7773,-7.7773,-7.7705,-7.7773,-7.7705,-7.7739,-7.7705,-7.7705,-7.7773,-7.7773,-7.757,-7.6318,-7.5743,-7.5811,-7.6454,-7.686,-7.7096,-7.8382,-7.9058,-7.9194,-7.987,-8.0209,-8.0209,-8.0209,-8.0057,-7.9904,-7.9853,-7.975,-7.9544,-7.934,-7.915,-7.8697,-7.6939,-7.5713,-7.513,-7.3302,-7.2149,-7.1936,-7.1227,-7.0826,-7.0736,-7.0767,-7.1105,-7.1783,-7.1198,-7.1198,-7.1813,-7.1259,-7.0921,-7.089,-7.0952,-7.0921,-7.0921,-7.0921,-7.0921,-7.0921,-7.0859,-7.0798,-7.0798,-7.0767,-7.0644,-7.0705,-7.0644,-7.0644,-7.0644,-7.0675,-7.0182,-6.9351,-6.9474,-6.9782,-6.9843,-7.0305,-7.0644,-7.0767,-7.0798,-7.1075,-7.1721,-7.1875,-7.2152,-7.283,-7.2861,-7.3231,-7.4024,-7.3633,-7.3333,-7.343,-7.3381,-7.3238,-7.3142,-7.2649,-7.2581,-7.3056,-7.2149,-7.1268,-7.1594,-7.1212,-7.1556,-7.2452,-7.1853,-7.2198,-7.3632,-7.4511,-7.5193,-7.7062,-7.8392,-7.9232,-8.0024,-8.0432,-8.0101,-7.9471,-7.9239,-7.9007,-7.7848,-7.7152,-7.6845,-7.801,-7.801,-7.801,-7.801,-7.801,-7.801,-7.801,-7.801,-7.801,-7.801,-7.801,-7.7773,-7.7468,-7.7096,-7.7401,-7.7773,-7.8247,-7.8822,-7.9363,-7.9735,-8.0073,-8.0209,-8.0209,-8.0209,-8.0057,-7.9801,-7.9801,-7.9647,-7.9388,-7.9074,-7.8457,-7.7555,-7.6459,-7.5597,-7.4893,-7.3716,-7.2891,-7.2614,-7.2275,-7.2152,-7.2091,-7.1721,-7.166,-7.1937,-7.206,-7.2244,-7.2521,-7.2275,-7.2121,-7.2152,-7.2121,-7.2152,-7.2121,-7.2152,-7.2121,-7.2121,-7.1752,-7.1352,-7.0921,-7.089,-7.089,-7.089,-7.089,-7.089,-7.089,-7.089,-7.0644,-7.0274,-7.0336,-7.049,-7.0521,-7.0736,-7.1075,-7.1444,-7.1536,-7.1813,-7.2491,-7.2583,-7.3046,-7.4312,-7.4036,-7.4097,-7.4935,-7.4243,-7.3516,-7.3455,-7.366,-7.3901,-7.3701,-7.349,-7.3539,-7.3587,-7.2805,-7.2365,-7.2456,-7.2305,-7.2455,-7.2746,-7.3168,-7.3967,-7.4439,-7.5577,-7.6578,-7.8099,-7.8909,-7.9659,-8.0421,-8.0266,-7.9935,-7.9537,-7.8709,-7.808,-7.7484,-7.7191,-7.6886,-7.8585,-7.8585,-7.8585,-7.8585,-7.8585,-7.8585,-7.8585,-7.8585,-7.8585,-7.8686,-7.8957,-7.9464,-7.9532,-7.916,-7.8788,-7.8889,-7.9363,-7.9397,-7.9701,-8.0175,-8.0209,-8.0209,-8.0209,-8.0107,-7.9955,-7.9699,-7.9596,-7.9388,-7.9022,-7.835,-7.7587,-7.6718,-7.5919,-7.5161,-7.4419,-7.3784,-7.3355,-7.3045,-7.2983,-7.2983,-7.2891,-7.2491,-7.2244,-7.2306,-7.2706,-7.2983,-7.2983,-7.2983,-7.2983,-7.2983,-7.2983,-7.2983,-7.2983,-7.2983,-7.3076,-7.3229,-7.2983,-7.2583,-7.206,-7.2029,-7.2029,-7.2029,-7.2029,-7.2029,-7.2029,-7.2029,-7.2029,-7.206,-7.2029,-7.1967,-7.1229,-7.1352,-7.1721,-7.2183,-7.2398,-7.2737,-7.3168,-7.3383,-7.4035,-7.5152,-7.456,-7.4555,-7.5429,-7.4976,-7.4354,-7.3924,-7.4285,-7.4526,-7.4256,-7.4174,-7.4091,-7.3949,-7.3462,-7.3491,-7.3925,-7.3269,-7.3064,-7.3461,-7.4028,-7.4225,-7.5148,-7.6365,-7.786,-7.9177,-7.939,-7.9863,-8.0873,-8.0598,-7.9902,-7.9471,-7.8676,-7.7815,-7.7921,-7.7599,-7.7607,-8.0107,-8.0073,-8.0073,-8.0006,-8.0073,-8.004,-8.004,-7.9938,-8.0006,-8.0445,-8.0919,-8.1122,-8.1528,-8.2002,-8.0716,-8.0141,-8.0175,-8.0209,-8.0276,-8.0344,-8.031,-8.0242,-8.0175,-7.9955,-7.9732,-7.9641,-7.9294,-7.8857,-7.82,-7.7311,-7.6775,-7.6637,-7.5513,-7.4778,-7.4299,-7.3723,-7.3324,-7.3045,-7.2983,-7.2983,-7.2983,-7.2922,-7.2891,-7.2891,-7.2952,-7.2983,-7.2983,-7.2983,-7.2983,-7.2983,-7.2983,-7.2983,-7.2983,-7.3014,-7.3291,-7.3876,-7.4461,-7.4769,-7.4676,-7.4584,-7.4615,-7.4676,-7.4491,-7.4707,-7.443,-7.443,-7.443,-7.4707,-7.4461,-7.3814,-7.2429,-7.2614,-7.2891,-7.3014,-7.3537,-7.3845,-7.3937,-7.4274,-7.4669,-7.4666,-7.4568,-7.468,-7.5033,-7.5944,-7.5701,-7.5298,-7.5226,-7.5188,-7.4796,-7.4338,-7.4099,-7.3971,-7.3919,-7.4118,-7.463,-7.4001,-7.3804,-7.4163,-7.4279,-7.4041,-7.5557,-7.7099,-7.8919,-8.0346,-8.0842,-8.1256,-8.1579,-8.1326,-8.0598,-7.9902,-7.9007,-7.8431,-7.8339,-7.8697,-7.8707,-8.0209,-8.0209,-8.0209,-8.0209,-8.0209,-8.0209,-8.0209,-8.0209,-8.0209,-8.0615,-8.1291,-8.1799,-8.2408,-8.3084,-8.2577,-8.2069,-8.1629,-8.1629,-8.1629,-8.1629,-8.1596,-8.1629,-8.1578,-8.1319,-8.1058,-8.0795,-8.0314,-7.9288,-7.7963,-7.709,-7.6264,-7.5603,-7.4897,-7.4299,-7.3845,-7.3416,-7.3107,-7.2983,-7.2983,-7.2983,-7.2983,-7.2983,-7.2983,-7.2983,-7.2983,-7.2983,-7.2983,-7.2983,-7.2983,-7.2983,-7.2983,-7.2983,-7.3014,-7.3414,-7.3722,-7.3999,-7.4645,-7.5015,-7.5015,-7.5015,-7.5015,-7.5015,-7.5015,-7.5046,-7.5015,-7.5015,-7.5015,-7.5015,-7.5015,-7.4522,-7.4214,-7.4153,-7.4276,-7.4307,-7.4301,-7.4326,-7.4265,-7.414,-7.4045,-7.4375,-7.4642,-7.4861,-7.5146,-7.5462,-7.5419,-7.515,-7.5074,-7.5006,-7.4907,-7.4629,-7.448,-7.451,-7.4578,-7.4932,-7.6081,-7.5062,-7.4451,-7.4892,-7.5092,-7.5627,-7.6736,-7.8425,-8.0162,-8.0801,-8.1614,-8.1889,-8.1823,-8.0995,-8.0432,-7.967,-7.8809,-7.8962,-7.8617,-7.9135,-7.9313,-8.0209,-8.0209,-8.0209,-8.0209,-8.0209,-8.0209,-8.0344,-8.0513,-8.0547,-8.1088,-8.1968,-8.2543,-8.3152,-8.3795,-8.3862,-8.3625,-8.3084,-8.2644,-8.2408,-8.2408,-8.2408,-8.2408,-8.2356,-8.2042,-8.1725,-8.135,-8.0531,-7.9373,-7.8175,-7.7197,-7.6332,-7.5592,-7.5018,-7.4436,-7.3881,-7.3509,-7.3229,-7.3045,-7.2983,-7.2983,-7.2983,-7.2983,-7.2983,-7.2983,-7.2983,-7.2983,-7.2983,-7.2983,-7.2983,-7.2983,-7.2983,-7.3076,-7.3353,-7.4153,-7.4645,-7.4707,-7.5292,-7.5661,-7.5661,-7.5661,-7.5661,-7.5661,-7.5661,-7.5661,-7.5661,-7.5661,-7.563,-7.563,-7.563,-7.5661,-7.5661,-7.5661,-7.5476,-7.5169,-7.5007,-7.4966,-7.4936,-7.4687,-7.468,-7.4977,-7.5043,-7.5201,-7.5294,-7.5044,-7.5006,-7.4869,-7.4869,-7.4869,-7.4869,-7.4869,-7.4869,-7.4869,-7.4839,-7.512,-7.5644,-7.5045,-7.518,-7.5583,-7.5248,-7.6136,-7.7543,-7.9284,-8.0565,-8.1245,-8.1689,-8.1897,-8.1525,-8.0664,-7.9968,-7.9306,-7.9438,-7.9724,-7.9608,-7.9661,-7.9924,-8.0209,-8.0209,-8.0209,-8.0209,-8.0209,-8.0276,-8.0648,-8.1156,-8.1257,-8.2035,-8.3118,-8.3422,-8.3795,-8.4437,-8.4471,-8.4539,-8.4234,-8.3186,-8.2644,-8.2644,-8.2611,-8.2611,-8.2558,-8.2153,-8.1584,-8.1115,-7.9667,-7.8978,-7.8655,-7.7457,-7.6762,-7.6612,-7.5808,-7.5059,-7.4532,-7.4094,-7.3691,-7.3291,-7.3199,-7.3137,-7.3014,-7.3168,-7.3199,-7.3137,-7.3137,-7.3168,-7.3106,-7.3014,-7.2983,-7.2983,-7.2983,-7.3322,-7.3968,-7.5107,-7.5907,-7.5938,-7.6554,-7.6923,-7.6923,-7.6862,-7.68,-7.68,-7.6923,-7.68,-7.6739,-7.68,-7.6831,-7.6769,-7.6831,-7.6892,-7.6862,-7.6831,-7.64,-7.5384,-7.5627,-7.587,-7.5993,-7.6226,-7.6263,-7.5808,-7.5443,-7.5384,-7.5346,-7.5074,-7.4869,-7.4869,-7.4869,-7.4869,-7.4869,-7.4869,-7.4869,-7.4869,-7.4869,-7.5142,-7.5006,-7.4937,-7.5691,-7.6197,-7.5459,-7.5587,-7.7349,-7.9098,-8.0264,-8.1068,-8.1919,-8.2098,-8.1492,-8.073,-8.0652,-8.0221,-8.0475,-8.0584,-8.0642,-8.0694,-8.0823,-8.0209,-8.0209,-8.0209,-8.0209,-8.0276,-8.0716,-8.1088,-8.1359,-8.1799,-8.2611,-8.3389,-8.349,-8.3896,-8.4505,-8.4606,-8.4606,-8.4573,-8.4133,-8.393,-8.3896,-8.3896,-8.3896,-8.379,-8.3342,-8.2522,-8.132,-7.9912,-7.8859,-7.8194,-7.7143,-7.6399,-7.5901,-7.5713,-7.5273,-7.4898,-7.474,-7.4553,-7.443,-7.4368,-7.4368,-7.4368,-7.4368,-7.4368,-7.4368,-7.4368,-7.4368,-7.4338,-7.3476,-7.3014,-7.3014,-7.2983,-7.3291,-7.4091,-7.5261,-7.5969,-7.6092,-7.6646,-7.7016,-7.7016,-7.7016,-7.7016,-7.7016,-7.7016,-7.7016,-7.7016,-7.7016,-7.7016,-7.7016,-7.7016,-7.7016,-7.7016,-7.7016,-7.6769,-7.6431,-7.6388,-7.6349,-7.6222,-7.5805,-7.5388,-7.5255,-7.4922,-7.4864,-7.4954,-7.4937,-7.4869,-7.4869,-7.4869,-7.4869,-7.4869,-7.4869,-7.4869,-7.4869,-7.4869,-7.4869,-7.4869,-7.4869,-7.5248,-7.5893,-7.5587,-7.5826,-7.7447,-7.8973,-8.0082,-8.1186,-8.1976,-8.2121,-8.1514,-8.1238,-8.1282,-8.1137,-8.1125,-8.1275,-8.1511,-8.1624,-8.172,-8.0209,-8.0209,-8.0209,-8.0378,-8.0615,-8.1122,-8.1629,-8.2103,-8.2577,-8.3219,-8.3828,-8.393,-8.4167,-8.4539,-8.4606,-8.4606,-8.4606,-8.4606,-8.4606,-8.4606,-8.4606,-8.4606,-8.4446,-8.3741,-8.2737,-8.1401,-8.0182,-7.9173,-7.8155,-7.7403,-7.6807,-7.63,-7.6108,-7.5792,-7.5415,-7.5353,-7.5292,-7.5046,-7.4984,-7.5015,-7.5015,-7.5015,-7.5015,-7.5015,-7.5015,-7.5015,-7.4953,-7.4153,-7.3722,-7.3783,-7.3937,-7.4307,-7.4799,-7.5784,-7.6369,-7.6461,-7.6739,-7.7016,-7.7016,-7.7016,-7.7016,-7.7016,-7.7016,-7.7016,-7.7016,-7.7016,-7.7016,-7.7016,-7.7016,-7.7016,-7.7016,-7.7016,-7.7016,-7.7016,-7.6788,-7.6554,-7.6294,-7.5856,-7.5377,-7.5274,-7.4976,-7.4887,-7.5022,-7.4937,-7.4869,-7.4869,-7.4869,-7.4869,-7.4869,-7.4869,-7.4869,-7.4869,-7.4869,-7.4869,-7.4869,-7.4869,-7.4869,-7.5248,-7.5587,-7.6528,-7.7898,-7.9284,-8.0537,-8.172,-8.2651,-8.2865,-8.2356,-8.2333,-8.2288,-8.2076,-8.1997,-8.2448,-8.2798,-8.2469,-8.248,-8.0209,-8.0209,-8.0209,-8.0547,-8.1088,-8.1325,-8.2103,-8.3186,-8.3524,-8.393,-8.4471,-8.4505,-8.4519,-8.4606,-8.4606,-8.4606,-8.4606,-8.4606,-8.4606,-8.4553,-8.4446,-8.4339,-8.4231,-8.3354,-8.219,-8.102,-8.0178,-7.9379,-7.8407,-7.79,-7.7861,-7.7287,-7.69,-7.6677,-7.6184,-7.6061,-7.5784,-7.5384,-7.5261,-7.5261,-7.5261,-7.523,-7.523,-7.523,-7.5261,-7.5292,-7.5292,-7.5169,-7.5046,-7.5046,-7.5415,-7.5723,-7.6061,-7.6646,-7.6954,-7.6923,-7.7016,-7.7016,-7.7016,-7.7016,-7.7016,-7.7016,-7.7016,-7.7016,-7.7016,-7.7016,-7.7016,-7.7016,-7.7016,-7.7016,-7.7016,-7.7016,-7.695,-7.695,-7.6884,-7.662,-7.6118,-7.6191,-7.5899,-7.5459,-7.5414,-7.5346,-7.5278,-7.5006,-7.4937,-7.4869,-7.4869,-7.4869,-7.4869,-7.4869,-7.4869,-7.4869,-7.4869,-7.4869,-7.4869,-7.4869,-7.4937,-7.5142,-7.5691,-7.7023,-7.8565,-8.0021,-8.131,-8.2444,-8.3098,-8.3288,-8.3332,-8.3153,-8.323,-8.3239,-8.3448,-8.3926,-8.38,-8.3456,-8.324,-8.0209,-8.0209,-8.0209,-8.031,-8.0648,-8.1596,-8.2306,-8.2847,-8.3896,-8.4403,-8.4606,-8.4606,-8.4606,-8.4606,-8.4606,-8.4606,-8.4606,-8.4606,-8.4606,-8.4446,-8.3564,-8.3399,-8.3432,-8.285,-8.1843,-8.0601,-7.9565,-7.8659,-7.8182,-7.7667,-7.7277,-7.7147,-7.7081,-7.6954,-7.6769,-7.6708,-7.6677,-7.6523,-7.6492,-7.6431,-7.6431,-7.6431,-7.6492,-7.6492,-7.6461,-7.6431,-7.6461,-7.6492,-7.5938,-7.5107,-7.5661,-7.6,-7.6092,-7.6646,-7.7016,-7.7016,-7.7016,-7.7016,-7.7016,-7.7016,-7.7016,-7.7016,-7.7016,-7.7016,-7.7016,-7.7016,-7.7016,-7.7016,-7.7016,-7.7016,-7.7016,-7.695,-7.6884,-7.6686,-7.662,-7.6421,-7.6021,-7.5752,-7.5617,-7.5414,-7.521,-7.5074,-7.5006,-7.4937,-7.4869,-7.4869,-7.4869,-7.4869,-7.4869,-7.4869,-7.4869,-7.4869,-7.4869,-7.4869,-7.4869,-7.4869,-7.4937,-7.5142,-7.5996,-7.7447,-7.9221,-8.1186,-8.2386,-8.3609,-8.3576,-8.3762,-8.3741,-8.3641,-8.3851,-8.4102,-8.4102,-8.4211,-8.4339,-8.4196,-8.4108,-8.0209,-8.0209,-8.0209,-8.0378,-8.0784,-8.19,-8.2577,-8.305,-8.4065,-8.4606,-8.4606,-8.4606,-8.4606,-8.4606,-8.4606,-8.4606,-8.4606,-8.4606,-8.4606,-8.4392,-8.331,-8.2605,-8.2272,-8.1752,-8.1047,-8.0117,-7.913,-7.8469,-7.7925,-7.7408,-7.7147,-7.7016,-7.7016,-7.7016,-7.6985,-7.7016,-7.7016,-7.7016,-7.7016,-7.7016,-7.7016,-7.7016,-7.7016,-7.7016,-7.7016,-7.7016,-7.7016,-7.7016,-7.6615,-7.6092,-7.6246,-7.6431,-7.6461,-7.68,-7.7016,-7.7016,-7.7016,-7.7016,-7.7016,-7.7016,-7.7016,-7.7016,-7.7016,-7.7016,-7.7016,-7.7016,-7.7016,-7.7016,-7.7016,-7.7016,-7.695,-7.6884,-7.6686,-7.6554,-7.6355,-7.6155,-7.5819,-7.5685,-7.5482,-7.5278,-7.5006,-7.4869,-7.4869,-7.4869,-7.4869,-7.4869,-7.4869,-7.4869,-7.4869,-7.4869,-7.4869,-7.4869,-7.4869,-7.4869,-7.4937,-7.4937,-7.5006,-7.521,-7.6094,-7.7577,-7.9713,-8.1803,-8.2671,-8.3521,-8.3851,-8.4069,-8.3947,-8.3947,-8.4211,-8.4372,-8.4372,-8.4392,-8.45,-8.4606,-8.4606,-8.0209,-8.0209,-8.0209,-8.0581,-8.119,-8.1968,-8.2611,-8.3389,-8.4099,-8.4505,-8.4606,-8.4606,-8.4606,-8.4606,-8.4606,-8.4606,-8.4606,-8.4606,-8.4446,-8.4035,-8.3143,-8.2149,-8.0896,-8.0597,-8.0053,-7.9441,-7.91,-7.8342,-7.7701,-7.7442,-7.7277,-7.7081,-7.7016,-7.7016,-7.7016,-7.7016,-7.7016,-7.7016,-7.7016,-7.7016,-7.7016,-7.7016,-7.7016,-7.7016,-7.7016,-7.7016,-7.7016,-7.7016,-7.6954,-7.6985,-7.7016,-7.6954,-7.6985,-7.7016,-7.7016,-7.7016,-7.7016,-7.7016,-7.7016,-7.7016,-7.7016,-7.7016,-7.7016,-7.7016,-7.7016,-7.7016,-7.7016,-7.7016,-7.7016,-7.7016,-7.695,-7.6752,-7.662,-7.6457,-7.6288,-7.5954,-7.5617,-7.5722,-7.5654,-7.5074,-7.4937,-7.4937,-7.4869,-7.4869,-7.4839,-7.4569,-7.4629,-7.4749,-7.4749,-7.4749,-7.4809,-7.4869,-7.4869,-7.4869,-7.4937,-7.4937,-7.5074,-7.5278,-7.6227,-7.7672,-7.9896,-8.1596,-8.2467,-8.321,-8.3762,-8.3988,-8.3982,-8.4103,-8.4365,-8.4263,-8.4094,-8.4297,-8.4573,-8.4606,-8.4606,-8.0209,-8.0209,-8.0209,-8.0276,-8.0547,-8.1224,-8.1968,-8.2712,-8.3456,-8.4167,-8.4505,-8.4606,-8.4606,-8.4606,-8.4606,-8.4606,-8.4606,-8.4553,-8.4089,-8.3054,-8.2886,-8.1479,-8.0082,-7.9625,-7.9286,-7.8754,-7.812,-7.7701,-7.7442,-7.7246,-7.7081,-7.7016,-7.7016,-7.7016,-7.7016,-7.7016,-7.7016,-7.7016,-7.7016,-7.7016,-7.7016,-7.7016,-7.7016,-7.7016,-7.7016,-7.7016,-7.7016,-7.7016,-7.7016,-7.7016,-7.7016,-7.7016,-7.7016,-7.7016,-7.7016,-7.7016,-7.7016,-7.7016,-7.7016,-7.7016,-7.7016,-7.7016,-7.7016,-7.7016,-7.7016,-7.7016,-7.7016,-7.7016,-7.7016,-7.7016,-7.695,-7.695,-7.6752,-7.662,-7.662,-7.6488,-7.6021,-7.5984,-7.5752,-7.5414,-7.5278,-7.521,-7.4937,-7.4937,-7.4757,-7.433,-7.439,-7.4569,-7.4629,-7.4757,-7.4817,-7.4937,-7.5074,-7.5142,-7.5074,-7.5142,-7.5346,-7.5654,-7.6559,-7.7478,-7.9652,-8.1712,-8.2638,-8.3288,-8.3838,-8.3975,-8.4055,-8.3892,-8.4012,-8.393,-8.3896,-8.4234,-8.4505,-8.4539,-8.4606,-8.0209,-8.0209,-8.0209,-8.0209,-8.0378,-8.1325,-8.2035,-8.2577,-8.3558,-8.4234,-8.4539,-8.4606,-8.4606,-8.4606,-8.4606,-8.4606,-8.4606,-8.4553,-8.3893,-8.283,-8.2116,-8.0831,-7.9346,-7.8597,-7.8183,-7.8151,-7.7765,-7.7507,-7.7377,-7.7212,-7.7016,-7.7016,-7.7016,-7.7016,-7.7016,-7.7016,-7.7016,-7.7016,-7.7016,-7.7016,-7.7016,-7.7016,-7.7016,-7.7016,-7.7016,-7.7016,-7.7016,-7.7016,-7.7016,-7.7016,-7.7016,-7.7016,-7.7016,-7.7016,-7.7016,-7.7016,-7.7016,-7.7016,-7.7016,-7.7016,-7.7016,-7.7016,-7.7016,-7.7016,-7.7016,-7.7016,-7.7016,-7.7016,-7.7016,-7.7016,-7.695,-7.6818,-7.6686,-7.6752,-7.6752,-7.6686,-7.6488,-7.6355,-7.6088,-7.5752,-7.5685,-7.5482,-7.5278,-7.5142,-7.4877,-7.4608,-7.4668,-7.4817,-7.4886,-7.4916,-7.4946,-7.5074,-7.5346,-7.5414,-7.5308,-7.5444,-7.5715,-7.6191,-7.6989,-7.7737,-7.9004,-8.1036,-8.2886,-8.3476,-8.4001,-8.4271,-8.4316,-8.4065,-8.3896,-8.4133,-8.4268,-8.437,-8.4403,-8.4505,-8.4573,-8.0209,-8.0209,-8.0209,-8.0209,-8.0412,-8.1596,-8.2272,-8.2611,-8.3862,-8.4403,-8.4606,-8.4606,-8.4606,-8.4606,-8.4606,-8.4606,-8.45,-8.4197,-8.3476,-8.2718,-8.1505,-8.0292,-7.8973,-7.8216,-7.7701,-7.7925,-7.7538,-7.7377,-7.7312,-7.7147,-7.7016,-7.7016,-7.7016,-7.7016,-7.7016,-7.7016,-7.7016,-7.7016,-7.7016,-7.7016,-7.7016,-7.7016,-7.7016,-7.7016,-7.7016,-7.7016,-7.7016,-7.7016,-7.7016,-7.7016,-7.7016,-7.7016,-7.7016,-7.7016,-7.7016,-7.7016,-7.7016,-7.7016,-7.7016,-7.7016,-7.7016,-7.7016,-7.7016,-7.7016,-7.7016,-7.7016,-7.7016,-7.7016,-7.7016,-7.7016,-7.695,-7.6818,-7.6818,-7.6884,-7.6752,-7.6752,-7.6884,-7.6752,-7.6421,-7.6155,-7.6021,-7.5887,-7.555,-7.5278,-7.5112,-7.4946,-7.4976,-7.4976,-7.5014,-7.521,-7.5278,-7.5346,-7.555,-7.5819,-7.5752,-7.5819,-7.6088,-7.6584,-7.7281,-7.831,-7.9069,-8.0795,-8.2683,-8.3598,-8.411,-8.4345,-8.4336,-8.3998,-8.4031,-8.4437,-8.4234,-8.3896,-8.4065,-8.4437,-8.4505,-8.0209,-8.0209,-8.0209,-8.0209,-8.0344,-8.1122,-8.19,-8.2475,-8.3389,-8.4065,-8.4573,-8.4606,-8.4606,-8.4606,-8.4606,-8.4553,-8.4251,-8.3531,-8.2774,-8.223,-8.1154,-7.9989,-7.8817,-7.8343,-7.7927,-7.7312,-7.7147,-7.7147,-7.7147,-7.7016,-7.7016,-7.7016,-7.7016,-7.7016,-7.7016,-7.7016,-7.7016,-7.7016,-7.7016,-7.7016,-7.7016,-7.7016,-7.7016,-7.7016,-7.7016,-7.7016,-7.7016,-7.7016,-7.7016,-7.7016,-7.7016,-7.7016,-7.7016,-7.7016,-7.7016,-7.7016,-7.6954,-7.6892,-7.6892,-7.6954,-7.7016,-7.7016,-7.7016,-7.7016,-7.7016,-7.7016,-7.7016,-7.7016,-7.7016,-7.7016,-7.7016,-7.6884,-7.695,-7.695,-7.695,-7.6884,-7.695,-7.6884,-7.6752,-7.6488,-7.6355,-7.6221,-7.5819,-7.5519,-7.5294,-7.5158,-7.5188,-7.5068,-7.5052,-7.5368,-7.5752,-7.5819,-7.5887,-7.6155,-7.6288,-7.6355,-7.6518,-7.6941,-7.7792,-7.929,-8.0167,-8.1157,-8.2439,-8.3599,-8.4184,-8.4297,-8.42,-8.3964,-8.3828,-8.393,-8.3625,-8.3253,-8.3625,-8.3998,-8.42,-8.0209,-8.0209,-8.0209,-8.0209,-8.0412,-8.1393,-8.2069,-8.2543,-8.3592,-8.4268,-8.4539,-8.4606,-8.4606,-8.4606,-8.4606,-8.4285,-8.3421,-8.2288,-8.1421,-8.0712,-8.005,-7.916,-7.8088,-7.7992,-7.7636,-7.7147,-7.7016,-7.7016,-7.7016,-7.7016,-7.7016,-7.7016,-7.7016,-7.7016,-7.7016,-7.7016,-7.7016,-7.7016,-7.7016,-7.7016,-7.7016,-7.7016,-7.7016,-7.7016,-7.7016,-7.7016,-7.7016,-7.7016,-7.7016,-7.7016,-7.7016,-7.7016,-7.7016,-7.7016,-7.7016,-7.6985,-7.6739,-7.6523,-7.6492,-7.6492,-7.6461,-7.6523,-7.6769,-7.7016,-7.7016,-7.7016,-7.6985,-7.7016,-7.7016,-7.7016,-7.7016,-7.7016,-7.7016,-7.7016,-7.7016,-7.7016,-7.7016,-7.7016,-7.6884,-7.6752,-7.6686,-7.6488,-7.5954,-7.5691,-7.5436,-7.5368,-7.5399,-7.5315,-7.514,-7.562,-7.6221,-7.6155,-7.6155,-7.6421,-7.6656,-7.6919,-7.6985,-7.7404,-7.8496,-7.9982,-8.1182,-8.2112,-8.2963,-8.3972,-8.4291,-8.435,-8.4268,-8.4065,-8.3761,-8.3456,-8.3186,-8.305,-8.3253,-8.349,-8.3727,-8.0209,-8.0209,-8.0209,-8.0276,-8.0615,-8.1832,-8.2509,-8.2881,-8.4031,-8.4573,-8.4606,-8.4606,-8.4606,-8.45,-8.4143,-8.3509,-8.223,-8.0977,-7.9928,-7.9222,-7.8691,-7.7896,-7.7312,-7.7016,-7.7016,-7.7081,-7.7016,-7.7016,-7.7016,-7.7016,-7.7016,-7.7016,-7.7016,-7.7016,-7.7016,-7.7016,-7.7016,-7.7016,-7.7016,-7.7016,-7.7016,-7.7016,-7.7016,-7.7016,-7.7016,-7.7016,-7.7016,-7.7016,-7.7016,-7.7016,-7.7016,-7.7016,-7.7016,-7.7016,-7.7016,-7.6923,-7.6492,-7.6277,-7.6246,-7.6061,-7.6123,-7.6154,-7.6369,-7.6523,-7.6615,-7.6585,-7.6831,-7.6985,-7.7016,-7.7016,-7.7016,-7.7016,-7.7016,-7.7016,-7.7016,-7.7016,-7.7016,-7.7016,-7.7016,-7.695,-7.7016,-7.6752,-7.6288,-7.6088,-7.5899,-7.5765,-7.5759,-7.596,-7.5881,-7.6238,-7.6554,-7.6421,-7.6457,-7.6686,-7.6985,-7.7411,-7.7605,-7.7894,-7.9384,-8.1089,-8.2067,-8.3011,-8.3776,-8.4413,-8.4446,-8.4505,-8.437,-8.4268,-8.4099,-8.3761,-8.3084,-8.305,-8.3625,-8.349,-8.3389,-8.0209,-8.0209,-8.0209,-8.0547,-8.1224,-8.2035,-8.278,-8.3422,-8.4234,-8.4606,-8.4606,-8.4606,-8.4606,-8.4339,-8.331,-8.223,-8.1036,-7.9745,-7.8973,-7.8502,-7.7799,-7.7312,-7.7016,-7.7016,-7.7016,-7.7016,-7.7016,-7.7016,-7.7016,-7.7016,-7.7016,-7.7016,-7.7016,-7.7016,-7.7016,-7.7016,-7.7016,-7.7016,-7.7016,-7.7016,-7.7016,-7.7016,-7.7016,-7.7016,-7.7016,-7.7016,-7.7016,-7.7016,-7.7016,-7.7016,-7.7016,-7.7016,-7.7016,-7.7016,-7.7016,-7.7016,-7.6923,-7.6862,-7.6646,-7.6184,-7.5784,-7.5692,-7.563,-7.5323,-7.5538,-7.5938,-7.6338,-7.7016,-7.6985,-7.6923,-7.6892,-7.6985,-7.7016,-7.7016,-7.7016,-7.7016,-7.7016,-7.7016,-7.7016,-7.7081,-7.7147,-7.695,-7.6554,-7.6488,-7.6355,-7.6221,-7.6155,-7.6355,-7.6488,-7.6686,-7.6818,-7.6686,-7.6722,-7.6919,-7.7541,-7.7896,-7.8375,-7.8565,-8.0184,-8.1949,-8.2609,-8.343,-8.4266,-8.4783,-8.4662,-8.4606,-8.4505,-8.4437,-8.4437,-8.3998,-8.3253,-8.3625,-8.4283,-8.393,-8.3219,-8.0209,-8.0209,-8.0209,-8.0615,-8.1359,-8.2103,-8.2813,-8.3558,-8.4302,-8.4606,-8.4606,-8.4606,-8.4606,-8.4197,-8.2605,-8.133,-8.044,-7.8785,-7.7863,-7.7863,-7.7312,-7.7016,-7.7016,-7.7016,-7.7016,-7.7016,-7.7016,-7.7016,-7.7016,-7.7016,-7.7016,-7.7016,-7.7016,-7.7016,-7.7016,-7.7016,-7.7016,-7.7016,-7.7016,-7.7016,-7.7016,-7.7016,-7.7016,-7.7016,-7.7016,-7.7016,-7.7016,-7.7016,-7.7016,-7.7016,-7.7016,-7.7016,-7.7016,-7.7016,-7.7016,-7.7016,-7.7016,-7.6646,-7.5938,-7.563,-7.5384,-7.5076,-7.4922,-7.5076,-7.5076,-7.5261,-7.5507,-7.5815,-7.6246,-7.6431,-7.6615,-7.68,-7.6954,-7.7016,-7.7016,-7.7016,-7.7016,-7.7016,-7.7016,-7.7147,-7.7246,-7.7085,-7.6858,-7.6853,-7.6656,-7.6488,-7.6488,-7.6686,-7.6752,-7.6884,-7.695,-7.695,-7.7081,-7.7246,-7.796,-7.8565,-7.9346,-7.9806,-8.1068,-8.247,-8.2935,-8.3688,-8.4476,-8.4804,-8.4669,-8.4606,-8.4553,-8.437,-8.4133,-8.3761,-8.3355,-8.3727,-8.4065,-8.393,-8.3422,-8.0209,-8.0209,-8.0209,-8.0716,-8.1596,-8.2171,-8.2949,-8.3828,-8.437,-8.4606,-8.4606,-8.4553,-8.4446,-8.3729,-8.1944,-8.068,-8.011,-7.8024,-7.7181,-7.7016,-7.7016,-7.7016,-7.7016,-7.7016,-7.7016,-7.7016,-7.7016,-7.7016,-7.7016,-7.7016,-7.7016,-7.7016,-7.7016,-7.7016,-7.7016,-7.7016,-7.7016,-7.7016,-7.7016,-7.7016,-7.7016,-7.7016,-7.7016,-7.7016,-7.7016,-7.7016,-7.7016,-7.7016,-7.7016,-7.7016,-7.7016,-7.7016,-7.7016,-7.7016,-7.7016,-7.7016,-7.7016,-7.6554,-7.5877,-7.5384,-7.4892,-7.4553,-7.4184,-7.4399,-7.4676,-7.4738,-7.5076,-7.5446,-7.5784,-7.6123,-7.6338,-7.68,-7.6923,-7.7016,-7.7016,-7.7016,-7.7081,-7.7212,-7.7343,-7.7538,-7.7605,-7.729,-7.7191,-7.7119,-7.6985,-7.6752,-7.6818,-7.695,-7.7016,-7.7016,-7.7016,-7.7016,-7.7081,-7.7442,-7.8407,-7.916,-7.9928,-8.1009,-8.223,-8.3087,-8.3554,-8.3918,-8.4507,-8.4655,-8.4606,-8.4606,-8.4606,-8.4167,-8.3795,-8.3896,-8.3862,-8.3456,-8.3456,-8.3524,-8.3558,-8.0209,-8.0209,-8.0209,-8.1021,-8.2306,-8.2374,-8.3219,-8.4403,-8.4573,-8.4606,-8.4606,-8.45,-8.3838,-8.2718,-8.1388,-8.005,-7.9067,-7.7605,-7.7147,-7.7016,-7.7016,-7.7016,-7.7016,-7.7016,-7.7016,-7.7016,-7.7016,-7.7016,-7.7016,-7.7016,-7.7016,-7.7016,-7.7016,-7.7016,-7.7016,-7.7016,-7.7016,-7.7016,-7.7016,-7.7016,-7.7016,-7.7016,-7.7016,-7.7016,-7.7016,-7.7016,-7.7016,-7.7016,-7.7016,-7.7016,-7.7016,-7.7016,-7.7016,-7.7016,-7.7016,-7.7016,-7.7016,-7.6615,-7.6123,-7.5784,-7.5507,-7.483,-7.4214,-7.3907,-7.4368,-7.4184,-7.4645,-7.56,-7.5846,-7.6215,-7.6615,-7.6985,-7.7016,-7.7016,-7.7081,-7.7212,-7.7343,-7.7473,-7.7667,-7.7925,-7.7927,-7.7739,-7.7483,-7.751,-7.6934,-7.6673,-7.6818,-7.7016,-7.7016,-7.7016,-7.7016,-7.7016,-7.7016,-7.7541,-7.8817,-7.9745,-8.0739,-8.2001,-8.331,-8.3893,-8.4285,-8.4606,-8.4606,-8.4606,-8.4606,-8.4606,-8.4606,-8.437,-8.4268,-8.4471,-8.437,-8.3998,-8.3896,-8.4099,-8.3896,-8.0209,-8.0242,-8.0682,-8.146,-8.2475,-8.2881,-8.3659,-8.4505,-8.4606,-8.4606,-8.4553,-8.3784,-8.3199,-8.2288,-8.0532,-7.9408,-7.8754,-7.7572,-7.7147,-7.7016,-7.7016,-7.7016,-7.7016,-7.7016,-7.7016,-7.7016,-7.7016,-7.7016,-7.7016,-7.7016,-7.7016,-7.7016,-7.7016,-7.7016,-7.7016,-7.7016,-7.7016,-7.7016,-7.7016,-7.7016,-7.7016,-7.7016,-7.7016,-7.7016,-7.7016,-7.7016,-7.7016,-7.7016,-7.7016,-7.7016,-7.7016,-7.7016,-7.7016,-7.7016,-7.7016,-7.7016,-7.7016,-7.6862,-7.6585,-7.6215,-7.5692,-7.5138,-7.4553,-7.4307,-7.4522,-7.4584,-7.4769,-7.5353,-7.5815,-7.6215,-7.6308,-7.6739,-7.7016,-7.7081,-7.7147,-7.7343,-7.7538,-7.7732,-7.799,-7.831,-7.831,-7.8183,-7.796,-7.7737,-7.7132,-7.6527,-7.6769,-7.7016,-7.7016,-7.7016,-7.7016,-7.7016,-7.7016,-7.8152,-7.9438,-8.05,-8.1563,-8.2886,-8.4231,-8.4392,-8.4606,-8.4606,-8.4606,-8.4606,-8.4606,-8.4606,-8.4606,-8.4606,-8.4606,-8.4606,-8.4606,-8.4505,-8.4539,-8.4606,-8.4268,-8.0209,-8.031,-8.1224,-8.1934,-8.2475,-8.3186,-8.393,-8.4539,-8.4606,-8.4606,-8.45,-8.331,-8.2718,-8.2001,-8.011,-7.9005,-7.8565,-7.767,-7.7147,-7.7016,-7.7016,-7.7016,-7.7016,-7.7016,-7.7016,-7.7016,-7.7016,-7.7016,-7.7016,-7.7016,-7.7016,-7.7016,-7.7016,-7.7016,-7.7016,-7.7016,-7.7016,-7.7016,-7.7016,-7.7016,-7.7016,-7.7016,-7.7016,-7.7016,-7.7016,-7.7016,-7.7016,-7.7016,-7.7016,-7.7016,-7.7016,-7.7016,-7.7016,-7.7016,-7.7016,-7.7016,-7.7016,-7.7016,-7.6862,-7.64,-7.5815,-7.5415,-7.5046,-7.4953,-7.5015,-7.5046,-7.5076,-7.5415,-7.5815,-7.6092,-7.6215,-7.68,-7.7016,-7.7016,-7.7246,-7.7442,-7.7797,-7.799,-7.8374,-7.8659,-7.8691,-7.866,-7.7935,-7.7682,-7.7519,-7.7171,-7.7612,-7.7507,-7.7016,-7.7016,-7.7016,-7.7016,-7.7016,-7.8565,-8.026,-8.0858,-8.1654,-8.3421,-8.4446,-8.45,-8.4606,-8.4606,-8.4606,-8.4606,-8.4606,-8.4606,-8.4606,-8.4606,-8.4606,-8.4606,-8.4606,-8.4606,-8.4606,-8.4606,-8.4437,-8.0209,-8.0378,-8.1765,-8.2374,-8.2577,-8.3219,-8.3964,-8.4573,-8.4606,-8.45,-8.4251,-8.3054,-8.2401,-8.1828,-7.9593,-7.8628,-7.8375,-7.7507,-7.7016,-7.7016,-7.7016,-7.7016,-7.7016,-7.7016,-7.7016,-7.7016,-7.7016,-7.7016,-7.7016,-7.7016,-7.7016,-7.7016,-7.7016,-7.7016,-7.7016,-7.7016,-7.7016,-7.7016,-7.7016,-7.7016,-7.7016,-7.7016,-7.7016,-7.7016,-7.7016,-7.7016,-7.7016,-7.7016,-7.7016,-7.7016,-7.7016,-7.7016,-7.7016,-7.7016,-7.7016,-7.7016,-7.7016,-7.7016,-7.6985,-7.6369,-7.6092,-7.5969,-7.5661,-7.5415,-7.5169,-7.5169,-7.5446,-7.5938,-7.6123,-7.64,-7.6708,-7.6985,-7.7016,-7.7147,-7.7442,-7.783,-7.8182,-7.8501,-7.8849,-7.9194,-7.9255,-7.9128,-7.8187,-7.7591,-7.762,-7.7807,-7.8376,-7.8152,-7.7442,-7.7442,-7.7572,-7.8024,-7.8152,-7.9284,-8.0799,-8.0858,-8.177,-8.3619,-8.4606,-8.4606,-8.4606,-8.4606,-8.4606,-8.4606,-8.4606,-8.4606,-8.4606,-8.4606,-8.4606,-8.4606,-8.4606,-8.4606,-8.4606,-8.4606,-8.4471,-8.0479,-8.1021,-8.2002,-8.2712,-8.3186,-8.393,-8.4403,-8.4553,-8.4553,-8.4143,-8.3199,-8.2001,-8.089,-7.9806,-7.8754,-7.7734,-7.7572,-7.7442,-7.7016,-7.7016,-7.7016,-7.7016,-7.7016,-7.7016,-7.7016,-7.7016,-7.7016,-7.7016,-7.7016,-7.7016,-7.7016,-7.7016,-7.7016,-7.7016,-7.7016,-7.7016,-7.7016,-7.7016,-7.7016,-7.7016,-7.7016,-7.7016,-7.7016,-7.7016,-7.7016,-7.7016,-7.7016,-7.7016,-7.7016,-7.7016,-7.7016,-7.7016,-7.7016,-7.7016,-7.7016,-7.7016,-7.7016,-7.7016,-7.7016,-7.6769,-7.6708,-7.6554,-7.64,-7.6184,-7.6308,-7.6338,-7.6492,-7.6554,-7.6585,-7.68,-7.6954,-7.7246,-7.7312,-7.7538,-7.783,-7.8374,-7.8754,-7.91,-7.9412,-7.9784,-7.9905,-8.0267,-7.9793,-7.9051,-7.8811,-7.8721,-7.9128,-7.888,-7.828,-7.8439,-7.8691,-7.9499,-8.005,-8.0739,-8.1362,-8.1538,-8.223,-8.3947,-8.4606,-8.4606,-8.4606,-8.4606,-8.4606,-8.4606,-8.4606,-8.4606,-8.4606,-8.4606,-8.4606,-8.4606,-8.4606,-8.4606,-8.4606,-8.4606,-8.4573,-8.0479,-8.1021,-8.2002,-8.2678,-8.3253,-8.42,-8.4392,-8.4035,-8.3926,-8.3254,-8.1944,-8.0712,-7.9745,-7.8754,-7.767,-7.7016,-7.7016,-7.7016,-7.7016,-7.7016,-7.7016,-7.7016,-7.7016,-7.7016,-7.7016,-7.7016,-7.7016,-7.7016,-7.7016,-7.7016,-7.7016,-7.7016,-7.7016,-7.6831,-7.68,-7.68,-7.7016,-7.7016,-7.7016,-7.7016,-7.7016,-7.7016,-7.7016,-7.7016,-7.7016,-7.7016,-7.7016,-7.7016,-7.7016,-7.7016,-7.7016,-7.7016,-7.7016,-7.7016,-7.7016,-7.7016,-7.7016,-7.7016,-7.7016,-7.7016,-7.6923,-7.6923,-7.7016,-7.7016,-7.7016,-7.6862,-7.6892,-7.6954,-7.7081,-7.7212,-7.7277,-7.7507,-7.7765,-7.7894,-7.8342,-7.888,-7.9224,-7.9567,-7.9998,-8.0303,-8.0814,-8.1198,-8.1486,-8.089,-8.0316,-8.0139,-7.9928,-7.9531,-7.9222,-7.9531,-7.9806,-8.0592,-8.1095,-8.1479,-8.1944,-8.2288,-8.3199,-8.4392,-8.4606,-8.4606,-8.4606,-8.4606,-8.4606,-8.4606,-8.4606,-8.4606,-8.4606,-8.4606,-8.4606,-8.4606,-8.4606,-8.4606,-8.4606,-8.4606,-8.4606,-8.0242,-8.0479,-8.1832,-8.2509,-8.278,-8.3906,-8.3784,-8.2774,-8.2774,-8.2001,-8.068,-7.9531,-7.888,-7.8597,-7.7507,-7.7016,-7.7016,-7.7016,-7.7016,-7.7016,-7.7016,-7.7016,-7.7016,-7.7016,-7.7016,-7.7016,-7.7016,-7.7016,-7.7016,-7.6831,-7.6831,-7.6923,-7.6739,-7.6492,-7.6369,-7.6431,-7.6646,-7.6554,-7.6739,-7.6739,-7.6769,-7.6985,-7.7016,-7.7016,-7.7016,-7.7016,-7.7016,-7.7016,-7.7016,-7.7016,-7.7016,-7.7016,-7.7016,-7.7016,-7.7016,-7.7016,-7.7016,-7.7016,-7.7016,-7.7016,-7.7081,-7.7147,-7.7147,-7.7081,-7.7081,-7.7147,-7.7277,-7.7343,-7.7408,-7.7538,-7.7636,-7.7959,-7.831,-7.8533,-7.8912,-7.9287,-7.9688,-8.0056,-8.0421,-8.0961,-8.1668,-8.2157,-8.2727,-8.2378,-8.1421,-8.1421,-8.1127,-8.0652,-8.0472,-8.068,-8.1036,-8.1538,-8.1886,-8.1944,-8.2345,-8.3054,-8.3531,-8.4553,-8.4553,-8.4606,-8.4606,-8.4606,-8.4606,-8.4606,-8.4606,-8.4606,-8.4606,-8.4606,-8.4606,-8.4606,-8.4606,-8.4606,-8.4606,-8.4606,-8.4606,-8.1257,-8.1866,-8.278,-8.349,-8.3838,-8.3418,-8.2998,-8.2718,-8.2661,-8.1563,-7.9406,-7.9098,-7.8375,-7.7572,-7.7147,-7.7016,-7.7016,-7.7016,-7.7016,-7.7016,-7.7016,-7.7016,-7.7016,-7.7016,-7.7016,-7.7016,-7.7016,-7.7016,-7.6892,-7.6646,-7.6677,-7.6892,-7.6246,-7.5907,-7.5877,-7.5754,-7.5754,-7.5846,-7.6154,-7.6338,-7.6554,-7.68,-7.6923,-7.7016,-7.7016,-7.7016,-7.7016,-7.7016,-7.7016,-7.7016,-7.7016,-7.7016,-7.7016,-7.7016,-7.7016,-7.7016,-7.7016,-7.7016,-7.7016,-7.7212,-7.7343,-7.7473,-7.7603,-7.7538,-7.7538,-7.7603,-7.7732,-7.7732,-7.7861,-7.799,-7.8279,-7.8596,-7.8912,-7.9287,-7.9659,-7.9966,-8.0392,-8.0781,-8.1198,-8.1959,-8.259,-8.3042,-8.3653,-8.2976,-8.2116,-8.2434,-8.2378,-8.1886,-8.177,-8.2001,-8.223,-8.2661,-8.2942,-8.2998,-8.3421,-8.4089,-8.4251,-8.45,-8.4553,-8.4606,-8.4606,-8.4606,-8.4606,-8.4606,-8.4606,-8.4606,-8.4606,-8.4606,-8.4606,-8.4606,-8.4606,-8.4606,-8.4606,-8.4606,-8.4606,-8.1562,-8.2103,-8.3084,-8.3631,-8.3716,-8.2998,-8.223,-8.1362,-8.1186,-7.9989,-7.8248,-7.8152,-7.7734,-7.7147,-7.7016,-7.7016,-7.7016,-7.7016,-7.7016,-7.7016,-7.7016,-7.7016,-7.7016,-7.7016,-7.7016,-7.7016,-7.7016,-7.7016,-7.6831,-7.6431,-7.6308,-7.6461,-7.563,-7.5723,-7.5815,-7.5754,-7.5353,-7.5446,-7.56,-7.5907,-7.6246,-7.6646,-7.6923,-7.7016,-7.7016,-7.7016,-7.7016,-7.7016,-7.7016,-7.7016,-7.7016,-7.7016,-7.7016,-7.7016,-7.7016,-7.7016,-7.7016,-7.7081,-7.7212,-7.7377,-7.7507,-7.7797,-7.8182,-7.831,-7.8182,-7.8118,-7.8182,-7.8151,-7.8374,-7.8628,-7.8912,-7.9287,-7.9659,-8.0056,-8.0392,-8.0726,-8.1112,-8.1584,-8.228,-8.3019,-8.3521,-8.3905,-8.3817,-8.3143,-8.2886,-8.3254,-8.3254,-8.2886,-8.2942,-8.3365,-8.3531,-8.3838,-8.4089,-8.4251,-8.4606,-8.4606,-8.4553,-8.4553,-8.4553,-8.4606,-8.4606,-8.4606,-8.4606,-8.4606,-8.4606,-8.4606,-8.4606,-8.4606,-8.4606,-8.4606,-8.4606,-8.4606,-8.4606,-8.4606,-8.4606,-8.1393,-8.1562,-8.2844,-8.318,-8.2708,-8.2434,-8.1009,-7.8973,-7.8942,-7.8152,-7.7181,-7.7016,-7.7081,-7.7016,-7.7016,-7.7016,-7.7016,-7.7016,-7.7016,-7.7016,-7.7016,-7.7016,-7.7016,-7.7016,-7.7016,-7.7016,-7.7016,-7.7016,-7.68,-7.6308,-7.5846,-7.6,-7.5815,-7.5815,-7.5907,-7.5723,-7.5384,-7.5199,-7.5569,-7.6,-7.6184,-7.6585,-7.7016,-7.7016,-7.7016,-7.7016,-7.7016,-7.7016,-7.7016,-7.7016,-7.7016,-7.7016,-7.7016,-7.7016,-7.7016,-7.7081,-7.7081,-7.7277,-7.7538,-7.7701,-7.7925,-7.8246,-7.8754,-7.9006,-7.8943,-7.8817,-7.8817,-7.888,-7.9069,-7.9411,-7.972,-7.9966,-8.0332,-8.0754,-8.1112,-8.1499,-8.1909,-8.2395,-8.3075,-8.372,-8.396,-8.4319,-8.4285,-8.3674,-8.3586,-8.3981,-8.4035,-8.3729,-8.3972,-8.4386,-8.4581,-8.4722,-8.4621,-8.4674,-8.4606,-8.4606,-8.4606,-8.4606,-8.464,-8.4606,-8.4606,-8.4606,-8.4606,-8.4606,-8.4606,-8.4606,-8.4606,-8.4606,-8.4606,-8.4606,-8.4606,-8.4606,-8.4606,-8.4606,-8.4606,-8.2137,-8.2168,-8.2661,-8.281,-8.2401,-8.0592,-7.9531,-7.8817,-7.7863,-7.7312,-7.7016,-7.7016,-7.7016,-7.7016,-7.7016,-7.7016,-7.7016,-7.7016,-7.7016,-7.7016,-7.7016,-7.7016,-7.7016,-7.7016,-7.7016,-7.7016,-7.7016,-7.6985,-7.6708,-7.6061,-7.5784,-7.6492,-7.6061,-7.563,-7.6061,-7.5784,-7.5446,-7.5323,-7.5754,-7.6123,-7.6215,-7.6615,-7.7016,-7.7016,-7.7016,-7.7016,-7.7016,-7.7016,-7.7016,-7.7016,-7.7016,-7.7016,-7.7016,-7.7016,-7.7147,-7.7312,-7.7377,-7.7603,-7.7925,-7.8182,-7.8437,-7.8817,-7.9288,-7.9537,-7.9722,-7.9661,-7.9661,-7.9691,-7.9875,-8.0149,-8.0513,-8.0754,-8.1025,-8.144,-8.1759,-8.2198,-8.26,-8.3276,-8.3884,-8.4156,-8.4372,-8.4446,-8.4446,-8.4446,-8.4392,-8.4392,-8.4446,-8.4406,-8.4622,-8.4973,-8.5074,-8.5148,-8.4756,-8.4708,-8.4776,-8.4911,-8.5046,-8.4877,-8.4809,-8.4742,-8.464,-8.4606,-8.4606,-8.4606,-8.4606,-8.4606,-8.4606,-8.4606,-8.4606,-8.4606,-8.4606,-8.4606,-8.4606,-8.4606,-8.4606,-8.2103,-8.242,-8.2654,-8.2345,-8.1538,-7.9716,-7.8597,-7.7992,-7.7312,-7.7016,-7.7016,-7.7016,-7.7016,-7.7016,-7.7016,-7.7016,-7.7016,-7.7016,-7.7016,-7.7016,-7.7016,-7.7016,-7.7016,-7.7016,-7.7016,-7.7016,-7.6985,-7.6892,-7.6554,-7.6123,-7.5969,-7.6431,-7.5754,-7.5754,-7.6308,-7.6061,-7.5846,-7.5938,-7.6277,-7.64,-7.6431,-7.68,-7.7016,-7.7016,-7.7016,-7.7016,-7.7016,-7.7016,-7.7016,-7.7016,-7.7016,-7.7016,-7.7016,-7.7147,-7.7343,-7.7473,-7.7667,-7.799,-7.8437,-7.8754,-7.9069,-7.9443,-7.9814,-8.0152,-8.0485,-8.0485,-8.0485,-8.0513,-8.0453,-8.0694,-8.1171,-8.1499,-8.1792,-8.2198,-8.2428,-8.2713,-8.322,-8.3775,-8.4211,-8.4372,-8.45,-8.45,-8.4553,-8.4553,-8.4533,-8.4635,-8.4688,-8.506,-8.5384,-8.5723,-8.5757,-8.579,-8.5621,-8.5621,-8.5892,-8.5858,-8.5723,-8.5452,-8.5148,-8.4945,-8.4843,-8.4708,-8.4606,-8.4606,-8.4606,-8.4606,-8.4606,-8.4606,-8.4606,-8.4606,-8.4606,-8.4606,-8.4606,-8.4606,-8.4606,-8.1864,-8.2446,-8.2411,-8.1679,-8.044,-7.916,-7.8024,-7.7147,-7.7016,-7.7016,-7.7016,-7.7016,-7.7016,-7.7016,-7.7016,-7.7016,-7.7016,-7.7016,-7.7016,-7.7016,-7.7016,-7.7016,-7.7016,-7.7016,-7.7016,-7.6923,-7.6831,-7.6646,-7.6369,-7.6031,-7.5938,-7.6061,-7.6246,-7.6431,-7.6862,-7.6985,-7.6831,-7.6739,-7.6862,-7.6954,-7.7016,-7.7016,-7.7016,-7.7016,-7.7016,-7.7016,-7.7016,-7.7016,-7.7016,-7.7016,-7.7016,-7.7081,-7.7147,-7.7343,-7.7667,-7.7861,-7.8182,-7.8628,-7.9069,-7.9381,-7.9691,-8.0059,-8.0424,-8.0786,-8.1112,-8.123,-8.129,-8.1349,-8.129,-8.1349,-8.185,-8.2198,-8.2485,-8.2883,-8.3052,-8.3276,-8.3775,-8.4211,-8.4426,-8.4553,-8.4553,-8.4606,-8.4674,-8.464,-8.4843,-8.4945,-8.5249,-8.5655,-8.6061,-8.6535,-8.6805,-8.6974,-8.7042,-8.7042,-8.6907,-8.667,-8.6399,-8.6196,-8.5858,-8.5418,-8.5046,-8.4843,-8.4674,-8.4606,-8.4606,-8.4606,-8.4606,-8.4606,-8.4606,-8.4606,-8.4606,-8.4606,-8.4606,-8.4606,-8.4606,-8.2368,-8.2577,-8.1581,-8.044,-7.9222,-7.7896,-7.7181,-7.7016,-7.7016,-7.7016,-7.7016,-7.7016,-7.7016,-7.7016,-7.7016,-7.7016,-7.7016,-7.7016,-7.7016,-7.7016,-7.7016,-7.7016,-7.7016,-7.7016,-7.7016,-7.6892,-7.6708,-7.6492,-7.6492,-7.6277,-7.6308,-7.6739,-7.6769,-7.6862,-7.6923,-7.7016,-7.7016,-7.7016,-7.7016,-7.7016,-7.7016,-7.7016,-7.7016,-7.7016,-7.7016,-7.7016,-7.7016,-7.7016,-7.7016,-7.7016,-7.7016,-7.7147,-7.7377,-7.7572,-7.7959,-7.8469,-7.8817,-7.9256,-7.9691,-8.0027,-8.0453,-8.0754,-8.1112,-8.144,-8.1675,-8.185,-8.2025,-8.2371,-8.2313,-8.2256,-8.2543,-8.2713,-8.294,-8.3443,-8.372,-8.3851,-8.4123,-8.4339,-8.45,-8.4553,-8.4553,-8.4708,-8.4809,-8.5012,-8.5486,-8.5723,-8.623,-8.6569,-8.6771,-8.7245,-8.7753,-8.7955,-8.8158,-8.7651,-8.7144,-8.7177,-8.7008,-8.6805,-8.6501,-8.5892,-8.5384,-8.4911,-8.4776,-8.464,-8.4606,-8.4606,-8.4606,-8.4606,-8.4606,-8.4606,-8.4606,-8.4606,-8.4606,-8.4606,-8.4606]},{"header":{"parameterUnit":"m.s-1","parameterCategory":1,"la1":31.0,"la2":29.5877,"lo1":-88.7671,"lo2":-86.6584,"dx":0.0162,"dy":0.0185,"nx":115,"ny":88,"refTime":"2023-01-08T18:00:00:Z","depth":0,"parameterNumber":3,"parameterNumberName":"V-component_of_WINDS"},"data":[0.0,0.0,0.0,0.0,0.0,0.0,0.0,0.0,0.0,0.0,0.0,0.0,0.0,0.0,0.0,0.0,0.0,0.0,0.0,0.0,0.0,0.0,0.0,0.0,0.0,0.0,0.0,0.0,0.0,0.0,0.0,0.0,0.0,0.0,0.0,0.0,0.0,0.0,0.0,0.0,0.0,0.0,0.0,0.0,0.0,0.0,0.0,0.0,0.0,0.0,0.0,0.0,0.0,0.0,0.0,0.0,0.0,0.0,0.0,0.0,0.0,0.0,0.0,0.0,0.0,0.0,0.0,0.0,0.0,0.0,0.0,0.0,0.0,0.0,0.0,0.0,0.0,0.0,0.0,0.0,0.0,0.0,0.0,0.0,0.0,0.0,0.0,0.0,0.0,0.0,0.0,0.0,0.0,0.0,0.0,0.0,0.0,0.0,0.0,0.0,0.0,0.0,0.0,0.0,0.0,0.0,0.0,0.0,0.0,0.0,0.0,0.0,0.0,0.0,0.0,0.0,0.0,0.0,0.0,0.0,0.0,0.0,0.0,0.0,0.0,0.0,0.0,0.0,0.0,0.0,0.0,0.0,0.0,0.0,0.0,0.0,0.0,0.0,0.0,0.0,0.0,0.0,0.0,0.0,0.0,0.0,0.0,0.0,0.0,0.0,0.0,0.0,0.0,0.0,0.0,0.0,0.0,0.0,0.0,0.0,0.0,0.0,0.0,0.0,0.0,0.0,0.0,0.0,0.0,0.0,0.0,0.0,0.0,0.0,0.0,0.0,0.0,0.0,0.0,0.0,0.0,0.0,0.0,0.0,0.0,0.0,0.0,0.0,0.0,0.0,0.0,0.0,0.0,0.0,0.0,0.0,0.0,0.0,0.0,0.0,0.0,0.0,0.0,0.0,0.0,0.0,0.0,0.0,0.0,0.0,0.0,0.0,0.0,0.0,0.0,0.0,0.0,0.0,0.0,0.0,0.0,0.0,0.0,0.0,0.0,0.0,0.0,0.0,0.0,0.0,0.0,0.0,0.0,0.0,0.0,0.0,0.0,0.0,0.0,0.0,0.0,0.0,0.0,0.0,0.0,0.0,0.0,0.0,0.0,0.0,0.0,0.0,0.0,0.0,0.0,0.0,0.0,0.0,0.0,0.0,0.0,0.0,0.0,0.0,0.0,0.0,0.0,0.0,0.0,0.0,0.0,0.0,0.0,0.0,0.0,0.0,0.0,0.0,0.0,0.0,0.0,0.0,0.0,0.0,0.0,0.0,0.0,0.0,0.0,0.0,0.0,0.0,0.0,0.0,0.0,0.0,0.0,0.0,0.0,0.0,0.0,0.0,0.0,0.0,0.0,0.0,0.0,0.0,0.0,0.0,0.0,0.0,0.0,0.0,0.0,0.0,0.0,0.0,0.0,0.0,0.0,0.0,0.0,0.0,0.0,0.0,0.0,0.0,0.0,0.0,0.0,0.0,0.0,0.0,0.0,0.0,0.0,0.0,0.0,0.0,0.0,0.0,0.0,0.0,0.0,0.0,0.0,0.0,0.0,0.0,0.0,0.0,0.0,0.0,0.0,0.0,0.0,0.0,0.0,0.0,0.0,0.0,0.0,0.0,0.0,0.0,0.0,0.0,0.0,0.0,0.0,0.0,0.0,0.0,0.0,0.0,0.0,0.0,0.0,0.0,0.0,0.0,0.0,0.0,0.0,0.0,0.0,0.0,0.0,0.0,0.0,0.0,0.0,0.0,0.0,0.0,0.0,0.0,0.0,0.0,0.0,0.0,0.0,0.0,0.0,0.0,0.0,0.0,0.0,0.0,0.0,0.0,0.0,0.0,0.0,0.0,0.0,0.0,0.0,0.0,0.0,0.0,0.0,0.0,0.0,0.0,0.0,0.0,0.0,0.0,0.0,0.0,0.0,0.0,0.0,0.0,0.0,0.0,0.0,0.0,0.0,0.0,0.0,0.0,0.0,0.0,0.0,0.0,0.0,0.0,0.0,0.0,0.0,0.0,0.0,0.0,0.0,0.0,0.0,0.0,0.0,0.0,0.0,0.0,0.0,0.0,0.0,0.0,0.0,0.0,0.0,0.0,0.0,0.0,0.0,0.0,0.0,0.0,0.0,0.0,0.0,0.0,0.0,0.0,0.0,0.0,0.0,0.0,0.0,0.0,0.0,0.0,0.0,0.0,0.0,0.0,0.0,0.0,0.0,0.0,0.0,0.0,0.0,0.0,0.0,0.0,0.0,0.0,0.0,0.0,0.0,0.0,0.0,0.0,0.0,0.0,0.0,0.0,0.0,0.0,0.0,0.0,0.0,0.0,0.0,0.0,0.0,0.0,0.0,0.0,0.0,0.0,0.0,0.0,0.0,0.0,0.0,0.0,0.0,0.0,0.0,0.0,0.0,0.0,0.0,0.0,0.0,0.0,0.0,0.0,0.0,0.0,0.0,0.0,0.0,0.0,0.0,0.0,0.0,0.0,0.0,0.0,0.0,0.0,0.0,0.0,0.0,0.0,0.0,0.0,0.0,0.0,0.0,0.0,0.0,0.0,0.0,0.0,0.0,0.0,0.0,0.0,0.0,0.0,0.0,0.0,0.0,0.0,0.0,0.0,0.0,0.0,0.0,0.0,0.0,0.0,0.0,0.0,0.0,0.0,0.0,0.0,0.0,0.0,0.0,0.0,0.0,0.0,0.0,0.0,0.0,0.0,0.0,0.0,0.0,0.0,0.0,0.0,0.0,0.0,0.0,0.0,0.0,0.0,0.0,0.0,0.0,0.0,0.0,0.0,0.0,0.0,0.0,0.0,0.0,0.0,0.0,0.0,0.0,0.0,0.0,0.0,0.0,0.0,0.0,0.0,0.0,0.0,0.0,0.0,0.0,0.0,0.0,0.0,0.0,0.0,0.0,0.0,0.0,0.0,0.0,0.0,0.0,0.0,0.0,0.0,0.0,0.0,0.0,0.0,0.0,0.0,0.0,0.0,0.0,0.0,0.0,0.0,0.0,0.0,0.0,0.0,0.0,0.0,0.0,0.0,0.0,0.0,0.0,0.0,0.0,0.0,0.0,0.0,0.0,0.0,0.0,0.0,0.0,0.0,0.0,0.0,0.0,0.0,0.0,0.0,0.0,0.0,0.0,0.0,0.0,0.0,0.0,0.0,0.0,0.0,0.0,0.0,0.0,0.0,0.0,0.0,0.0,0.0,0.0,0.0,0.0,0.0,0.0,0.0,0.0,0.0,0.0,0.0,0.0,0.0,0.0,0.0,0.0,0.0,0.0,0.0,0.0,0.0,0.0,0.0,0.0,0.0,0.0,0.0,0.0,0.0,0.0,0.0,0.0,0.0,0.0,0.0,0.0,0.0,0.0,0.0,0.0,0.0,0.0,0.0,0.0,0.0,0.0,0.0,0.0,0.0,0.0,0.0,0.0,0.0,0.0,0.0,0.0,0.0,0.0,0.0,0.0,0.0,0.0,0.0,0.0,0.0,0.0,0.0,0.0,0.0,0.0,0.0,0.0,0.0,0.0,0.0,0.0,0.0,0.0,0.0,0.0,0.0,0.0,0.0,0.0,0.0,0.0,0.0,0.0,0.0,0.0,0.0,0.0,0.0,0.0,0.0,0.0,0.0,0.0,0.0,0.0,0.0,0.0,0.0,0.0,0.0,0.0,0.0,0.0,0.0,0.0,0.0,0.0,0.0,0.0,0.0,0.0,0.0,0.0,0.0,0.0,0.0,0.0,0.0,0.0,0.0,0.0,0.0,0.0,0.0,0.0,0.0,0.0,0.0,0.0,0.0,0.0,0.0,0.0,0.0,0.0,0.0,0.0,0.0,0.0,0.0,0.0,0.0,0.0,0.0,0.0,0.0,0.0,0.0,0.0,0.0,0.0,0.0,0.0,0.0,0.0,0.0,0.0,0.0,0.0,0.0,0.0,0.0,0.0,0.0,0.0,0.0,0.0,0.0,0.0,0.0,0.0,0.0,0.0,0.0,0.0,0.0,0.0,0.0,0.0,0.0,0.0,0.0,0.0,0.0,0.0,0.0,0.0,0.0,0.0,0.0,0.0,0.0,0.0,0.0,0.0,0.0,0.0,0.0,0.0,0.0,0.0,0.0,0.0,0.0,0.0,0.0,0.0,0.0,0.0,0.0,0.0,0.0,0.0,0.0,0.0,0.0,0.0,0.0,0.0,0.0,0.0,0.0,0.0,0.0,0.0,0.0,0.0,0.0,0.0,0.0,0.0,0.0,0.0,0.0,-1.832,0.0,0.0,0.0,-1.9274,0.0,0.0,0.0,0.0,0.0,0.0,0.0,0.0,0.0,0.0,0.0,0.0,0.0,0.0,0.0,0.0,0.0,0.0,0.0,0.0,0.0,0.0,0.0,0.0,0.0,0.0,0.0,0.0,0.0,0.0,0.0,0.0,0.0,0.0,0.0,0.0,0.0,0.0,0.0,0.0,0.0,0.0,0.0,0.0,0.0,0.0,0.0,0.0,0.0,0.0,0.0,0.0,0.0,0.0,0.0,0.0,0.0,0.0,0.0,0.0,0.0,0.0,0.0,0.0,0.0,0.0,0.0,0.0,0.0,0.0,0.0,0.0,0.0,0.0,0.0,0.0,0.0,0.0,0.0,0.0,0.0,0.0,0.0,0.0,0.0,0.0,0.0,0.0,0.0,0.0,0.0,0.0,0.0,0.0,0.0,0.0,0.0,0.0,0.0,0.0,0.0,0.0,0.0,0.0,0.0,0.0,0.0,0.0,0.0,0.0,-1.7642,-1.8045,-1.8284,-1.8577,-1.8962,0.0,0.0,0.0,0.0,0.0,0.0,0.0,0.0,0.0,0.0,0.0,0.0,0.0,0.0,0.0,0.0,0.0,0.0,0.0,0.0,0.0,0.0,0.0,0.0,0.0,0.0,0.0,0.0,0.0,0.0,0.0,0.0,0.0,0.0,0.0,0.0,0.0,0.0,0.0,0.0,0.0,0.0,0.0,0.0,0.0,0.0,0.0,0.0,0.0,0.0,0.0,0.0,0.0,0.0,0.0,0.0,0.0,0.0,0.0,0.0,0.0,0.0,0.0,0.0,0.0,0.0,0.0,0.0,0.0,0.0,0.0,0.0,0.0,0.0,0.0,0.0,0.0,0.0,0.0,0.0,0.0,0.0,0.0,0.0,0.0,0.0,0.0,0.0,0.0,0.0,0.0,0.0,0.0,0.0,0.0,0.0,0.0,0.0,0.0,0.0,0.0,0.0,0.0,0.0,0.0,0.0,0.0,0.0,0.0,0.0,0.0,0.0,-1.7843,-1.8229,-1.8705,0.0,0.0,0.0,0.0,0.0,0.0,0.0,0.0,0.0,0.0,0.0,0.0,0.0,0.0,0.0,0.0,0.0,0.0,0.0,0.0,0.0,0.0,0.0,0.0,0.0,0.0,0.0,0.0,0.0,0.0,0.0,0.0,0.0,0.0,0.0,0.0,0.0,0.0,0.0,0.0,0.0,0.0,0.0,0.0,0.0,0.0,0.0,0.0,0.0,0.0,0.0,0.0,0.0,0.0,0.0,0.0,0.0,0.0,0.0,0.0,0.0,0.0,0.0,0.0,0.0,0.0,0.0,0.0,0.0,0.0,0.0,0.0,0.0,0.0,0.0,0.0,0.0,0.0,0.0,0.0,0.0,0.0,0.0,0.0,0.0,0.0,0.0,0.0,0.0,0.0,0.0,0.0,0.0,0.0,0.0,0.0,0.0,0.0,0.0,0.0,0.0,0.0,0.0,0.0,0.0,0.0,0.0,0.0,0.0,0.0,-1.7565,-1.7764,-1.7802,0.0,-1.8669,0.0,0.0,0.0,0.0,0.0,0.0,0.0,0.0,0.0,0.0,0.0,0.0,0.0,0.0,0.0,0.0,0.0,0.0,0.0,0.0,0.0,0.0,0.0,0.0,0.0,0.0,0.0,0.0,0.0,0.0,0.0,0.0,0.0,0.0,0.0,0.0,0.0,0.0,0.0,0.0,0.0,0.0,0.0,0.0,0.0,0.0,0.0,0.0,0.0,0.0,0.0,0.0,0.0,0.0,0.0,0.0,0.0,0.0,0.0,0.0,0.0,0.0,0.0,0.0,0.0,0.0,0.0,0.0,0.0,0.0,0.0,0.0,0.0,0.0,0.0,0.0,0.0,0.0,0.0,0.0,0.0,0.0,0.0,0.0,0.0,0.0,0.0,0.0,0.0,0.0,0.0,0.0,0.0,0.0,0.0,0.0,0.0,0.0,0.0,0.0,0.0,0.0,0.0,0.0,0.0,0.0,0.0,0.0,0.0,0.0,-1.7294,-1.7271,-1.7599,-1.8192,0.0,0.0,0.0,0.0,0.0,0.0,0.0,0.0,0.0,0.0,0.0,0.0,0.0,0.0,0.0,0.0,0.0,0.0,0.0,0.0,0.0,0.0,0.0,0.0,0.0,0.0,0.0,0.0,0.0,0.0,0.0,0.0,0.0,0.0,0.0,0.0,0.0,0.0,0.0,0.0,0.0,0.0,0.0,0.0,0.0,0.0,0.0,0.0,0.0,0.0,0.0,0.0,0.0,0.0,0.0,0.0,0.0,0.0,0.0,0.0,0.0,0.0,0.0,0.0,0.0,0.0,0.0,0.0,0.0,0.0,0.0,0.0,0.0,0.0,0.0,0.0,0.0,0.0,0.0,0.0,0.0,0.0,0.0,0.0,0.0,0.0,0.0,0.0,0.0,0.0,0.0,0.0,0.0,0.0,0.0,0.0,0.0,0.0,0.0,0.0,0.0,0.0,0.0,0.0,0.0,0.0,0.0,0.0,0.0,0.0,-1.7508,-1.753,-1.7485,-1.7783,-1.834,-1.9184,0.0,0.0,0.0,0.0,0.0,0.0,0.0,0.0,0.0,0.0,0.0,0.0,0.0,0.0,0.0,0.0,0.0,0.0,0.0,0.0,0.0,0.0,0.0,0.0,0.0,0.0,0.0,0.0,0.0,0.0,0.0,0.0,0.0,0.0,0.0,0.0,0.0,0.0,0.0,0.0,0.0,0.0,0.0,0.0,0.0,0.0,0.0,0.0,0.0,0.0,0.0,0.0,0.0,0.0,0.0,0.0,0.0,0.0,0.0,0.0,0.0,0.0,0.0,0.0,0.0,0.0,0.0,0.0,0.0,0.0,0.0,0.0,0.0,0.0,0.0,0.0,0.0,0.0,0.0,0.0,0.0,0.0,0.0,0.0,0.0,0.0,0.0,0.0,0.0,0.0,0.0,0.0,0.0,0.0,0.0,0.0,0.0,0.0,0.0,0.0,0.0,0.0,0.0,0.0,0.0,0.0,0.0,0.0,-1.8488,-1.8488,-1.8666,-1.8835,-1.8562,-1.8583,0.0,0.0,0.0,0.0,0.0,0.0,0.0,0.0,0.0,0.0,0.0,0.0,0.0,0.0,0.0,0.0,0.0,0.0,0.0,0.0,0.0,0.0,0.0,0.0,0.0,0.0,0.0,0.0,0.0,0.0,0.0,0.0,0.0,0.0,0.0,0.0,0.0,0.0,0.0,0.0,0.0,0.0,0.0,0.0,0.0,0.0,0.0,0.0,0.0,0.0,0.0,0.0,0.0,0.0,0.0,0.0,0.0,0.0,0.0,0.0,0.0,0.0,0.0,0.0,0.0,0.0,0.0,0.0,0.0,0.0,0.0,0.0,0.0,0.0,0.0,0.0,0.0,0.0,0.0,0.0,0.0,0.0,0.0,0.0,0.0,0.0,0.0,0.0,0.0,0.0,0.0,0.0,0.0,0.0,0.0,0.0,0.0,0.0,0.0,0.0,0.0,0.0,0.0,0.0,0.0,0.0,0.0,0.0,0.0,-1.8299,-1.8548,-1.8831,-1.9168,-1.8931,-1.8915,0.0,0.0,0.0,0.0,0.0,0.0,0.0,0.0,0.0,0.0,0.0,0.0,0.0,0.0,0.0,0.0,0.0,0.0,0.0,0.0,0.0,0.0,0.0,0.0,0.0,0.0,0.0,0.0,0.0,0.0,0.0,0.0,0.0,0.0,0.0,0.0,0.0,0.0,0.0,0.0,0.0,0.0,0.0,0.0,0.0,0.0,0.0,0.0,0.0,0.0,0.0,0.0,0.0,0.0,0.0,0.0,0.0,0.0,0.0,0.0,0.0,0.0,0.0,0.0,0.0,0.0,0.0,0.0,0.0,0.0,0.0,0.0,0.0,0.0,0.0,0.0,0.0,0.0,0.0,0.0,0.0,0.0,0.0,0.0,0.0,0.0,0.0,0.0,0.0,0.0,0.0,0.0,0.0,0.0,0.0,0.0,0.0,0.0,0.0,0.0,0.0,0.0,0.0,0.0,0.0,0.0,0.0,0.0,0.0,-1.8893,-1.9448,-1.985,-2.0117,-1.9675,-1.9483,0.0,0.0,0.0,0.0,0.0,0.0,0.0,0.0,0.0,0.0,0.0,0.0,0.0,0.0,0.0,0.0,0.0,0.0,0.0,0.0,0.0,0.0,0.0,0.0,0.0,0.0,0.0,0.0,0.0,0.0,0.0,0.0,0.0,0.0,0.0,0.0,0.0,0.0,0.0,0.0,0.0,0.0,0.0,0.0,0.0,0.0,0.0,0.0,0.0,0.0,0.0,0.0,0.0,0.0,0.0,0.0,0.0,0.0,0.0,0.0,0.0,0.0,0.0,0.0,0.0,0.0,0.0,0.0,0.0,0.0,0.0,0.0,0.0,0.0,0.0,0.0,0.0,0.0,0.0,0.0,0.0,0.0,0.0,0.0,0.0,0.0,0.0,0.0,0.0,0.0,0.0,0.0,0.0,0.0,0.0,0.0,0.0,0.0,0.0,0.0,0.0,0.0,0.0,0.0,0.0,0.0,0.0,0.0,-1.928,-2.0566,-2.1387,-2.1777,-2.1855,-2.0857,-2.0313,0.0,0.0,0.0,0.0,0.0,0.0,0.0,0.0,0.0,0.0,0.0,0.0,0.0,0.0,0.0,0.0,0.0,0.0,0.0,0.0,0.0,0.0,0.0,0.0,0.0,0.0,0.0,0.0,0.0,0.0,0.0,0.0,0.0,0.0,0.0,0.0,0.0,0.0,0.0,0.0,0.0,0.0,0.0,0.0,0.0,0.0,0.0,0.0,0.0,0.0,0.0,0.0,0.0,0.0,0.0,0.0,0.0,0.0,0.0,0.0,0.0,0.0,0.0,0.0,0.0,0.0,0.0,0.0,0.0,0.0,0.0,0.0,0.0,0.0,0.0,0.0,0.0,0.0,0.0,0.0,0.0,0.0,0.0,0.0,0.0,0.0,0.0,0.0,0.0,0.0,0.0,0.0,0.0,0.0,0.0,0.0,0.0,0.0,0.0,0.0,0.0,0.0,0.0,0.0,0.0,0.0,0.0,0.0,0.0,-2.1465,-2.1738,-2.1936,-2.1875,-2.158,-2.1111,0.0,0.0,0.0,0.0,0.0,0.0,0.0,0.0,0.0,0.0,0.0,0.0,0.0,0.0,0.0,0.0,0.0,0.0,0.0,0.0,0.0,0.0,0.0,0.0,0.0,0.0,0.0,0.0,0.0,0.0,0.0,0.0,0.0,0.0,0.0,0.0,0.0,0.0,0.0,0.0,0.0,0.0,0.0,0.0,0.0,0.0,0.0,0.0,0.0,0.0,0.0,0.0,0.0,0.0,0.0,0.0,0.0,0.0,0.0,0.0,0.0,0.0,0.0,0.0,0.0,0.0,0.0,0.0,0.0,0.0,0.0,0.0,0.0,0.0,0.0,0.0,0.0,0.0,0.0,0.0,0.0,0.0,0.0,0.0,0.0,0.0,0.0,0.0,0.0,0.0,0.0,0.0,0.0,0.0,0.0,0.0,0.0,0.0,0.0,0.0,0.0,0.0,0.0,0.0,0.0,0.0,0.0,0.0,0.0,-2.332,-2.332,-2.332,-2.332,-2.3164,-2.2484,-2.1153,0.0,0.0,0.0,0.0,0.0,0.0,0.0,0.0,0.0,0.0,0.0,0.0,0.0,0.0,0.0,0.0,0.0,0.0,0.0,0.0,0.0,0.0,0.0,0.0,0.0,0.0,0.0,0.0,0.0,0.0,0.0,0.0,0.0,0.0,0.0,0.0,0.0,0.0,0.0,0.0,0.0,0.0,0.0,0.0,0.0,0.0,0.0,0.0,0.0,0.0,0.0,0.0,0.0,0.0,0.0,0.0,0.0,0.0,0.0,0.0,0.0,0.0,0.0,0.0,0.0,0.0,0.0,0.0,0.0,0.0,0.0,0.0,0.0,0.0,0.0,0.0,0.0,0.0,0.0,0.0,0.0,0.0,0.0,0.0,0.0,0.0,0.0,0.0,0.0,0.0,0.0,0.0,0.0,0.0,0.0,0.0,0.0,0.0,0.0,0.0,0.0,0.0,0.0,0.0,0.0,0.0,0.0,0.0,-2.5888,-2.5966,-2.5966,-2.581,-2.5352,-2.4206,0.0,0.0,0.0,0.0,0.0,0.0,0.0,0.0,0.0,0.0,0.0,0.0,0.0,0.0,0.0,0.0,0.0,0.0,0.0,0.0,0.0,0.0,0.0,0.0,0.0,0.0,0.0,0.0,0.0,0.0,0.0,0.0,0.0,0.0,0.0,0.0,0.0,0.0,0.0,0.0,0.0,0.0,0.0,0.0,0.0,0.0,0.0,0.0,0.0,0.0,0.0,0.0,0.0,0.0,0.0,0.0,0.0,0.0,0.0,0.0,0.0,0.0,0.0,0.0,0.0,0.0,0.0,0.0,0.0,0.0,0.0,0.0,0.0,0.0,0.0,0.0,0.0,0.0,0.0,0.0,0.0,0.0,0.0,0.0,0.0,0.0,0.0,0.0,0.0,0.0,0.0,0.0,0.0,0.0,0.0,0.0,0.0,0.0,0.0,0.0,0.0,0.0,0.0,0.0,0.0,0.0,0.0,0.0,0.0,-2.8496,-2.9512,-2.9258,-2.7676,-2.6289,-2.5156,0.0,0.0,0.0,0.0,0.0,0.0,0.0,0.0,0.0,0.0,0.0,0.0,0.0,0.0,0.0,0.0,0.0,0.0,0.0,0.0,0.0,0.0,0.0,0.0,0.0,0.0,0.0,0.0,0.0,0.0,0.0,0.0,0.0,0.0,0.0,0.0,0.0,0.0,0.0,0.0,0.0,0.0,0.0,0.0,0.0,0.0,0.0,0.0,0.0,0.0,0.0,0.0,0.0,0.0,0.0,0.0,0.0,0.0,0.0,0.0,0.0,0.0,0.0,0.0,0.0,0.0,0.0,0.0,0.0,0.0,0.0,0.0,0.0,0.0,0.0,0.0,0.0,0.0,0.0,0.0,0.0,0.0,0.0,0.0,0.0,0.0,0.0,0.0,0.0,0.0,0.0,0.0,0.0,0.0,0.0,0.0,0.0,0.0,0.0,0.0,0.0,0.0,0.0,0.0,0.0,0.0,0.0,0.0,-2.7695,-2.9551,-3.1738,-3.2168,-3.0762,-2.8535,-2.6719,0.0,0.0,0.0,0.0,0.0,0.0,0.0,0.0,0.0,0.0,0.0,0.0,0.0,0.0,0.0,0.0,0.0,0.0,0.0,0.0,0.0,0.0,0.0,0.0,0.0,0.0,0.0,0.0,0.0,0.0,0.0,0.0,0.0,0.0,0.0,0.0,0.0,0.0,0.0,0.0,0.0,0.0,0.0,0.0,0.0,0.0,0.0,0.0,0.0,0.0,0.0,0.0,0.0,0.0,0.0,0.0,0.0,0.0,0.0,0.0,0.0,0.0,0.0,0.0,0.0,0.0,0.0,0.0,0.0,0.0,0.0,0.0,0.0,0.0,0.0,0.0,0.0,0.0,0.0,0.0,0.0,0.0,0.0,0.0,0.0,0.0,0.0,0.0,0.0,0.0,0.0,0.0,0.0,0.0,0.0,0.0,0.0,0.0,0.0,0.0,0.0,0.0,0.0,0.0,0.0,0.0,0.0,0.0,-2.8906,-2.9978,-3.3086,-3.459,-3.4141,-3.1211,-2.8457,0.0,0.0,0.0,0.0,0.0,0.0,0.0,0.0,0.0,0.0,0.0,0.0,0.0,0.0,0.0,0.0,0.0,0.0,0.0,0.0,0.0,0.0,0.0,0.0,0.0,0.0,0.0,0.0,0.0,0.0,0.0,0.0,0.0,0.0,0.0,0.0,0.0,0.0,0.0,0.0,0.0,0.0,0.0,0.0,0.0,0.0,0.0,0.0,0.0,0.0,0.0,0.0,0.0,0.0,0.0,0.0,0.0,0.0,0.0,0.0,0.0,0.0,0.0,0.0,0.0,0.0,0.0,0.0,0.0,0.0,0.0,0.0,0.0,0.0,0.0,0.0,0.0,0.0,0.0,0.0,0.0,0.0,0.0,0.0,0.0,0.0,0.0,0.0,0.0,0.0,0.0,0.0,0.0,0.0,0.0,0.0,0.0,0.0,0.0,0.0,0.0,0.0,0.0,0.0,0.0,0.0,0.0,0.0,-3.0215,-3.209,-3.416,-3.5195,-3.5098,-3.1504,-2.9059,0.0,0.0,0.0,0.0,0.0,0.0,0.0,0.0,0.0,0.0,0.0,0.0,0.0,0.0,0.0,0.0,0.0,0.0,0.0,0.0,0.0,0.0,0.0,0.0,0.0,0.0,0.0,0.0,0.0,0.0,0.0,0.0,0.0,0.0,0.0,0.0,0.0,0.0,0.0,0.0,0.0,0.0,0.0,0.0,0.0,0.0,0.0,0.0,-2.084,0.0,0.0,0.0,0.0,0.0,0.0,0.0,0.0,0.0,0.0,0.0,0.0,0.0,0.0,0.0,0.0,0.0,0.0,0.0,0.0,0.0,0.0,0.0,0.0,0.0,0.0,0.0,0.0,0.0,0.0,0.0,0.0,0.0,0.0,0.0,0.0,0.0,0.0,0.0,0.0,0.0,0.0,0.0,0.0,0.0,0.0,0.0,0.0,0.0,0.0,0.0,0.0,0.0,0.0,0.0,0.0,0.0,0.0,0.0,-3.0918,-3.3047,-3.4785,-3.5605,-3.5312,-3.2598,-3.0391,0.0,0.0,0.0,0.0,0.0,0.0,0.0,0.0,0.0,0.0,0.0,0.0,0.0,0.0,0.0,0.0,0.0,0.0,0.0,0.0,0.0,0.0,0.0,0.0,0.0,0.0,0.0,0.0,0.0,0.0,0.0,0.0,0.0,0.0,0.0,0.0,0.0,0.0,0.0,0.0,0.0,0.0,0.0,0.0,0.0,0.0,0.0,0.0,0.0,0.0,0.0,0.0,0.0,0.0,0.0,0.0,0.0,0.0,0.0,0.0,0.0,0.0,0.0,0.0,0.0,0.0,0.0,0.0,0.0,0.0,0.0,0.0,0.0,0.0,0.0,0.0,0.0,0.0,0.0,0.0,0.0,0.0,0.0,0.0,0.0,0.0,0.0,0.0,0.0,0.0,0.0,0.0,0.0,0.0,0.0,0.0,0.0,0.0,0.0,0.0,0.0,0.0,0.0,0.0,0.0,0.0,0.0,-2.9277,-3.1445,-3.375,-3.5254,-3.5879,-3.5566,-3.3769,-3.1855,-2.99,0.0,0.0,0.0,0.0,0.0,0.0,0.0,0.0,0.0,0.0,0.0,0.0,0.0,0.0,0.0,0.0,0.0,0.0,0.0,0.0,0.0,0.0,0.0,0.0,0.0,0.0,0.0,0.0,0.0,0.0,0.0,0.0,0.0,0.0,0.0,0.0,0.0,0.0,-1.9007,-1.967,0.0,0.0,0.0,0.0,0.0,0.0,0.0,0.0,-2.1602,0.0,0.0,0.0,0.0,0.0,0.0,0.0,0.0,0.0,0.0,0.0,0.0,0.0,0.0,0.0,0.0,0.0,0.0,0.0,0.0,0.0,0.0,0.0,0.0,0.0,0.0,0.0,0.0,0.0,0.0,0.0,0.0,0.0,0.0,0.0,0.0,0.0,0.0,0.0,0.0,0.0,0.0,0.0,0.0,0.0,0.0,0.0,0.0,0.0,0.0,0.0,0.0,0.0,0.0,0.0,0.0,-2.8574,-3.0039,-3.2344,-3.5488,-3.5879,-3.6172,-3.6387,-3.4082,-3.2129,-3.0664,0.0,0.0,0.0,0.0,0.0,0.0,0.0,0.0,0.0,0.0,0.0,0.0,0.0,0.0,0.0,0.0,0.0,0.0,0.0,0.0,0.0,0.0,0.0,0.0,0.0,0.0,0.0,0.0,0.0,0.0,0.0,0.0,0.0,0.0,0.0,0.0,0.0,0.0,0.0,-2.1172,-2.1602,0.0,0.0,0.0,0.0,0.0,0.0,0.0,0.0,-2.2266,0.0,0.0,0.0,0.0,0.0,0.0,0.0,0.0,0.0,0.0,0.0,0.0,0.0,0.0,0.0,0.0,0.0,0.0,0.0,0.0,0.0,0.0,0.0,0.0,0.0,0.0,0.0,0.0,0.0,0.0,0.0,0.0,0.0,0.0,0.0,0.0,0.0,0.0,0.0,0.0,0.0,0.0,0.0,0.0,0.0,0.0,0.0,0.0,0.0,0.0,0.0,0.0,0.0,0.0,0.0,-2.9492,-3.1094,-3.3223,-3.5898,-3.6035,-3.6113,-3.6289,-3.4238,-3.2422,0.0,0.0,0.0,0.0,0.0,0.0,0.0,0.0,0.0,0.0,0.0,0.0,0.0,0.0,0.0,0.0,0.0,0.0,0.0,0.0,0.0,0.0,0.0,0.0,0.0,0.0,0.0,0.0,0.0,0.0,0.0,0.0,0.0,0.0,0.0,0.0,0.0,0.0,0.0,0.0,-2.2402,-2.3184,-2.4902,0.0,0.0,0.0,0.0,0.0,0.0,-2.5156,-2.4414,0.0,0.0,0.0,0.0,0.0,0.0,0.0,0.0,0.0,0.0,0.0,0.0,0.0,0.0,0.0,0.0,0.0,0.0,0.0,0.0,0.0,0.0,0.0,0.0,0.0,0.0,0.0,0.0,0.0,0.0,0.0,0.0,0.0,0.0,0.0,0.0,0.0,0.0,0.0,0.0,0.0,0.0,0.0,0.0,0.0,0.0,0.0,0.0,0.0,0.0,0.0,0.0,0.0,0.0,0.0,-3.0156,-3.209,-3.4101,-3.6172,-3.6269,-3.6269,-3.623,-3.4258,-3.2461,0.0,0.0,0.0,0.0,0.0,0.0,0.0,0.0,0.0,0.0,0.0,0.0,0.0,0.0,0.0,0.0,0.0,0.0,0.0,0.0,0.0,0.0,0.0,0.0,0.0,0.0,0.0,0.0,0.0,0.0,0.0,0.0,0.0,0.0,0.0,0.0,0.0,0.0,0.0,0.0,0.0,-2.5152,-2.6671,-2.6645,0.0,0.0,0.0,0.0,-2.6512,-2.6816,0.0,0.0,0.0,0.0,0.0,0.0,0.0,0.0,0.0,0.0,0.0,0.0,0.0,0.0,0.0,0.0,0.0,0.0,0.0,0.0,0.0,0.0,0.0,0.0,0.0,0.0,0.0,0.0,0.0,0.0,0.0,0.0,0.0,0.0,0.0,0.0,0.0,0.0,0.0,0.0,0.0,0.0,0.0,0.0,0.0,0.0,0.0,0.0,0.0,0.0,0.0,0.0,0.0,0.0,0.0,0.0,-3.0195,-3.2656,-3.498,-3.7031,-3.7148,-3.7148,-3.7109,-3.4004,-3.1875,0.0,0.0,0.0,0.0,0.0,0.0,0.0,0.0,0.0,0.0,0.0,0.0,0.0,0.0,0.0,0.0,0.0,0.0,0.0,0.0,0.0,0.0,0.0,0.0,0.0,0.0,0.0,0.0,0.0,0.0,0.0,0.0,0.0,0.0,0.0,0.0,0.0,0.0,0.0,0.0,0.0,-2.7585,-2.85,-2.8906,-2.884,0.0,0.0,-2.9235,-2.9141,-2.9235,0.0,0.0,0.0,0.0,0.0,0.0,0.0,0.0,0.0,0.0,0.0,0.0,0.0,0.0,0.0,0.0,0.0,0.0,0.0,0.0,0.0,0.0,0.0,0.0,0.0,0.0,0.0,0.0,0.0,0.0,0.0,0.0,0.0,0.0,0.0,0.0,0.0,0.0,0.0,0.0,0.0,0.0,0.0,0.0,0.0,0.0,0.0,0.0,0.0,0.0,0.0,0.0,0.0,0.0,0.0,-2.916,-3.0644,-3.3867,-3.6113,-3.7246,-3.7305,-3.7305,-3.7285,-3.4199,-3.2012,0.0,0.0,0.0,0.0,0.0,0.0,0.0,0.0,0.0,0.0,0.0,0.0,0.0,0.0,0.0,0.0,0.0,0.0,0.0,0.0,0.0,0.0,0.0,0.0,0.0,0.0,0.0,0.0,0.0,0.0,0.0,0.0,0.0,0.0,0.0,0.0,0.0,0.0,0.0,0.0,0.0,0.0,-3.1144,-3.0785,0.0,0.0,0.0,-3.1564,-3.1722,0.0,0.0,0.0,0.0,0.0,0.0,0.0,0.0,0.0,0.0,0.0,0.0,0.0,0.0,0.0,0.0,0.0,0.0,0.0,0.0,0.0,0.0,0.0,0.0,0.0,0.0,0.0,0.0,0.0,0.0,0.0,0.0,0.0,0.0,0.0,0.0,0.0,0.0,0.0,0.0,0.0,0.0,0.0,0.0,0.0,0.0,0.0,0.0,0.0,0.0,0.0,0.0,0.0,0.0,0.0,0.0,0.0,-3.0957,-3.4805,-3.7031,-3.7441,-3.7559,-3.7559,-3.7402,-3.4941,0.0,0.0,0.0,0.0,0.0,0.0,0.0,0.0,0.0,0.0,0.0,0.0,0.0,0.0,0.0,0.0,0.0,0.0,0.0,0.0,0.0,0.0,0.0,0.0,0.0,0.0,0.0,-2.0758,0.0,0.0,0.0,0.0,0.0,0.0,0.0,0.0,0.0,0.0,0.0,0.0,0.0,0.0,-3.1386,-3.3442,-3.2678,-3.267,0.0,0.0,-3.3027,-3.3343,-3.4223,-3.3856,0.0,0.0,0.0,0.0,0.0,0.0,0.0,0.0,0.0,0.0,0.0,0.0,0.0,0.0,0.0,0.0,0.0,0.0,0.0,0.0,0.0,0.0,0.0,0.0,0.0,0.0,0.0,0.0,0.0,0.0,0.0,0.0,0.0,0.0,0.0,0.0,0.0,0.0,0.0,0.0,0.0,0.0,0.0,0.0,0.0,0.0,0.0,0.0,0.0,0.0,0.0,0.0,0.0,0.0,-3.043,-3.1016,-3.5098,-3.748,-3.7871,-3.8281,-3.8301,-3.7871,-3.6523,-3.4434,0.0,0.0,0.0,0.0,0.0,0.0,0.0,0.0,0.0,0.0,0.0,0.0,0.0,0.0,0.0,0.0,0.0,0.0,0.0,0.0,0.0,0.0,0.0,0.0,0.0,0.0,0.0,0.0,0.0,0.0,0.0,0.0,0.0,0.0,0.0,0.0,0.0,0.0,0.0,0.0,0.0,-3.2319,-3.4706,-3.491,-3.514,0.0,0.0,-3.3189,-3.3384,-3.4118,-3.3882,-3.1289,0.0,0.0,0.0,0.0,0.0,0.0,0.0,0.0,0.0,0.0,0.0,0.0,0.0,0.0,0.0,0.0,0.0,0.0,0.0,0.0,0.0,0.0,0.0,0.0,0.0,0.0,0.0,0.0,0.0,0.0,0.0,0.0,0.0,0.0,0.0,0.0,0.0,0.0,0.0,0.0,0.0,0.0,0.0,0.0,0.0,0.0,0.0,0.0,0.0,0.0,0.0,0.0,0.0,-3.125,-3.1719,-3.6152,-3.8555,-3.873,-3.916,-3.916,-3.873,-3.7226,-3.5,0.0,0.0,0.0,0.0,0.0,0.0,0.0,0.0,0.0,0.0,0.0,0.0,0.0,0.0,0.0,0.0,0.0,0.0,0.0,0.0,0.0,0.0,0.0,0.0,0.0,0.0,0.0,0.0,-2.6535,-2.5754,-2.3993,0.0,0.0,0.0,0.0,0.0,0.0,0.0,0.0,0.0,0.0,-3.4091,-3.7487,-3.6404,0.0,0.0,-3.6289,-3.5355,-3.5409,-3.5541,-3.4777,-3.2285,-3.0618,0.0,0.0,0.0,0.0,0.0,0.0,0.0,0.0,0.0,0.0,0.0,0.0,0.0,0.0,0.0,0.0,0.0,0.0,0.0,0.0,0.0,0.0,0.0,0.0,0.0,0.0,0.0,0.0,0.0,0.0,0.0,0.0,0.0,0.0,0.0,0.0,0.0,0.0,0.0,0.0,0.0,0.0,0.0,0.0,0.0,0.0,0.0,0.0,0.0,0.0,0.0,0.0,-3.1601,-3.2248,-3.6562,-3.8887,-3.9023,-3.959,-3.9687,-3.9199,-3.8047,-3.6074,0.0,0.0,0.0,0.0,0.0,0.0,0.0,0.0,0.0,0.0,0.0,0.0,0.0,0.0,0.0,0.0,0.0,0.0,0.0,0.0,0.0,0.0,0.0,0.0,0.0,0.0,0.0,0.0,-2.8061,-2.703,-2.4941,0.0,0.0,0.0,0.0,0.0,0.0,0.0,0.0,0.0,0.0,-3.5065,-3.823,-3.675,-3.578,-3.7167,-3.6309,-3.5499,-3.5562,-3.525,-3.4472,-3.2847,0.0,0.0,0.0,0.0,0.0,0.0,0.0,0.0,0.0,0.0,0.0,0.0,0.0,0.0,0.0,0.0,0.0,0.0,0.0,0.0,0.0,0.0,0.0,0.0,0.0,0.0,0.0,0.0,0.0,0.0,-2.3769,0.0,0.0,0.0,0.0,0.0,0.0,0.0,0.0,0.0,0.0,0.0,0.0,0.0,0.0,0.0,0.0,0.0,0.0,0.0,0.0,0.0,0.0,-3.1367,-3.2268,-3.6074,-3.8203,-3.8652,-3.9453,-3.9707,-3.9258,-3.916,-3.793,-3.5351,0.0,0.0,0.0,0.0,0.0,0.0,0.0,0.0,0.0,0.0,0.0,0.0,0.0,0.0,0.0,0.0,0.0,0.0,0.0,0.0,0.0,0.0,0.0,0.0,0.0,0.0,-2.3142,-2.4253,-2.5194,0.0,0.0,0.0,0.0,0.0,0.0,0.0,0.0,0.0,0.0,-3.3555,-3.5103,-3.641,-3.5739,-3.5129,-3.5103,-3.372,-3.2702,-3.2944,-3.2603,-3.2385,0.0,0.0,0.0,0.0,0.0,0.0,0.0,0.0,0.0,0.0,0.0,0.0,0.0,0.0,0.0,0.0,0.0,0.0,0.0,0.0,0.0,0.0,0.0,0.0,0.0,0.0,0.0,-2.6582,-2.6582,0.0,0.0,0.0,0.0,0.0,0.0,0.0,0.0,0.0,0.0,0.0,-3.0039,-3.0449,0.0,0.0,0.0,0.0,0.0,0.0,0.0,0.0,0.0,0.0,0.0,0.0,-3.2578,-3.3574,-3.7266,-3.957,-4.0293,-4.0586,-4.0664,-4.0508,-4.0234,-3.8613,-3.5488,0.0,0.0,0.0,0.0,0.0,0.0,0.0,0.0,0.0,0.0,0.0,0.0,0.0,0.0,0.0,0.0,0.0,0.0,0.0,0.0,0.0,0.0,0.0,0.0,0.0,-2.7481,0.0,0.0,0.0,0.0,0.0,0.0,0.0,0.0,0.0,0.0,0.0,-3.0628,-3.4022,-3.3826,-3.424,-3.672,-3.6201,-3.6014,0.0,0.0,0.0,0.0,0.0,0.0,0.0,0.0,0.0,0.0,0.0,0.0,0.0,0.0,-2.978,-2.8318,-2.8931,-2.9683,-2.9545,0.0,0.0,0.0,0.0,0.0,0.0,0.0,0.0,0.0,0.0,0.0,0.0,0.0,0.0,-2.8589,0.0,-2.8594,0.0,0.0,0.0,0.0,0.0,0.0,0.0,0.0,-3.0937,-3.1836,-3.2226,-3.2656,-3.2871,0.0,-3.2246,-3.0508,0.0,0.0,0.0,0.0,0.0,0.0,0.0,0.0,-3.3066,-3.418,-3.791,-4.0234,-4.0918,-4.1367,-4.1543,-4.1387,-4.082,-3.9258,-3.6582,-3.502,-3.3233,0.0,0.0,0.0,0.0,0.0,0.0,0.0,0.0,0.0,0.0,0.0,0.0,0.0,0.0,0.0,0.0,0.0,0.0,0.0,0.0,0.0,0.0,0.0,-3.0462,0.0,0.0,0.0,0.0,0.0,0.0,0.0,0.0,0.0,-3.0952,-3.121,-3.2302,-3.5075,-3.4974,-3.4961,-3.5636,0.0,0.0,0.0,0.0,0.0,0.0,0.0,-3.1562,-3.1016,-3.1544,-3.2352,-3.3342,-3.3978,-3.4235,-3.3958,0.0,0.0,-3.1187,-3.1525,-3.2275,-3.2137,-3.182,-3.1641,-3.1934,-3.2271,-3.2649,0.0,0.0,0.0,0.0,0.0,0.0,0.0,0.0,-3.1055,-3.0351,0.0,-3.0488,0.0,0.0,0.0,0.0,0.0,-3.0723,0.0,0.0,-3.4961,-3.5976,-3.4863,-3.5254,-3.5488,-3.541,-3.3848,-3.3066,-3.2969,-3.2168,0.0,0.0,0.0,0.0,0.0,0.0,-3.2953,-3.4316,-3.8027,-4.0156,-4.0625,-4.1797,-4.2226,-4.1895,-4.1054,-4.0053,-3.8851,-3.6907,-3.6102,-3.6851,-3.2711,0.0,0.0,0.0,0.0,0.0,0.0,0.0,0.0,0.0,0.0,0.0,0.0,0.0,0.0,0.0,0.0,0.0,0.0,0.0,0.0,-3.2298,0.0,0.0,0.0,0.0,0.0,0.0,0.0,0.0,0.0,0.0,-3.2211,-3.3398,-3.4513,-3.4841,0.0,0.0,0.0,0.0,-3.5054,-3.2389,-3.1525,-3.1387,-3.1486,-3.2096,-3.3119,-3.4629,0.0,0.0,-3.8476,-3.7213,-3.6224,-3.6229,-3.7848,-3.7922,-3.397,-3.3348,-3.3446,-3.3779,-3.4211,-3.4322,-3.4362,-3.4943,-3.5178,-3.3555,0.0,0.0,0.0,0.0,-3.2129,-3.2891,-3.4101,-3.4101,-3.3711,-3.3066,-3.3437,0.0,0.0,0.0,0.0,0.0,0.0,-3.3105,-3.4297,-3.5312,-3.6191,-3.7012,-3.7461,-3.7812,-3.8086,-3.7598,-3.7539,-3.7832,-3.7285,-3.4629,-3.0078,0.0,0.0,0.0,0.0,-3.4922,-3.6855,-3.9453,-4.1172,-4.1875,-4.2246,-4.2922,-4.4028,-4.2846,-4.2609,-4.3422,-4.2457,-4.0431,-3.7232,-3.7659,0.0,0.0,0.0,0.0,0.0,0.0,0.0,0.0,0.0,0.0,0.0,0.0,0.0,0.0,0.0,0.0,0.0,0.0,0.0,-3.326,-3.5208,-3.5077,0.0,0.0,0.0,0.0,0.0,0.0,0.0,0.0,0.0,-3.4625,-3.3951,-3.3772,0.0,0.0,-3.4378,-3.4487,-3.6237,-3.77,-3.806,-3.827,0.0,-3.958,-3.9477,-3.9237,-3.9153,-3.9684,-4.0215,-4.0356,-4.0225,-4.0131,-4.0111,-4.0901,-4.107,-4.0084,-3.9392,-3.9152,-3.9273,-3.9272,-3.9158,-3.9178,-3.9694,-4.0048,-3.6934,-3.584,-3.4141,-3.373,-3.4199,-3.4199,-3.4941,-3.6152,-3.6152,-3.5723,-3.5019,-3.5508,-3.459,-3.2676,-3.2656,0.0,0.0,0.0,-3.4766,-3.6406,-3.6582,-3.7383,-3.8691,-3.9141,-3.957,-3.9961,-3.9805,-3.9961,-4.0371,-3.9238,-3.6973,-3.3594,0.0,0.0,-3.2832,-3.4746,-3.6543,-3.8203,-4.0312,-4.1836,-4.2656,-4.2851,-4.3639,-4.5147,-4.4437,-4.4512,-4.5595,-4.5386,-4.3777,-4.0804,-4.1226,-3.9602,0.0,0.0,0.0,0.0,0.0,0.0,0.0,0.0,0.0,0.0,0.0,-2.9388,-2.8153,0.0,0.0,0.0,-3.4751,-3.5569,-3.6194,-3.694,0.0,0.0,0.0,0.0,0.0,0.0,0.0,-3.3488,-3.5051,-3.6287,-3.6472,-3.6332,-3.6144,-3.597,-3.6371,-3.6724,-3.6988,0.0,-4.0072,-4.0822,-4.0522,-4.0473,-4.1304,-4.1631,-4.1844,-4.2241,-4.2364,-4.2509,-4.2645,-4.2917,-4.3049,-4.3069,-4.3302,-4.3539,-4.3702,-4.3505,-4.2932,-4.2235,-4.1898,-4.1715,-4.1715,-4.2209,-4.2588,-3.9922,-3.9551,-3.5605,-3.4668,-3.5723,-3.5742,-3.6426,-3.748,-3.75,-3.6816,-3.5801,-3.6914,-3.6094,-3.3848,-3.3828,0.0,-3.5703,-3.5703,-3.6562,-3.8086,-3.8496,-3.9141,-4.0,-4.0391,-4.082,-4.125,-4.0859,-4.0879,-4.1172,-3.9277,-3.8418,-3.8652,-3.7891,-3.6621,-3.5039,-3.6465,-3.7754,-3.8691,-4.0664,-4.2148,-4.3105,-4.3516,-4.4377,-4.5782,-4.582,-4.6054,-4.6624,-4.6522,-4.6396,-4.6173,-4.3966,-4.2483,-4.1978,0.0,0.0,0.0,0.0,0.0,0.0,0.0,0.0,0.0,0.0,0.0,0.0,0.0,0.0,0.0,-3.8791,0.0,-3.9922,-3.8107,0.0,0.0,0.0,-3.6814,-3.744,-3.7584,-3.7614,-3.7384,0.0,0.0,-3.7957,-3.9837,-4.0529,-3.872,-4.0938,-4.2037,-4.0351,-4.1657,-4.248,-4.1904,-4.0595,-3.9718,-4.0494,-4.1407,-4.2994,-4.4696,-4.4869,-4.4981,-4.5117,-4.5258,-4.5242,-4.4948,-4.5105,-4.5209,-4.5664,-4.5623,-4.5116,-4.3241,-4.2875,-4.2822,-4.2921,-4.3279,-4.336,-4.0195,-3.9805,-3.8789,-3.8535,-3.8828,-3.8828,-3.9004,-3.9277,-3.9277,-3.8906,-3.832,-3.8613,-3.8223,-3.7344,-3.7344,-3.7695,-3.8281,-3.8301,-3.8691,-3.9414,-3.9531,-4.0039,-4.0859,-4.0976,-4.1406,-4.209,-4.2031,-4.2031,-4.2109,-4.1621,-4.0762,-3.9629,-3.9375,-3.8242,-3.6309,-3.6934,-3.8066,-3.957,-4.041,-4.1719,-4.3496,-4.3652,-4.5088,-4.7971,-4.7626,-4.8674,-5.1248,-5.0288,-4.8919,-4.7513,-4.7438,-4.5644,-4.1877,-4.0537,0.0,0.0,0.0,0.0,0.0,0.0,0.0,0.0,0.0,-3.3212,-3.1645,0.0,-3.5761,0.0,-3.9994,-4.2591,-4.2615,-4.1831,0.0,0.0,-3.8201,-3.7802,-3.8282,-4.0482,-4.1203,-3.9119,-4.1636,-4.2724,-4.048,-4.2655,-4.4184,-4.338,-4.33,-4.3192,-4.2798,-4.5452,-4.6945,-4.5761,-4.6866,-4.7835,-4.6282,-4.6842,-4.7564,-4.8574,-4.8705,-4.8314,-4.7151,-4.723,-4.7013,-4.5855,-4.5795,-4.5998,-4.6182,-4.6202,-4.6018,-4.5528,-4.5388,-4.539,-4.5369,-4.5451,-4.5452,-4.123,-4.1035,-4.1016,-4.1016,-4.0976,-4.0215,-3.9883,-3.9883,-3.9883,-3.9746,-3.9512,-3.9512,-3.9375,-3.918,-3.916,-3.9297,-3.9512,-3.9512,-3.9746,-4.0176,-4.0371,-4.0918,-4.1719,-4.1933,-4.2363,-4.2988,-4.2988,-4.2988,-4.3008,-4.3008,-4.25,-4.1601,-4.1601,-4.0605,-3.8711,-3.7754,-3.7871,-3.9004,-4.0195,-4.1738,-4.3613,-4.3691,-4.4926,-4.7223,-4.7094,-4.7962,-5.0193,-4.9397,-4.8216,-4.6688,-4.686,-4.5589,-4.2535,-4.1174,-3.9345,0.0,0.0,0.0,0.0,0.0,0.0,0.0,0.0,0.0,0.0,0.0,-3.8599,-3.8791,-4.2327,-4.4299,-4.3601,-4.3103,-4.252,-4.1891,-4.1597,-4.1519,-4.1535,-4.3269,-4.4013,-4.2795,-4.4403,-4.5194,-4.409,-4.5822,-4.7061,-4.6457,-4.7062,-4.7148,-4.6229,-4.7749,-4.8611,-4.8067,-4.9442,-5.0391,-4.9499,-4.9855,-5.0303,-5.0475,-4.9975,-4.9113,-4.8288,-4.7842,-4.7346,-4.6495,-4.666,-4.6947,-4.6947,-4.6947,-4.6947,-4.6947,-4.6947,-4.6721,-4.6187,-4.6023,-4.6023,-4.2422,-4.2422,-4.2422,-4.2422,-4.2305,-4.084,-4.0215,-4.0215,-4.0215,-4.0215,-4.0215,-4.0215,-4.0215,-4.0215,-4.0215,-4.0215,-4.0215,-4.0215,-4.041,-4.0781,-4.1152,-4.1758,-4.2519,-4.2891,-4.3301,-4.3691,-4.3691,-4.3691,-4.3691,-4.3691,-4.3594,-4.3398,-4.3379,-4.2539,-4.082,-3.8594,-3.7637,-3.8027,-4.0098,-4.1954,-4.3566,-4.3389,-4.403,-4.5431,-4.5544,-4.5943,-4.6747,-4.6752,-4.6295,-4.5381,-4.4789,-4.4333,-4.3986,-4.1605,-3.985,0.0,-3.7012,0.0,0.0,0.0,0.0,0.0,0.0,0.0,0.0,-4.0812,-4.1976,-4.3229,-4.4948,-4.5573,-4.4419,-4.3911,-4.4002,-4.4953,-4.5665,-4.5938,-4.5523,-4.5819,-4.6233,-4.6713,-4.6238,-4.6342,-4.7235,-4.8697,-4.9307,-4.8797,-5.052,-5.1337,-4.9824,-4.9567,-4.9964,-4.9986,-4.9864,-5.0277,-5.0779,-5.119,-5.1523,-5.1368,-5.0479,-4.9311,-4.9456,-4.8366,-4.7442,-4.7462,-4.7547,-4.7631,-4.7672,-4.7651,-4.7651,-4.761,-4.761,-4.7299,-4.6373,-4.6127,-4.58,-4.2422,-4.2422,-4.2422,-4.2422,-4.2402,-4.207,-4.1953,-4.1953,-4.1953,-4.1953,-4.1953,-4.1953,-4.1953,-4.1953,-4.1953,-4.1933,-4.1953,-4.1953,-4.1992,-4.207,-4.2148,-4.2461,-4.2949,-4.3047,-4.3301,-4.3691,-4.3691,-4.3691,-4.3691,-4.3691,-4.3008,-4.168,-4.166,-4.0781,-3.9141,0.0,0.0,0.0,-4.0234,-4.1854,-4.3082,-4.1875,-4.2394,-4.5022,-4.5138,0.0,-4.7245,-4.6944,-4.6631,-4.6415,-4.591,0.0,0.0,0.0,0.0,0.0,0.0,0.0,0.0,0.0,0.0,0.0,-4.1784,-4.1557,-4.1533,-4.2169,-4.3433,-4.5718,-4.6343,-4.7161,-4.8531,-4.8216,-4.7975,-4.8197,-4.7643,-4.729,-4.7499,-4.7269,-4.7269,-4.7672,-4.7636,-4.7645,-4.8012,-4.9672,-5.0862,-5.0762,-5.1924,-5.2512,-5.221,-5.3214,-5.3828,-5.3072,-5.2202,-5.1738,-5.1934,-5.2408,-5.2811,-5.251,-5.2352,-5.2013,-5.1832,-5.0586,-4.9562,-4.9459,-4.8582,-4.7713,-4.7713,-4.7672,-4.7734,-4.7693,-4.7693,-4.7631,-4.7382,-4.7341,-4.7278,-4.3047,0.0,-4.3047,-4.3047,0.0,-4.3066,-4.3066,-4.3027,-4.2598,-4.2422,-4.2422,-4.2422,-4.2422,-4.2422,-4.2422,-4.2422,-4.2441,-4.2656,-4.2754,-4.2773,-4.3203,-4.3516,-4.373,-4.3945,-4.4141,-4.4355,-4.4355,-4.4355,-4.4336,-4.416,-4.3613,-4.2773,-4.34,-4.3293,-4.2483,-4.3207,-4.2755,-4.1171,-4.1983,-4.3546,-4.5729,-4.5036,-4.5192,-4.6464,-4.6536,0.0,0.0,0.0,0.0,0.0,0.0,0.0,0.0,0.0,0.0,-4.5501,-4.4539,-4.4275,-4.502,-4.5116,-4.5549,-4.6607,-4.692,-4.6391,-4.4828,-4.615,-4.7738,-4.9277,-4.9469,-4.9998,-5.1297,-5.103,-5.0755,-5.099,-5.0346,-4.9782,-4.9333,-4.909,-4.9135,-4.956,-4.9672,-4.974,-5.0009,-5.1113,-5.2086,-5.2372,-5.3039,-5.3872,-5.4775,-5.4889,-5.4872,-5.5099,-5.4965,-5.4408,-5.3787,-5.4639,-5.495,-5.4382,-5.4069,-5.3756,-5.2967,-5.1572,-5.0365,-4.9563,-4.8777,-4.8355,-4.8355,-4.8376,-4.8376,-4.8355,-4.8376,-4.8355,-4.8334,-4.8003,-4.7693,-4.3691,-4.3691,-4.3691,-4.3691,-4.3691,-4.3691,-4.3691,-4.3652,0.0,0.0,0.0,-4.2656,-4.2656,-4.2656,-4.2656,-4.2656,-4.2676,-4.3105,-4.332,-4.3359,-4.4141,-4.4512,-4.4531,-4.4863,-4.5039,-4.5039,-4.5039,-4.5039,-4.5019,-4.4668,-4.4512,-4.464,-4.5573,-4.6269,-4.6654,-4.8157,-4.7753,-4.5269,-4.45,-4.5638,-4.852,-4.8411,-4.8186,-4.8134,-4.8018,-4.7866,-4.7647,-4.7545,-4.7497,-4.7497,-4.7088,-4.6992,-4.7233,-4.6872,-4.6559,-4.6415,-4.6326,-4.6968,-4.8243,-4.8339,-4.9109,-5.0864,-5.1465,-5.084,-4.8628,-5.0431,-5.185,-5.2379,-5.2427,-5.2596,-5.3029,-5.2764,-5.2716,-5.3149,-5.2812,-5.2149,-5.1373,-5.0887,-5.0941,-5.1454,-5.1181,-5.1473,-5.2175,-5.2658,-5.321,-5.3952,-5.4429,-5.5321,-5.6783,-5.6075,-5.5622,-5.6636,-5.6966,-5.6939,-5.6115,-5.6882,-5.7368,-5.5878,-5.5596,-5.5135,-5.3766,-5.2196,-5.08,-5.0117,-4.9405,-4.9061,-4.9038,-4.8997,-4.9059,-4.9059,-4.9059,-4.9059,-4.8997,-4.8396,-4.7858,-4.3691,-4.3691,-4.3691,-4.3691,-4.3691,-4.3691,-4.3691,-4.3691,-4.3574,-4.3516,-4.3535,-4.3516,-4.3535,-4.3535,-4.3535,-4.3516,-4.3555,-4.4004,-4.4219,-4.4238,-4.4707,-4.4941,-4.4941,-4.5,-4.5039,-4.5039,-4.5039,-4.5039,-4.5019,-4.4961,-4.4941,-4.4922,-4.5117,-4.6048,-4.7486,-4.8801,-4.9971,-5.0857,-4.7569,-4.664,-4.8163,-4.6788,-4.6772,-4.8171,-4.7929,-4.7782,-4.8171,-4.781,-4.7497,-4.7497,-4.7425,-4.8002,-4.9325,-4.9373,-4.9902,-5.1153,-5.1273,-5.1393,-5.1586,-5.161,-5.173,-5.2043,-5.2548,-5.2668,-5.2331,-5.2211,-5.2403,-5.2884,-5.2956,-5.298,-5.3077,-5.3365,-5.3582,-5.3702,-5.3654,-5.3648,-5.3799,-5.2751,-5.206,-5.252,-5.1388,-5.1366,-5.2885,-5.338,-5.4233,-5.5743,-5.6333,-5.6877,-5.7745,-5.7715,-5.7545,-5.7843,-5.8222,-5.8397,-5.7847,-5.8691,-5.8437,-5.6921,-5.6691,-5.6643,-5.6041,-5.3782,-5.2254,-5.3101,-5.0968,-4.938,-4.9144,-4.9059,-4.9059,-4.9059,-4.9059,-4.9059,-4.9017,-4.8541,-4.821,-4.3691,-4.3691,-4.3691,-4.3691,-4.3691,-4.3691,-4.3691,-4.3691,-4.3691,-4.3691,-4.3691,-4.3691,-4.3691,-4.3691,-4.3691,-4.3848,-4.4101,-4.4531,-4.4883,-4.5117,-4.5527,-4.5723,-4.5723,-4.5723,-4.5723,-4.5723,-4.5723,-4.5723,-4.5703,-4.5746,-4.5713,-4.5779,-4.7127,-4.8954,-5.1049,-5.2048,-5.2881,-5.3794,-5.0636,-4.9691,-5.1131,-5.0715,-5.0865,-5.1706,-5.1754,-5.1898,-5.2139,-5.1922,-5.1778,-5.1778,-5.1778,-5.2115,-5.2812,-5.286,-5.3197,-5.3894,-5.3702,-5.3534,-5.3534,-5.3293,-5.3101,-5.3125,-5.3341,-5.3485,-5.3461,-5.3245,-5.3221,-5.3437,-5.3485,-5.3461,-5.3485,-5.3678,-5.3918,-5.4231,-5.4255,-5.4471,-5.4852,-5.4461,-5.36,-5.3,-5.3046,-5.3241,-5.3415,-5.4571,-5.5758,-5.7344,-5.7991,-5.8591,-5.9231,-5.9092,-5.8486,-5.779,-5.8334,-5.8175,-5.7035,-5.829,-5.8525,-5.7218,-5.7692,-5.7795,-5.7194,-5.5251,-5.4197,-5.3071,-5.1431,-5.0294,-4.9401,-4.9059,-4.9059,-4.9059,-4.9059,-4.8997,-4.8728,-4.8169,-4.7609,-4.4004,-4.4004,-4.4004,-4.4004,-4.4004,-4.4004,-4.4004,-4.4004,-4.4004,-4.4004,-4.3984,-4.3808,-4.3691,-4.3711,-4.3808,-4.4062,-4.4433,-4.4941,-4.5351,-4.5683,-4.6113,-4.6308,-4.6308,-4.6308,-4.6396,-4.6483,-4.6464,-4.6483,-4.6619,-4.665,-4.6663,-4.7032,-4.9464,-5.181,-5.3836,-5.4611,-5.5189,-5.5452,-5.3387,-5.2894,-5.4107,-5.4592,-5.4832,-5.5001,-5.5217,-5.5458,-5.5554,-5.5458,-5.5385,-5.5385,-5.5385,-5.5385,-5.5385,-5.5385,-5.5385,-5.5361,-5.5025,-5.4784,-5.476,-5.4399,-5.4183,-5.4159,-5.4159,-5.4159,-5.4183,-5.4183,-5.4039,-5.387,-5.3918,-5.3991,-5.4015,-5.4135,-5.4351,-5.4736,-5.4784,-5.5001,-5.5482,-5.5578,-5.5159,-5.4083,-5.4941,-5.5209,-5.4541,-5.5787,-5.7491,-5.8526,-5.9341,-5.996,-6.0276,-6.0068,-5.9089,-5.8033,-5.8443,-5.8578,-5.6055,-5.7692,-5.8603,-5.7218,-5.8266,-5.8109,-5.6956,-5.6239,-5.5264,-5.2625,-5.1542,-5.0741,-4.9607,-4.9411,-4.9369,-4.9328,-4.9287,-4.908,-4.85,-4.7962,-4.7134,-4.4902,-4.4902,-4.4863,-4.4902,-4.4863,-4.4883,-4.4863,-4.4863,-4.4902,-4.4902,-4.4785,-4.4062,-4.373,-4.3769,-4.4141,-4.4375,-4.4512,-4.5254,-4.5644,-4.5723,-4.6113,-4.6308,-4.6308,-4.6308,-4.6571,-4.6832,-4.692,-4.7094,-4.7441,-4.7554,-4.7794,-4.8462,-5.0925,-5.2524,-5.322,-5.4737,-5.5738,-5.6076,-5.5398,-5.5087,-5.5265,-5.5289,-5.5554,-5.6083,-5.5626,-5.5626,-5.6107,-5.5674,-5.5409,-5.5385,-5.5433,-5.5409,-5.5409,-5.5409,-5.5409,-5.5409,-5.5361,-5.5313,-5.5313,-5.5289,-5.5193,-5.5241,-5.5193,-5.5193,-5.5193,-5.5217,-5.4832,-5.4183,-5.4279,-5.452,-5.4568,-5.4928,-5.5193,-5.5289,-5.5313,-5.553,-5.6035,-5.6155,-5.6245,-5.6646,-5.6542,-5.6319,-5.5402,-5.6884,-5.8594,-5.9595,-6.0088,-6.0507,-6.0562,-6.0422,-5.9831,-5.8503,-5.8817,-5.9273,-5.8756,-5.9095,-5.8986,-5.7631,-5.8315,-5.8074,-5.6245,-5.5009,-5.4007,-5.2839,-5.1274,-5.0477,-5.0248,-5.0259,-5.0052,-4.9659,-4.9514,-4.9369,-4.8645,-4.821,-4.7669,-4.5039,-4.5039,-4.5039,-4.5039,-4.5039,-4.5039,-4.5039,-4.5039,-4.5039,-4.5039,-4.5039,-4.4902,-4.4726,-4.4512,-4.4687,-4.4902,-4.5176,-4.5508,-4.582,-4.6035,-4.623,-4.6308,-4.6308,-4.6308,-4.6571,-4.7007,-4.7007,-4.7268,-4.7701,-4.822,-4.9144,-5.0485,-5.2059,-5.3303,-5.4288,-5.5423,-5.6311,-5.6605,-5.6468,-5.6371,-5.6323,-5.6035,-5.5987,-5.6203,-5.6299,-5.6444,-5.666,-5.6468,-5.6347,-5.6371,-5.6347,-5.6371,-5.6347,-5.6371,-5.6347,-5.6347,-5.6059,-5.5746,-5.5409,-5.5385,-5.5385,-5.5385,-5.5385,-5.5385,-5.5385,-5.5385,-5.5193,-5.4904,-5.4952,-5.5073,-5.5097,-5.5265,-5.553,-5.5818,-5.589,-5.6107,-5.6636,-5.6708,-5.6558,-5.6125,-5.681,-5.7114,-5.6596,-5.8136,-5.9798,-6.0552,-6.0856,-6.1055,-6.1296,-6.1121,-6.0756,-6.0391,-6.0417,-5.9786,-5.8936,-5.9736,-5.986,-5.9568,-5.8987,-5.7919,-5.7119,-5.5669,-5.4622,-5.3051,-5.1982,-5.1115,-5.0497,-5.0156,-4.9949,-4.9701,-4.9183,-4.879,-4.8417,-4.8,-4.7231,-4.5371,-4.5371,-4.5371,-4.5371,-4.5371,-4.5371,-4.5371,-4.5371,-4.5371,-4.543,-4.5586,-4.5879,-4.5918,-4.5703,-4.5488,-4.5547,-4.582,-4.584,-4.6016,-4.6289,-4.6308,-4.6308,-4.6308,-4.6483,-4.6745,-4.7181,-4.7354,-4.7701,-4.8306,-4.9315,-5.0506,-5.1747,-5.2913,-5.3984,-5.5067,-5.598,-5.6542,-5.6941,-5.7021,-5.7021,-5.6949,-5.6636,-5.6444,-5.6492,-5.6804,-5.7021,-5.7021,-5.7021,-5.7021,-5.7021,-5.7021,-5.7021,-5.7021,-5.7021,-5.7093,-5.7213,-5.7021,-5.6708,-5.6299,-5.6275,-5.6275,-5.6275,-5.6275,-5.6275,-5.6275,-5.6275,-5.6275,-5.6299,-5.6275,-5.6227,-5.565,-5.5746,-5.6035,-5.6395,-5.6564,-5.6828,-5.7165,-5.7333,-5.7195,-5.6503,-5.7601,-5.8118,-5.801,-5.8974,-5.9943,-6.121,-6.1509,-6.1708,-6.2033,-6.1827,-6.1621,-6.1913,-6.1642,-6.0447,-5.854,-5.973,-6.0901,-6.0422,-5.9414,-5.9041,-5.8055,-5.6378,-5.4772,-5.278,-5.2671,-5.2236,-5.1027,-5.0363,-4.9928,-4.9659,-4.9162,-4.8624,-4.8454,-4.7786,-4.7325,-4.625,-4.623,-4.623,-4.6191,-4.623,-4.6211,-4.6211,-4.6152,-4.6191,-4.6445,-4.6719,-4.6836,-4.707,-4.7344,-4.6601,-4.6269,-4.6289,-4.6308,-4.6348,-4.6387,-4.6367,-4.6328,-4.6289,-4.6745,-4.7201,-4.7735,-4.8235,-4.8798,-4.9699,-5.0929,-5.1663,-5.1936,-5.3491,-5.4579,-5.523,-5.606,-5.6646,-5.6941,-5.7021,-5.7021,-5.7021,-5.6973,-5.6949,-5.6949,-5.6997,-5.7021,-5.7021,-5.7021,-5.7021,-5.7021,-5.7021,-5.7021,-5.7021,-5.7045,-5.7261,-5.7718,-5.8175,-5.8416,-5.8343,-5.8271,-5.8295,-5.8343,-5.8199,-5.8367,-5.8151,-5.8151,-5.8151,-5.8367,-5.8175,-5.767,-5.6588,-5.6732,-5.6949,-5.7045,-5.7454,-5.7694,-5.7766,-5.816,-5.8732,-5.8862,-5.9049,-5.9536,-6.0221,-5.9068,-5.9946,-6.1384,-6.2149,-6.2256,-6.2484,-6.2239,-6.2038,-6.2069,-6.1888,-6.1098,-5.9098,-6.0193,-6.0435,-6.0056,-6.0284,-5.9957,-5.7585,-5.5504,-5.386,-5.2427,-5.1875,-5.1517,-5.1224,-5.0818,-5.0363,-4.9928,-4.9369,-4.889,-4.8596,-4.8462,-4.7996,-4.6308,-4.6308,-4.6308,-4.6308,-4.6308,-4.6308,-4.6308,-4.6308,-4.6308,-4.6543,-4.6933,-4.7226,-4.7578,-4.7969,-4.7676,-4.7383,-4.7129,-4.7129,-4.7129,-4.7129,-4.7109,-4.7129,-4.7218,-4.7662,-4.8105,-4.8546,-4.9337,-5.039,-5.1358,-5.1754,-5.2415,-5.3431,-5.4416,-5.523,-5.59,-5.6462,-5.6861,-5.7021,-5.7021,-5.7021,-5.7021,-5.7021,-5.7021,-5.7021,-5.7021,-5.7021,-5.7021,-5.7021,-5.7021,-5.7021,-5.7021,-5.7021,-5.7045,-5.7357,-5.7598,-5.7814,-5.8319,-5.8608,-5.8608,-5.8608,-5.8608,-5.8608,-5.8608,-5.8632,-5.8608,-5.8608,-5.8608,-5.8608,-5.8608,-5.8223,-5.7983,-5.7935,-5.8031,-5.8055,-5.8443,-5.8726,-5.8677,-5.871,-5.8766,-5.9293,-5.9772,-6.0621,-6.1261,-6.1244,-6.1483,-6.2363,-6.2577,-6.2659,-6.2716,-6.2621,-6.2496,-6.2521,-6.244,-6.1769,-5.9843,-6.1055,-6.1921,-6.1325,-6.108,-6.0291,-5.8616,-5.6069,-5.4325,-5.3228,-5.2119,-5.117,-5.1129,-5.0611,-5.0259,-4.9783,-4.9245,-4.9221,-4.8887,-4.8494,-4.8128,-4.6308,-4.6308,-4.6308,-4.6308,-4.6308,-4.6308,-4.6387,-4.6484,-4.6504,-4.6816,-4.7324,-4.7656,-4.8008,-4.8379,-4.8418,-4.8281,-4.7969,-4.7715,-4.7578,-4.7578,-4.7578,-4.7578,-4.7668,-4.8206,-4.8742,-4.9364,-5.0689,-5.1916,-5.273,-5.3056,-5.3821,-5.4921,-5.5637,-5.6219,-5.6691,-5.7045,-5.7213,-5.7069,-5.7021,-5.7021,-5.7021,-5.7021,-5.7021,-5.7021,-5.7021,-5.7021,-5.7021,-5.7021,-5.7021,-5.7021,-5.7021,-5.7093,-5.7309,-5.7935,-5.8319,-5.8367,-5.8824,-5.9113,-5.9113,-5.9113,-5.9113,-5.9113,-5.9113,-5.9113,-5.9113,-5.9113,-5.9089,-5.9089,-5.9089,-5.9113,-5.9113,-5.9113,-5.8969,-5.8728,-5.8998,-5.9364,-5.934,-5.9276,-5.9536,-6.0041,-6.0769,-6.1441,-6.2067,-6.2552,-6.2659,-6.2822,-6.2822,-6.2822,-6.2822,-6.2822,-6.2822,-6.2822,-6.2797,-6.2338,-6.1392,-6.2,-6.1836,-6.1343,-6.1754,-6.0969,-5.9233,-5.6814,-5.4983,-5.3902,-5.2796,-5.1673,-5.0943,-5.0404,-4.997,-4.9556,-4.9638,-4.9696,-4.9143,-4.8458,-4.8023,-4.6308,-4.6308,-4.6308,-4.6308,-4.6308,-4.6348,-4.6562,-4.6855,-4.6914,-4.7363,-4.7988,-4.8164,-4.8379,-4.875,-4.8769,-4.8808,-4.8633,-4.8027,-4.7715,-4.7715,-4.7695,-4.7695,-4.7785,-4.8633,-4.9506,-5.0196,-5.2108,-5.3146,-5.3554,-5.4868,-5.5771,-5.6174,-5.7125,-5.7465,-5.719,-5.7629,-5.7574,-5.7261,-5.7189,-5.7141,-5.7045,-5.7165,-5.7189,-5.7141,-5.7141,-5.7165,-5.7117,-5.7045,-5.7021,-5.7021,-5.7021,-5.7285,-5.779,-5.868,-5.9305,-5.9329,-5.981,-6.0099,-6.0099,-6.0051,-6.0003,-6.0003,-6.0099,-6.0003,-5.9955,-6.0003,-6.0027,-5.9979,-6.0027,-6.0075,-6.0051,-6.0027,-5.969,-5.8897,-5.922,-5.9543,-5.964,-6.0227,-6.0935,-6.1251,-6.1639,-6.2142,-6.2249,-6.2577,-6.2822,-6.2822,-6.2822,-6.2822,-6.2822,-6.2822,-6.2822,-6.2822,-6.2822,-6.2495,-6.2659,-6.2741,-6.1705,-6.1018,-6.1928,-6.1895,-5.9486,-5.7073,-5.5422,-5.4168,-5.244,-5.1425,-5.0922,-5.0446,-5.0275,-5.0006,-5.0043,-4.9867,-4.9176,-4.8486,-4.7965,-4.6308,-4.6308,-4.6308,-4.6308,-4.6348,-4.6601,-4.6816,-4.6973,-4.7226,-4.7695,-4.8144,-4.8203,-4.8437,-4.8789,-4.8848,-4.8848,-4.8828,-4.8574,-4.8457,-4.8437,-4.8437,-4.8437,-4.862,-4.946,-5.0817,-5.2432,-5.3648,-5.4706,-5.5518,-5.6176,-5.6661,-5.7326,-5.7704,-5.802,-5.8123,-5.8262,-5.8247,-5.8151,-5.8103,-5.8103,-5.8103,-5.8103,-5.8103,-5.8103,-5.8103,-5.8103,-5.8079,-5.7405,-5.7045,-5.7045,-5.7021,-5.7261,-5.7886,-5.88,-5.9353,-5.945,-5.9883,-6.0171,-6.0171,-6.0171,-6.0171,-6.0171,-6.0171,-6.0171,-6.0171,-6.0171,-6.0171,-6.0171,-6.0171,-6.0171,-6.0171,-6.0171,-5.9979,-5.9714,-6.0085,-6.0324,-6.0359,-6.0569,-6.0776,-6.0941,-6.135,-6.1851,-6.2477,-6.2741,-6.2822,-6.2822,-6.2822,-6.2822,-6.2822,-6.2822,-6.2822,-6.2822,-6.2822,-6.2822,-6.2822,-6.2822,-6.2306,-6.1457,-6.1895,-6.154,-5.9293,-5.7246,-5.5684,-5.3991,-5.235,-5.1315,-5.0812,-5.0517,-5.0299,-5.0087,-4.9957,-4.9562,-4.9098,-4.8682,-4.8137,-4.6308,-4.6308,-4.6308,-4.6406,-4.6543,-4.6836,-4.7129,-4.7402,-4.7676,-4.8047,-4.8398,-4.8457,-4.8594,-4.8808,-4.8848,-4.8848,-4.8848,-4.8848,-4.8848,-4.8848,-4.8848,-4.8848,-4.9124,-5.0317,-5.1951,-5.3878,-5.4851,-5.5824,-5.7175,-5.7406,-5.7747,-5.8415,-5.8664,-5.8817,-5.8921,-5.8872,-5.8824,-5.8632,-5.8584,-5.8608,-5.8608,-5.8608,-5.8608,-5.8608,-5.8608,-5.8608,-5.856,-5.7935,-5.7598,-5.7646,-5.7766,-5.8055,-5.844,-5.9209,-5.9666,-5.9738,-5.9955,-6.0171,-6.0171,-6.0171,-6.0171,-6.0171,-6.0171,-6.0171,-6.0171,-6.0171,-6.0171,-6.0171,-6.0171,-6.0171,-6.0171,-6.0171,-6.0171,-6.0171,-6.0399,-6.0757,-6.0959,-6.0881,-6.1039,-6.1228,-6.1531,-6.2007,-6.2395,-6.2741,-6.2822,-6.2822,-6.2822,-6.2822,-6.2822,-6.2822,-6.2822,-6.2822,-6.2822,-6.2822,-6.2822,-6.2822,-6.2822,-6.2306,-6.1895,-6.0601,-5.87,-5.6814,-5.5093,-5.3323,-5.1646,-5.1154,-5.0715,-5.0454,-5.0303,-5.005,-4.9879,-4.9662,-4.9382,-4.8942,-4.8463,-4.6308,-4.6308,-4.6308,-4.6504,-4.6816,-4.6953,-4.7402,-4.8027,-4.8223,-4.8457,-4.8769,-4.8789,-4.892,-4.8848,-4.8848,-4.8848,-4.8848,-4.8848,-4.8848,-4.894,-4.9124,-4.9308,-4.9492,-5.0955,-5.274,-5.452,-5.5751,-5.6882,-5.8018,-5.8568,-5.9073,-5.9438,-5.9811,-5.9907,-5.9522,-5.9426,-5.9209,-5.8897,-5.88,-5.88,-5.88,-5.8776,-5.8776,-5.8776,-5.88,-5.8824,-5.8824,-5.8728,-5.8632,-5.8632,-5.8921,-5.9161,-5.9426,-5.9883,-6.0123,-6.0099,-6.0171,-6.0171,-6.0171,-6.0171,-6.0171,-6.0171,-6.0171,-6.0171,-6.0171,-6.0171,-6.0171,-6.0171,-6.0171,-6.0171,-6.0171,-6.0171,-6.0255,-6.0255,-6.0339,-6.0674,-6.1365,-6.115,-6.1325,-6.1928,-6.2167,-6.2249,-6.2331,-6.2659,-6.2741,-6.2822,-6.2822,-6.2822,-6.2822,-6.2822,-6.2822,-6.2822,-6.2822,-6.2822,-6.2822,-6.2822,-6.2741,-6.2495,-6.1705,-5.9907,-5.7738,-5.5772,-5.3946,-5.227,-5.1297,-5.0914,-5.0691,-5.0459,-5.0257,-5.0015,-4.9893,-4.9931,-4.9608,-4.9037,-4.8788,-4.6308,-4.6308,-4.6308,-4.6367,-4.6562,-4.7109,-4.7519,-4.7832,-4.8437,-4.873,-4.8848,-4.8848,-4.8848,-4.8848,-4.8848,-4.8848,-4.8848,-4.8848,-4.8848,-4.9124,-5.0459,-5.0732,-5.0752,-5.1771,-5.3277,-5.5137,-5.6622,-5.794,-5.8647,-5.9327,-5.9835,-6.0003,-6.0087,-6.0123,-5.9979,-5.9931,-5.9907,-5.9786,-5.9762,-5.9714,-5.9714,-5.9714,-5.9762,-5.9762,-5.9738,-5.9714,-5.9738,-5.9762,-5.9329,-5.868,-5.9113,-5.9378,-5.945,-5.9883,-6.0171,-6.0171,-6.0171,-6.0171,-6.0171,-6.0171,-6.0171,-6.0171,-6.0171,-6.0171,-6.0171,-6.0171,-6.0171,-6.0171,-6.0171,-6.0171,-6.0171,-6.0255,-6.0339,-6.059,-6.0674,-6.0924,-6.1423,-6.1754,-6.1919,-6.2167,-6.2413,-6.2577,-6.2659,-6.2741,-6.2822,-6.2822,-6.2822,-6.2822,-6.2822,-6.2822,-6.2822,-6.2822,-6.2822,-6.2822,-6.2822,-6.2822,-6.2741,-6.2495,-6.1267,-5.9293,-5.6769,-5.3991,-5.236,-5.0611,-5.059,-5.0205,-5.0317,-5.0256,-5.0134,-4.9787,-4.9787,-4.9604,-4.9308,-4.8856,-4.8928,-4.6308,-4.6308,-4.6308,-4.6406,-4.6641,-4.7285,-4.7676,-4.7949,-4.8535,-4.8848,-4.8848,-4.8848,-4.8848,-4.8848,-4.8848,-4.8848,-4.8848,-4.8848,-4.8848,-4.9216,-5.0803,-5.1868,-5.2539,-5.3344,-5.441,-5.5839,-5.7228,-5.8197,-5.8988,-5.9666,-6.0003,-6.0171,-6.0171,-6.0171,-6.0147,-6.0171,-6.0171,-6.0171,-6.0171,-6.0171,-6.0171,-6.0171,-6.0171,-6.0171,-6.0171,-6.0171,-6.0171,-6.0171,-5.9859,-5.945,-5.957,-5.9714,-5.9738,-6.0003,-6.0171,-6.0171,-6.0171,-6.0171,-6.0171,-6.0171,-6.0171,-6.0171,-6.0171,-6.0171,-6.0171,-6.0171,-6.0171,-6.0171,-6.0171,-6.0171,-6.0255,-6.0339,-6.059,-6.0757,-6.1008,-6.1257,-6.1672,-6.1837,-6.2084,-6.2331,-6.2659,-6.2822,-6.2822,-6.2822,-6.2822,-6.2822,-6.2822,-6.2822,-6.2822,-6.2822,-6.2822,-6.2822,-6.2822,-6.2822,-6.2741,-6.2741,-6.2659,-6.2413,-6.1208,-5.9124,-5.6075,-5.3123,-5.191,-5.0682,-5.0134,-4.9768,-4.9819,-4.9819,-4.9604,-4.9328,-4.9328,-4.9216,-4.9032,-4.8848,-4.8848,-4.6308,-4.6308,-4.6308,-4.6523,-4.6875,-4.7324,-4.7695,-4.8144,-4.8555,-4.8789,-4.8848,-4.8848,-4.8848,-4.8848,-4.8848,-4.8848,-4.8848,-4.8848,-4.9124,-4.9748,-5.1075,-5.2587,-5.4565,-5.5005,-5.5794,-5.6796,-5.7337,-5.8368,-5.9219,-5.9558,-5.9835,-6.0087,-6.0171,-6.0171,-6.0171,-6.0171,-6.0171,-6.0171,-6.0171,-6.0171,-6.0171,-6.0171,-6.0171,-6.0171,-6.0171,-6.0171,-6.0171,-6.0171,-6.0123,-6.0147,-6.0171,-6.0123,-6.0147,-6.0171,-6.0171,-6.0171,-6.0171,-6.0171,-6.0171,-6.0171,-6.0171,-6.0171,-6.0171,-6.0171,-6.0171,-6.0171,-6.0171,-6.0171,-6.0171,-6.0171,-6.0255,-6.0507,-6.0674,-6.0817,-6.1091,-6.1506,-6.1919,-6.173,-6.1812,-6.2577,-6.2741,-6.2741,-6.2822,-6.2822,-6.2797,-6.2571,-6.2621,-6.2722,-6.2722,-6.2722,-6.2772,-6.2822,-6.2822,-6.2822,-6.2741,-6.2741,-6.2577,-6.2331,-6.1042,-5.9063,-5.5814,-5.3369,-5.2159,-5.1116,-5.0205,-4.9596,-4.9222,-4.917,-4.8954,-4.8895,-4.8797,-4.8914,-4.8828,-4.8848,-4.8848,-4.6308,-4.6308,-4.6308,-4.6348,-4.6504,-4.6894,-4.7324,-4.7754,-4.8183,-4.8594,-4.8789,-4.8848,-4.8848,-4.8848,-4.8848,-4.8848,-4.8848,-4.894,-4.9656,-5.1145,-5.1417,-5.3547,-5.5684,-5.6404,-5.6946,-5.7745,-5.8601,-5.9219,-5.9558,-5.9811,-6.0087,-6.0171,-6.0171,-6.0171,-6.0171,-6.0171,-6.0171,-6.0171,-6.0171,-6.0171,-6.0171,-6.0171,-6.0171,-6.0171,-6.0171,-6.0171,-6.0171,-6.0171,-6.0171,-6.0171,-6.0171,-6.0171,-6.0171,-6.0171,-6.0171,-6.0171,-6.0171,-6.0171,-6.0171,-6.0171,-6.0171,-6.0171,-6.0171,-6.0171,-6.0171,-6.0171,-6.0171,-6.0171,-6.0171,-6.0171,-6.0255,-6.0255,-6.0507,-6.0674,-6.0674,-6.0841,-6.1423,-6.1531,-6.1754,-6.2167,-6.2331,-6.2413,-6.2741,-6.2741,-6.259,-6.237,-6.2421,-6.2571,-6.2621,-6.259,-6.264,-6.2741,-6.2577,-6.2495,-6.2577,-6.2495,-6.2249,-6.1812,-6.0625,-5.9317,-5.6162,-5.3191,-5.1889,-5.0914,-5.0002,-4.9465,-4.9019,-4.8679,-4.8627,-4.8457,-4.8437,-4.8633,-4.8789,-4.8808,-4.8848,-4.6308,-4.6308,-4.6308,-4.6308,-4.6406,-4.6953,-4.7363,-4.7676,-4.8242,-4.8633,-4.8808,-4.8848,-4.8848,-4.8848,-4.8848,-4.8848,-4.8848,-4.894,-4.9911,-5.1507,-5.2566,-5.4521,-5.6728,-5.7893,-5.8515,-5.8624,-5.9134,-5.9473,-5.9642,-5.9919,-6.0171,-6.0171,-6.0171,-6.0171,-6.0171,-6.0171,-6.0171,-6.0171,-6.0171,-6.0171,-6.0171,-6.0171,-6.0171,-6.0171,-6.0171,-6.0171,-6.0171,-6.0171,-6.0171,-6.0171,-6.0171,-6.0171,-6.0171,-6.0171,-6.0171,-6.0171,-6.0171,-6.0171,-6.0171,-6.0171,-6.0171,-6.0171,-6.0171,-6.0171,-6.0171,-6.0171,-6.0171,-6.0171,-6.0171,-6.0171,-6.0255,-6.0423,-6.059,-6.0507,-6.0507,-6.059,-6.0841,-6.1008,-6.134,-6.1754,-6.1837,-6.2084,-6.2331,-6.2495,-6.269,-6.2465,-6.2515,-6.264,-6.2559,-6.2584,-6.2609,-6.2577,-6.2249,-6.2167,-6.2356,-6.2191,-6.1862,-6.115,-6.0015,-5.8979,-5.7137,-5.4146,-5.1417,-5.053,-4.9728,-4.9269,-4.8803,-4.8535,-4.8437,-4.8574,-4.8652,-4.8711,-4.873,-4.8789,-4.8828,-4.6308,-4.6308,-4.6308,-4.6308,-4.6426,-4.7109,-4.75,-4.7695,-4.8418,-4.873,-4.8848,-4.8848,-4.8848,-4.8848,-4.8848,-4.8848,-4.9032,-4.9472,-5.053,-5.1688,-5.3437,-5.5312,-5.7246,-5.8407,-5.9219,-5.8988,-5.9497,-5.9642,-5.9726,-6.0003,-6.0171,-6.0171,-6.0171,-6.0171,-6.0171,-6.0171,-6.0171,-6.0171,-6.0171,-6.0171,-6.0171,-6.0171,-6.0171,-6.0171,-6.0171,-6.0171,-6.0171,-6.0171,-6.0171,-6.0171,-6.0171,-6.0171,-6.0171,-6.0171,-6.0171,-6.0171,-6.0171,-6.0171,-6.0171,-6.0171,-6.0171,-6.0171,-6.0171,-6.0171,-6.0171,-6.0171,-6.0171,-6.0171,-6.0171,-6.0171,-6.0255,-6.0423,-6.0423,-6.0339,-6.0507,-6.0507,-6.0339,-6.0507,-6.0924,-6.1257,-6.1423,-6.1589,-6.2002,-6.2331,-6.247,-6.2609,-6.2634,-6.2634,-6.2527,-6.2413,-6.2331,-6.2249,-6.2002,-6.1672,-6.1754,-6.1672,-6.134,-6.0782,-5.9702,-5.8477,-5.7447,-5.527,-5.2548,-5.0479,-4.9544,-4.9065,-4.8691,-4.8496,-4.8516,-4.875,-4.8633,-4.8437,-4.8535,-4.875,-4.8789,-4.6308,-4.6308,-4.6308,-4.6308,-4.6387,-4.6836,-4.7285,-4.7617,-4.8144,-4.8535,-4.8828,-4.8848,-4.8848,-4.8848,-4.8848,-4.894,-4.938,-5.0439,-5.1597,-5.2387,-5.3969,-5.5749,-5.7527,-5.8236,-5.8856,-5.9726,-6.0003,-6.0003,-6.0003,-6.0171,-6.0171,-6.0171,-6.0171,-6.0171,-6.0171,-6.0171,-6.0171,-6.0171,-6.0171,-6.0171,-6.0171,-6.0171,-6.0171,-6.0171,-6.0171,-6.0171,-6.0171,-6.0171,-6.0171,-6.0171,-6.0171,-6.0171,-6.0171,-6.0171,-6.0171,-6.0171,-6.0123,-6.0075,-6.0075,-6.0123,-6.0171,-6.0171,-6.0171,-6.0171,-6.0171,-6.0171,-6.0171,-6.0171,-6.0171,-6.0171,-6.0171,-6.0339,-6.0255,-6.0255,-6.0255,-6.0339,-6.0255,-6.0339,-6.0507,-6.0841,-6.1008,-6.1174,-6.1672,-6.1977,-6.2067,-6.2231,-6.2256,-6.2157,-6.1868,-6.1853,-6.1754,-6.1672,-6.1589,-6.1257,-6.1091,-6.1008,-6.0865,-6.0519,-5.9422,-5.7872,-5.6787,-5.5778,-5.3793,-5.0854,-4.9341,-4.8914,-4.8613,-4.8476,-4.8398,-4.8457,-4.8281,-4.8066,-4.8281,-4.8496,-4.8613,-4.6308,-4.6308,-4.6308,-4.6308,-4.6426,-4.6992,-4.7383,-4.7656,-4.8262,-4.8652,-4.8808,-4.8848,-4.8848,-4.8848,-4.8848,-4.94,-5.0621,-5.2297,-5.3636,-5.4697,-5.5662,-5.6987,-5.8577,-5.8771,-5.9304,-6.0003,-6.0171,-6.0171,-6.0171,-6.0171,-6.0171,-6.0171,-6.0171,-6.0171,-6.0171,-6.0171,-6.0171,-6.0171,-6.0171,-6.0171,-6.0171,-6.0171,-6.0171,-6.0171,-6.0171,-6.0171,-6.0171,-6.0171,-6.0171,-6.0171,-6.0171,-6.0171,-6.0171,-6.0171,-6.0171,-6.0147,-5.9955,-5.9786,-5.9762,-5.9762,-5.9738,-5.9786,-5.9979,-6.0171,-6.0171,-6.0171,-6.0147,-6.0171,-6.0171,-6.0171,-6.0171,-6.0171,-6.0171,-6.0171,-6.0171,-6.0171,-6.0171,-6.0171,-6.0339,-6.0507,-6.059,-6.0841,-6.1506,-6.1705,-6.1771,-6.1853,-6.1878,-6.1672,-6.1392,-6.1236,-6.1174,-6.1257,-6.1257,-6.0924,-6.0566,-6.0231,-6.0147,-5.9798,-5.8749,-5.7182,-5.5534,-5.422,-5.2472,-5.0082,-4.9157,-4.8822,-4.8652,-4.8535,-4.8359,-4.8183,-4.8027,-4.7949,-4.8066,-4.8203,-4.834,-4.6308,-4.6308,-4.6308,-4.6348,-4.6543,-4.7246,-4.7637,-4.7851,-4.8516,-4.8828,-4.8848,-4.8848,-4.8848,-4.9032,-4.9564,-5.055,-5.2387,-5.4235,-5.5836,-5.6901,-5.7699,-5.8832,-5.9726,-6.0171,-6.0171,-6.0087,-6.0171,-6.0171,-6.0171,-6.0171,-6.0171,-6.0171,-6.0171,-6.0171,-6.0171,-6.0171,-6.0171,-6.0171,-6.0171,-6.0171,-6.0171,-6.0171,-6.0171,-6.0171,-6.0171,-6.0171,-6.0171,-6.0171,-6.0171,-6.0171,-6.0171,-6.0171,-6.0171,-6.0171,-6.0171,-6.0099,-5.9762,-5.9594,-5.957,-5.9426,-5.9474,-5.9498,-5.9666,-5.9786,-5.9859,-5.9834,-6.0027,-6.0147,-6.0171,-6.0171,-6.0171,-6.0171,-6.0171,-6.0171,-6.0171,-6.0171,-6.0171,-6.0171,-6.0171,-6.0255,-6.0171,-6.0507,-6.1091,-6.134,-6.1325,-6.149,-6.1622,-6.1374,-6.1037,-6.0778,-6.0757,-6.0924,-6.0817,-6.059,-6.0147,-5.9534,-5.928,-5.8964,-5.7411,-5.5601,-5.3934,-5.2249,-5.0712,-4.9723,-4.9124,-4.8789,-4.8711,-4.8652,-4.8555,-4.8359,-4.7969,-4.7949,-4.8281,-4.8203,-4.8144,-4.6308,-4.6308,-4.6308,-4.6504,-4.6894,-4.7363,-4.7793,-4.8164,-4.8633,-4.8848,-4.8848,-4.8848,-4.8848,-4.9308,-5.0803,-5.2387,-5.4146,-5.6098,-5.7246,-5.7956,-5.9026,-5.9726,-6.0171,-6.0171,-6.0171,-6.0171,-6.0171,-6.0171,-6.0171,-6.0171,-6.0171,-6.0171,-6.0171,-6.0171,-6.0171,-6.0171,-6.0171,-6.0171,-6.0171,-6.0171,-6.0171,-6.0171,-6.0171,-6.0171,-6.0171,-6.0171,-6.0171,-6.0171,-6.0171,-6.0171,-6.0171,-6.0171,-6.0171,-6.0171,-6.0171,-6.0171,-6.0099,-6.0051,-5.9883,-5.9522,-5.9209,-5.9137,-5.9089,-5.8848,-5.9017,-5.9329,-5.9642,-6.0171,-6.0147,-6.0099,-6.0075,-6.0147,-6.0171,-6.0171,-6.0171,-6.0171,-6.0171,-6.0171,-6.0171,-6.0087,-6.0003,-6.0255,-6.0757,-6.0841,-6.1008,-6.1174,-6.1257,-6.1008,-6.0841,-6.059,-6.0423,-6.059,-6.0482,-6.0231,-5.9365,-5.8832,-5.8127,-5.787,-5.6015,-5.4112,-5.2882,-5.1503,-5.0883,-4.9941,-4.9374,-4.8848,-4.8789,-4.875,-4.875,-4.8496,-4.8066,-4.8281,-4.8783,-4.8457,-4.8047,-4.6308,-4.6308,-4.6308,-4.6543,-4.6973,-4.7402,-4.7812,-4.8242,-4.8672,-4.8848,-4.8848,-4.8848,-4.8848,-4.9472,-5.1868,-5.3703,-5.5027,-5.7504,-5.8941,-5.8941,-5.9726,-6.0171,-6.0171,-6.0171,-6.0171,-6.0171,-6.0171,-6.0171,-6.0171,-6.0171,-6.0171,-6.0171,-6.0171,-6.0171,-6.0171,-6.0171,-6.0171,-6.0171,-6.0171,-6.0171,-6.0171,-6.0171,-6.0171,-6.0171,-6.0171,-6.0171,-6.0171,-6.0171,-6.0171,-6.0171,-6.0171,-6.0171,-6.0171,-6.0171,-6.0171,-6.0171,-6.0171,-5.9883,-5.9329,-5.9089,-5.8897,-5.8656,-5.8536,-5.8656,-5.8656,-5.88,-5.8993,-5.9233,-5.957,-5.9714,-5.9859,-6.0003,-6.0123,-6.0171,-6.0171,-6.0171,-6.0171,-6.0171,-6.0171,-6.0003,-5.9811,-5.9955,-6.0183,-6.0315,-6.0566,-6.0841,-6.0841,-6.059,-6.0507,-6.0339,-6.0255,-6.0255,-6.0087,-5.9811,-5.8747,-5.787,-5.6728,-5.6011,-5.4168,-5.2665,-5.2076,-5.1158,-5.0383,-4.9829,-4.913,-4.8848,-4.894,-4.8711,-4.8574,-4.8359,-4.8125,-4.834,-4.8535,-4.8457,-4.8164,-4.6308,-4.6308,-4.6308,-4.6601,-4.7109,-4.7441,-4.7891,-4.8398,-4.8711,-4.8848,-4.8848,-4.894,-4.9124,-5.0185,-5.2834,-5.4675,-5.5575,-5.8662,-5.9895,-6.0171,-6.0171,-6.0171,-6.0171,-6.0171,-6.0171,-6.0171,-6.0171,-6.0171,-6.0171,-6.0171,-6.0171,-6.0171,-6.0171,-6.0171,-6.0171,-6.0171,-6.0171,-6.0171,-6.0171,-6.0171,-6.0171,-6.0171,-6.0171,-6.0171,-6.0171,-6.0171,-6.0171,-6.0171,-6.0171,-6.0171,-6.0171,-6.0171,-6.0171,-6.0171,-6.0171,-6.0171,-6.0171,-5.981,-5.9281,-5.8897,-5.8512,-5.8247,-5.7959,-5.8127,-5.8343,-5.8392,-5.8656,-5.8945,-5.9209,-5.9474,-5.9642,-6.0003,-6.0099,-6.0171,-6.0171,-6.0171,-6.0087,-5.9919,-5.975,-5.9497,-5.928,-5.9307,-5.9499,-5.9847,-6.0147,-6.0507,-6.0423,-6.0255,-6.0171,-6.0171,-6.0171,-6.0171,-6.0087,-5.9558,-5.815,-5.6987,-5.5836,-5.4256,-5.2387,-5.1166,-5.0702,-5.0174,-4.9407,-4.8999,-4.8848,-4.8848,-4.8848,-4.8594,-4.8379,-4.8437,-4.8418,-4.8183,-4.8183,-4.8223,-4.8242,-4.6308,-4.6308,-4.6308,-4.6777,-4.7519,-4.7558,-4.8047,-4.873,-4.8828,-4.8848,-4.8848,-4.9032,-5.0002,-5.1688,-5.3615,-5.5662,-5.7182,-5.928,-6.0003,-6.0171,-6.0171,-6.0171,-6.0171,-6.0171,-6.0171,-6.0171,-6.0171,-6.0171,-6.0171,-6.0171,-6.0171,-6.0171,-6.0171,-6.0171,-6.0171,-6.0171,-6.0171,-6.0171,-6.0171,-6.0171,-6.0171,-6.0171,-6.0171,-6.0171,-6.0171,-6.0171,-6.0171,-6.0171,-6.0171,-6.0171,-6.0171,-6.0171,-6.0171,-6.0171,-6.0171,-6.0171,-6.0171,-5.9859,-5.9474,-5.9209,-5.8993,-5.8464,-5.7983,-5.7742,-5.8103,-5.7959,-5.8319,-5.9065,-5.9257,-5.9546,-5.9859,-6.0147,-6.0171,-6.0171,-6.0087,-5.9919,-5.975,-5.9581,-5.9327,-5.8988,-5.8856,-5.8847,-5.9053,-5.9341,-5.9703,-6.0038,-6.0423,-6.0171,-6.0171,-6.0171,-6.0171,-6.0171,-6.0171,-5.9365,-5.7527,-5.6098,-5.4587,-5.2745,-5.0803,-4.9911,-4.94,-4.8848,-4.8848,-4.8848,-4.8848,-4.8848,-4.8848,-4.8711,-4.8652,-4.8769,-4.8711,-4.8496,-4.8437,-4.8555,-4.8437,-4.6308,-4.6328,-4.6582,-4.7031,-4.7617,-4.7851,-4.8301,-4.8789,-4.8848,-4.8848,-4.894,-5.0094,-5.0984,-5.2297,-5.4961,-5.6641,-5.7613,-5.9388,-6.0003,-6.0171,-6.0171,-6.0171,-6.0171,-6.0171,-6.0171,-6.0171,-6.0171,-6.0171,-6.0171,-6.0171,-6.0171,-6.0171,-6.0171,-6.0171,-6.0171,-6.0171,-6.0171,-6.0171,-6.0171,-6.0171,-6.0171,-6.0171,-6.0171,-6.0171,-6.0171,-6.0171,-6.0171,-6.0171,-6.0171,-6.0171,-6.0171,-6.0171,-6.0171,-6.0171,-6.0171,-6.0171,-6.0171,-6.0051,-5.9834,-5.9546,-5.9137,-5.8704,-5.8247,-5.8055,-5.8223,-5.8271,-5.8416,-5.8872,-5.9233,-5.9546,-5.9618,-5.9955,-6.0171,-6.0087,-6.0003,-5.975,-5.9497,-5.9243,-5.8903,-5.8477,-5.8477,-5.8515,-5.8747,-5.8979,-5.9319,-5.9655,-5.9979,-6.0171,-6.0171,-6.0171,-6.0171,-6.0171,-6.0171,-5.8492,-5.6532,-5.4939,-5.3348,-5.1417,-4.9492,-4.9216,-4.8848,-4.8848,-4.8848,-4.8848,-4.8848,-4.8848,-4.8848,-4.8848,-4.8848,-4.8848,-4.8848,-4.8789,-4.8808,-4.8848,-4.8652,-4.6308,-4.6367,-4.6894,-4.7305,-4.7617,-4.8027,-4.8457,-4.8808,-4.8848,-4.8848,-4.9032,-5.0803,-5.1688,-5.2745,-5.5575,-5.7269,-5.787,-5.9195,-6.0003,-6.0171,-6.0171,-6.0171,-6.0171,-6.0171,-6.0171,-6.0171,-6.0171,-6.0171,-6.0171,-6.0171,-6.0171,-6.0171,-6.0171,-6.0171,-6.0171,-6.0171,-6.0171,-6.0171,-6.0171,-6.0171,-6.0171,-6.0171,-6.0171,-6.0171,-6.0171,-6.0171,-6.0171,-6.0171,-6.0171,-6.0171,-6.0171,-6.0171,-6.0171,-6.0171,-6.0171,-6.0171,-6.0171,-6.0171,-6.0051,-5.969,-5.9233,-5.8921,-5.8632,-5.856,-5.8608,-5.8632,-5.8656,-5.8921,-5.9233,-5.945,-5.9546,-6.0003,-6.0171,-6.0171,-5.9811,-5.9558,-5.9158,-5.8903,-5.8391,-5.8072,-5.7963,-5.7808,-5.8065,-5.8272,-5.8813,-5.8948,-5.8884,-5.9473,-6.0171,-6.0171,-6.0171,-6.0171,-6.0171,-5.787,-5.529,-5.4411,-5.328,-5.0621,-4.9124,-4.9032,-4.8848,-4.8848,-4.8848,-4.8848,-4.8848,-4.8848,-4.8848,-4.8848,-4.8848,-4.8848,-4.8848,-4.8848,-4.8848,-4.8848,-4.875,-4.6308,-4.6406,-4.7207,-4.7558,-4.7676,-4.8047,-4.8476,-4.8828,-4.8848,-4.9032,-4.938,-5.1145,-5.2117,-5.3013,-5.6381,-5.7785,-5.8127,-5.9473,-6.0171,-6.0171,-6.0171,-6.0171,-6.0171,-6.0171,-6.0171,-6.0171,-6.0171,-6.0171,-6.0171,-6.0171,-6.0171,-6.0171,-6.0171,-6.0171,-6.0171,-6.0171,-6.0171,-6.0171,-6.0171,-6.0171,-6.0171,-6.0171,-6.0171,-6.0171,-6.0171,-6.0171,-6.0171,-6.0171,-6.0171,-6.0171,-6.0171,-6.0171,-6.0171,-6.0171,-6.0171,-6.0171,-6.0171,-6.0171,-6.0147,-5.9666,-5.945,-5.9353,-5.9113,-5.8921,-5.8728,-5.8728,-5.8945,-5.9329,-5.9474,-5.969,-5.9931,-6.0147,-6.0171,-6.0003,-5.9558,-5.9049,-5.8647,-5.822,-5.7814,-5.7274,-5.7056,-5.6964,-5.7198,-5.7545,-5.8226,-5.8366,-5.7995,-5.8492,-5.9558,-5.9558,-5.9388,-5.8662,-5.8492,-5.6814,-5.4499,-5.4411,-5.3102,-5.0368,-4.8848,-4.8848,-4.8848,-4.8848,-4.8848,-4.8848,-4.8848,-4.8848,-4.8848,-4.8848,-4.8848,-4.8848,-4.8848,-4.8848,-4.8848,-4.8848,-4.8769,-4.6465,-4.6777,-4.7344,-4.7754,-4.8027,-4.8457,-4.873,-4.894,-4.894,-4.9564,-5.0984,-5.2745,-5.4433,-5.6011,-5.7613,-5.9111,-5.9388,-5.9558,-6.0171,-6.0171,-6.0171,-6.0171,-6.0171,-6.0171,-6.0171,-6.0171,-6.0171,-6.0171,-6.0171,-6.0171,-6.0171,-6.0171,-6.0171,-6.0171,-6.0171,-6.0171,-6.0171,-6.0171,-6.0171,-6.0171,-6.0171,-6.0171,-6.0171,-6.0171,-6.0171,-6.0171,-6.0171,-6.0171,-6.0171,-6.0171,-6.0171,-6.0171,-6.0171,-6.0171,-6.0171,-6.0171,-6.0171,-6.0171,-6.0171,-5.9979,-5.9931,-5.981,-5.969,-5.9522,-5.9618,-5.9642,-5.9762,-5.981,-5.9834,-6.0003,-6.0123,-5.9811,-5.9726,-5.9497,-5.9049,-5.8391,-5.7877,-5.747,-5.7037,-5.6516,-5.621,-5.5554,-5.5484,-5.5997,-5.6736,-5.7194,-5.6964,-5.7441,-5.8321,-5.8042,-5.7699,-5.6445,-5.5662,-5.4587,-5.3725,-5.3458,-5.2387,-4.9819,-4.8848,-4.8848,-4.8848,-4.8848,-4.8848,-4.8848,-4.8848,-4.8848,-4.8848,-4.8848,-4.8848,-4.8848,-4.8848,-4.8848,-4.8848,-4.8848,-4.8828,-4.6465,-4.6777,-4.7344,-4.7734,-4.8066,-4.8613,-4.9216,-4.9748,-4.9931,-5.0894,-5.2834,-5.4697,-5.6098,-5.7613,-5.9195,-6.0171,-6.0171,-6.0171,-6.0171,-6.0171,-6.0171,-6.0171,-6.0171,-6.0171,-6.0171,-6.0171,-6.0171,-6.0171,-6.0171,-6.0171,-6.0171,-6.0171,-6.0171,-6.0027,-6.0003,-6.0003,-6.0171,-6.0171,-6.0171,-6.0171,-6.0171,-6.0171,-6.0171,-6.0171,-6.0171,-6.0171,-6.0171,-6.0171,-6.0171,-6.0171,-6.0171,-6.0171,-6.0171,-6.0171,-6.0171,-6.0171,-6.0171,-6.0171,-6.0171,-6.0171,-6.0099,-6.0099,-6.0171,-6.0171,-6.0171,-6.0051,-6.0075,-6.0123,-6.0087,-5.9919,-5.9835,-5.9473,-5.9134,-5.8964,-5.8368,-5.7705,-5.7165,-5.6755,-5.6145,-5.5708,-5.4895,-5.4255,-5.3679,-5.4433,-5.5071,-5.5465,-5.5836,-5.6468,-5.6901,-5.6468,-5.6011,-5.4873,-5.4058,-5.3547,-5.2834,-5.2297,-5.0984,-4.9216,-4.8848,-4.8848,-4.8848,-4.8848,-4.8848,-4.8848,-4.8848,-4.8848,-4.8848,-4.8848,-4.8848,-4.8848,-4.8848,-4.8848,-4.8848,-4.8848,-4.8848,-4.6328,-4.6465,-4.7246,-4.7637,-4.7793,-4.881,-5.0094,-5.1597,-5.1597,-5.2745,-5.4675,-5.6468,-5.7441,-5.7893,-5.9473,-6.0171,-6.0171,-6.0171,-6.0171,-6.0171,-6.0171,-6.0171,-6.0171,-6.0171,-6.0171,-6.0171,-6.0171,-6.0171,-6.0171,-6.0027,-6.0027,-6.0099,-5.9955,-5.9762,-5.9666,-5.9714,-5.9883,-5.981,-5.9955,-5.9955,-5.9979,-6.0147,-6.0171,-6.0171,-6.0171,-6.0171,-6.0171,-6.0171,-6.0171,-6.0171,-6.0171,-6.0171,-6.0171,-6.0171,-6.0171,-6.0171,-6.0171,-6.0171,-6.0171,-6.0171,-6.0087,-6.0003,-6.0003,-6.0087,-6.0087,-6.0003,-5.9835,-5.975,-5.9666,-5.9497,-5.9304,-5.8879,-5.8477,-5.8111,-5.7596,-5.7078,-5.6449,-5.5926,-5.5401,-5.4609,-5.3544,-5.2719,-5.1819,-5.2228,-5.3636,-5.3636,-5.408,-5.4785,-5.5049,-5.4675,-5.4146,-5.3458,-5.2924,-5.2834,-5.2207,-5.1145,-5.0439,-4.894,-4.894,-4.8848,-4.8848,-4.8848,-4.8848,-4.8848,-4.8848,-4.8848,-4.8848,-4.8848,-4.8848,-4.8848,-4.8848,-4.8848,-4.8848,-4.8848,-4.8848,-4.6914,-4.7266,-4.7793,-4.8203,-4.8771,-5.0247,-5.1236,-5.1688,-5.1778,-5.3348,-5.6509,-5.7073,-5.8127,-5.9388,-6.0003,-6.0171,-6.0171,-6.0171,-6.0171,-6.0171,-6.0171,-6.0171,-6.0171,-6.0171,-6.0171,-6.0171,-6.0171,-6.0171,-6.0075,-5.9883,-5.9907,-6.0075,-5.957,-5.9305,-5.9281,-5.9185,-5.9185,-5.9257,-5.9498,-5.9642,-5.981,-6.0003,-6.0099,-6.0171,-6.0171,-6.0171,-6.0171,-6.0171,-6.0171,-6.0171,-6.0171,-6.0171,-6.0171,-6.0171,-6.0171,-6.0171,-6.0171,-6.0171,-6.0171,-5.9919,-5.975,-5.9581,-5.9412,-5.9497,-5.9497,-5.9412,-5.9243,-5.9243,-5.9073,-5.8903,-5.8453,-5.8026,-5.7596,-5.7078,-5.6558,-5.6123,-5.5511,-5.4873,-5.4255,-5.3098,-5.2111,-5.1388,-5.0388,-5.1347,-5.2566,-5.2138,-5.2228,-5.2924,-5.3102,-5.2745,-5.2387,-5.1778,-5.1326,-5.1236,-5.0621,-4.9656,-4.938,-4.9032,-4.894,-4.8848,-4.8848,-4.8848,-4.8848,-4.8848,-4.8848,-4.8848,-4.8848,-4.8848,-4.8848,-4.8848,-4.8848,-4.8848,-4.8848,-4.8848,-4.8848,-4.709,-4.7402,-4.7969,-4.8894,-5.0054,-5.1236,-5.2387,-5.3725,-5.3991,-5.5749,-5.8298,-5.8492,-5.9111,-6.0003,-6.0171,-6.0171,-6.0171,-6.0171,-6.0171,-6.0171,-6.0171,-6.0171,-6.0171,-6.0171,-6.0171,-6.0171,-6.0171,-6.0171,-6.0027,-5.9714,-5.9618,-5.9738,-5.9089,-5.9161,-5.9233,-5.9185,-5.8872,-5.8945,-5.9065,-5.9305,-5.957,-5.9883,-6.0099,-6.0171,-6.0171,-6.0171,-6.0171,-6.0171,-6.0171,-6.0171,-6.0171,-6.0171,-6.0171,-6.0171,-6.0171,-6.0171,-6.0171,-6.0087,-5.9919,-5.9642,-5.9473,-5.9158,-5.8647,-5.8477,-5.8647,-5.8733,-5.8647,-5.8624,-5.8391,-5.8049,-5.7596,-5.7078,-5.6558,-5.5926,-5.5511,-5.5093,-5.4454,-5.3744,-5.2671,-5.1499,-5.0682,-5.0042,-5.0114,-5.1075,-5.1417,-5.0894,-5.0894,-5.1417,-5.1326,-5.0712,-5.0439,-5.0002,-4.9656,-4.938,-4.8848,-4.8848,-4.894,-4.894,-4.894,-4.8848,-4.8848,-4.8848,-4.8848,-4.8848,-4.8848,-4.8848,-4.8848,-4.8848,-4.8848,-4.8848,-4.8848,-4.8848,-4.8848,-4.8848,-4.8848,-4.6992,-4.709,-4.8071,-4.9733,-5.1556,-5.2138,-5.4256,-5.7246,-5.7355,-5.8492,-5.9895,-6.0171,-6.0087,-6.0171,-6.0171,-6.0171,-6.0171,-6.0171,-6.0171,-6.0171,-6.0171,-6.0171,-6.0171,-6.0171,-6.0171,-6.0171,-6.0171,-6.0171,-6.0003,-5.9618,-5.9257,-5.9378,-5.9233,-5.9233,-5.9305,-5.9161,-5.8897,-5.8752,-5.9041,-5.9378,-5.9522,-5.9834,-6.0171,-6.0171,-6.0171,-6.0171,-6.0171,-6.0171,-6.0171,-6.0171,-6.0171,-6.0171,-6.0171,-6.0171,-6.0171,-6.0087,-6.0087,-5.9835,-5.9497,-5.9219,-5.8988,-5.8562,-5.7877,-5.7533,-5.7619,-5.7791,-5.7791,-5.7705,-5.7447,-5.6905,-5.6471,-5.6123,-5.5598,-5.4983,-5.4454,-5.3943,-5.3319,-5.2492,-5.1409,-5.0428,-4.9951,-4.942,-4.94,-5.0276,-5.0348,-4.9839,-4.9748,-5.0185,-5.0082,-4.9459,-4.9203,-4.9038,-4.8979,-4.8887,-4.8848,-4.8848,-4.8848,-4.8848,-4.8867,-4.8848,-4.8848,-4.8848,-4.8848,-4.8848,-4.8848,-4.8848,-4.8848,-4.8848,-4.8848,-4.8848,-4.8848,-4.8848,-4.8848,-4.8848,-4.8848,-4.7422,-4.7679,-4.9914,-5.1244,-5.2117,-5.4873,-5.6468,-5.7527,-5.8941,-5.9726,-6.0171,-6.0171,-6.0171,-6.0171,-6.0171,-6.0171,-6.0171,-6.0171,-6.0171,-6.0171,-6.0171,-6.0171,-6.0171,-6.0171,-6.0171,-6.0171,-6.0171,-6.0147,-5.9931,-5.9426,-5.9209,-5.9762,-5.9426,-5.9089,-5.9426,-5.9209,-5.8945,-5.8848,-5.9185,-5.9474,-5.9546,-5.9859,-6.0171,-6.0171,-6.0171,-6.0171,-6.0171,-6.0171,-6.0171,-6.0171,-6.0171,-6.0171,-6.0171,-6.0171,-6.0003,-5.9726,-5.9642,-5.9412,-5.8988,-5.8647,-5.8306,-5.7791,-5.721,-5.6864,-5.6603,-5.669,-5.669,-5.6581,-5.632,-5.5861,-5.5335,-5.4983,-5.4652,-5.4032,-5.3476,-5.2872,-5.2242,-5.1157,-5.0154,-4.9696,-4.9328,-4.9124,-4.9124,-4.9124,-4.9216,-4.9216,-4.9124,-4.9348,-4.9598,-4.9306,-4.9365,-4.916,-4.9057,-4.8906,-4.8945,-4.9023,-4.9101,-4.9004,-4.8965,-4.8926,-4.8867,-4.8848,-4.8848,-4.8848,-4.8848,-4.8848,-4.8848,-4.8848,-4.8848,-4.8848,-4.8848,-4.8848,-4.8848,-4.8848,-4.8848,-4.7402,-4.7946,-5.0527,-5.2207,-5.3458,-5.6207,-5.7893,-5.8771,-5.9726,-6.0171,-6.0171,-6.0171,-6.0171,-6.0171,-6.0171,-6.0171,-6.0171,-6.0171,-6.0171,-6.0171,-6.0171,-6.0171,-6.0171,-6.0171,-6.0171,-6.0171,-6.0147,-6.0075,-5.981,-5.9474,-5.9353,-5.9714,-5.9185,-5.9185,-5.9618,-5.9426,-5.9257,-5.9329,-5.9594,-5.969,-5.9714,-6.0003,-6.0171,-6.0171,-6.0171,-6.0171,-6.0171,-6.0171,-6.0171,-6.0171,-6.0171,-6.0171,-6.0171,-6.0003,-5.975,-5.9581,-5.9327,-5.8903,-5.8306,-5.7877,-5.7447,-5.6928,-5.6407,-5.5993,-5.5445,-5.5445,-5.5445,-5.5335,-5.5423,-5.5071,-5.4365,-5.3943,-5.3498,-5.2872,-5.2513,-5.2062,-5.1248,-5.0337,-4.9604,-4.9328,-4.9032,-4.9032,-4.894,-4.894,-4.9052,-4.911,-4.9018,-4.9233,-4.9297,-4.9492,-4.9512,-4.9531,-4.9433,-4.9433,-4.959,-4.957,-4.9492,-4.9336,-4.916,-4.9043,-4.8984,-4.8906,-4.8848,-4.8848,-4.8848,-4.8848,-4.8848,-4.8848,-4.8848,-4.8848,-4.8848,-4.8848,-4.8848,-4.8848,-4.8848,-4.7503,-4.8443,-5.0997,-5.317,-5.5027,-5.6987,-5.8662,-6.0003,-6.0171,-6.0171,-6.0171,-6.0171,-6.0171,-6.0171,-6.0171,-6.0171,-6.0171,-6.0171,-6.0171,-6.0171,-6.0171,-6.0171,-6.0171,-6.0171,-6.0171,-6.0099,-6.0027,-5.9883,-5.9666,-5.9402,-5.9329,-5.9426,-5.957,-5.9714,-6.0051,-6.0147,-6.0027,-5.9955,-6.0051,-6.0123,-6.0171,-6.0171,-6.0171,-6.0171,-6.0171,-6.0171,-6.0171,-6.0171,-6.0171,-6.0171,-6.0171,-6.0087,-6.0003,-5.975,-5.9327,-5.9073,-5.8647,-5.8049,-5.7447,-5.7015,-5.6581,-5.6058,-5.5533,-5.5005,-5.4454,-5.4276,-5.4188,-5.4099,-5.4188,-5.4099,-5.3409,-5.2872,-5.2423,-5.1791,-5.152,-5.1157,-5.0337,-4.9604,-4.9236,-4.894,-4.894,-4.8848,-4.8887,-4.8867,-4.8984,-4.9043,-4.9219,-4.9453,-4.9687,-4.9961,-5.0117,-5.0215,-5.0254,-5.0254,-5.0176,-5.0039,-4.9883,-4.9766,-4.957,-4.9316,-4.9101,-4.8984,-4.8887,-4.8848,-4.8848,-4.8848,-4.8848,-4.8848,-4.8848,-4.8848,-4.8848,-4.8848,-4.8848,-4.8848,-4.8848,-4.8882,-5.11,-5.3106,-5.5027,-5.6901,-5.8832,-5.9895,-6.0171,-6.0171,-6.0171,-6.0171,-6.0171,-6.0171,-6.0171,-6.0171,-6.0171,-6.0171,-6.0171,-6.0171,-6.0171,-6.0171,-6.0171,-6.0171,-6.0171,-6.0171,-6.0075,-5.9931,-5.9762,-5.9762,-5.9594,-5.9618,-5.9955,-5.9979,-6.0051,-6.0099,-6.0171,-6.0171,-6.0171,-6.0171,-6.0171,-6.0171,-6.0171,-6.0171,-6.0171,-6.0171,-6.0171,-6.0171,-6.0171,-6.0171,-6.0171,-6.0171,-6.0003,-5.9642,-5.9388,-5.8879,-5.8197,-5.7791,-5.7188,-5.6581,-5.6036,-5.5423,-5.4983,-5.4454,-5.4032,-5.3676,-5.3409,-5.314,-5.2602,-5.2692,-5.2782,-5.2333,-5.2062,-5.1701,-5.0884,-5.0428,-5.0134,-4.9676,-4.9308,-4.9032,-4.894,-4.894,-4.8906,-4.8965,-4.9082,-4.9355,-4.9492,-4.9785,-4.998,-5.0098,-5.0371,-5.0664,-5.0781,-5.0898,-5.0605,-5.0312,-5.0332,-5.0234,-5.0117,-4.9941,-4.959,-4.9297,-4.9023,-4.8945,-4.8867,-4.8848,-4.8848,-4.8848,-4.8848,-4.8848,-4.8848,-4.8848,-4.8848,-4.8848,-4.8848,-4.8848]}]]